[[{"header":{"parameterUnit":"m.s-1","parameterCategory":1,"la1":31.0,"la2":29.5877,"lo1":-88.7671,"lo2":-86.6584,"dy":0.0162,"dx":0.0185,"nx":115,"ny":88,"refTime":"2024-05-07T12:00:00:Z","depth":0,"parameterNumber":2,"parameterNumberName":"U-component_of_WINDS"},"data":[0.0,0.0,0.0,0.0,0.0,0.0,0.0,0.0,0.0,0.0,0.0,0.0,0.0,0.0,0.0,0.0,0.0,0.0,0.0,0.0,0.0,0.0,0.0,0.0,0.0,0.0,0.0,0.0,0.0,0.0,0.0,0.0,0.0,0.0,0.0,0.0,0.0,0.0,0.0,0.0,0.0,0.0,0.0,0.0,0.0,0.0,0.0,0.0,0.0,0.0,0.0,0.0,0.0,0.0,0.0,0.0,0.0,0.0,0.0,0.0,0.0,0.0,0.0,0.0,0.0,0.0,0.0,0.0,0.0,0.0,0.0,0.0,0.0,0.0,0.0,0.0,0.0,0.0,0.0,0.0,0.0,0.0,0.0,0.0,0.0,0.0,0.0,0.0,0.0,0.0,0.0,0.0,0.0,0.0,0.0,0.0,0.0,0.0,0.0,0.0,0.0,0.0,0.0,0.0,0.0,0.0,0.0,0.0,0.0,0.0,0.0,0.0,0.0,0.0,0.0,0.0,0.0,0.0,0.0,0.0,0.0,0.0,0.0,0.0,0.0,0.0,0.0,0.0,0.0,0.0,0.0,0.0,0.0,0.0,0.0,0.0,0.0,0.0,0.0,0.0,0.0,0.0,0.0,0.0,0.0,0.0,0.0,0.0,0.0,0.0,0.0,0.0,0.0,0.0,0.0,0.0,0.0,0.0,0.0,0.0,0.0,0.0,0.0,0.0,0.0,0.0,0.0,0.0,0.0,0.0,0.0,0.0,0.0,0.0,0.0,0.0,0.0,0.0,0.0,0.0,0.0,0.0,0.0,0.0,0.0,0.0,0.0,0.0,0.0,0.0,0.0,0.0,0.0,0.0,0.0,0.0,0.0,0.0,0.0,0.0,0.0,0.0,0.0,0.0,0.0,0.0,0.0,0.0,0.0,0.0,0.0,0.0,0.0,0.0,0.0,0.0,0.0,0.0,0.0,0.0,0.0,0.0,0.0,0.0,0.0,0.0,0.0,0.0,0.0,0.0,0.0,0.0,0.0,0.0,0.0,0.0,0.0,0.0,0.0,0.0,0.0,0.0,0.0,0.0,0.0,0.0,0.0,0.0,0.0,0.0,0.0,0.0,0.0,0.0,0.0,0.0,0.0,0.0,0.0,0.0,0.0,0.0,0.0,0.0,0.0,0.0,0.0,0.0,0.0,0.0,0.0,0.0,0.0,0.0,0.0,0.0,0.0,0.0,0.0,0.0,0.0,0.0,0.0,0.0,0.0,0.0,0.0,0.0,0.0,0.0,0.0,0.0,0.0,0.0,0.0,0.0,0.0,0.0,0.0,0.0,0.0,0.0,0.0,0.0,0.0,0.0,0.0,0.0,0.0,0.0,0.0,0.0,0.0,0.0,0.0,0.0,0.0,0.0,0.0,0.0,0.0,0.0,0.0,0.0,0.0,0.0,0.0,0.0,0.0,0.0,0.0,0.0,0.0,0.0,0.0,0.0,0.0,0.0,0.0,0.0,0.0,0.0,0.0,0.0,0.0,0.0,0.0,0.0,0.0,0.0,0.0,0.0,0.0,0.0,0.0,0.0,0.0,0.0,0.0,0.0,0.0,0.0,0.0,0.0,0.0,0.0,0.0,0.0,0.0,0.0,0.0,0.0,0.0,0.0,0.0,0.0,0.0,0.0,0.0,0.0,0.0,0.0,0.0,0.0,0.0,0.0,0.0,0.0,0.0,0.0,0.0,0.0,0.0,0.0,0.0,0.0,0.0,0.0,0.0,0.0,0.0,0.0,0.0,0.0,0.0,0.0,0.0,0.0,0.0,0.0,0.0,0.0,0.0,0.0,0.0,0.0,0.0,0.0,0.0,0.0,0.0,0.0,0.0,0.0,0.0,0.0,0.0,0.0,0.0,0.0,0.0,0.0,0.0,0.0,0.0,0.0,0.0,0.0,0.0,0.0,0.0,0.0,0.0,0.0,0.0,0.0,0.0,0.0,0.0,0.0,0.0,0.0,0.0,0.0,0.0,0.0,0.0,0.0,0.0,0.0,0.0,0.0,0.0,0.0,0.0,0.0,0.0,0.0,0.0,0.0,0.0,0.0,0.0,0.0,0.0,0.0,0.0,0.0,0.0,0.0,0.0,0.0,0.0,0.0,0.0,0.0,0.0,0.0,0.0,0.0,0.0,0.0,0.0,0.0,0.0,0.0,0.0,0.0,0.0,0.0,0.0,0.0,0.0,0.0,0.0,0.0,0.0,0.0,0.0,0.0,0.0,0.0,0.0,0.0,0.0,0.0,0.0,0.0,0.0,0.0,0.0,0.0,0.0,0.0,0.0,0.0,0.0,0.0,0.0,0.0,0.0,0.0,0.0,0.0,0.0,0.0,0.0,0.0,0.0,0.0,0.0,0.0,0.0,0.0,0.0,0.0,0.0,0.0,0.0,0.0,0.0,0.0,0.0,0.0,0.0,0.0,0.0,0.0,0.0,0.0,0.0,0.0,0.0,0.0,0.0,0.0,0.0,0.0,0.0,0.0,0.0,0.0,0.0,0.0,0.0,0.0,0.0,0.0,0.0,0.0,0.0,0.0,0.0,0.0,0.0,0.0,0.0,0.0,0.0,0.0,0.0,0.0,0.0,0.0,0.0,0.0,0.0,0.0,0.0,0.0,0.0,0.0,0.0,0.0,0.0,0.0,0.0,0.0,0.0,0.0,0.0,0.0,0.0,0.0,0.0,0.0,0.0,0.0,0.0,0.0,0.0,0.0,0.0,0.0,0.0,0.0,0.0,0.0,0.0,0.0,0.0,0.0,0.0,0.0,0.0,0.0,0.0,0.0,0.0,0.0,0.0,0.0,0.0,0.0,0.0,0.0,0.0,0.0,0.0,0.0,0.0,0.0,0.0,0.0,0.0,0.0,0.0,0.0,0.0,0.0,0.0,0.0,0.0,0.0,0.0,0.0,0.0,0.0,0.0,0.0,0.0,0.0,0.0,0.0,0.0,0.0,0.0,0.0,0.0,0.0,0.0,0.0,0.0,0.0,0.0,0.0,0.0,0.0,0.0,0.0,0.0,0.0,0.0,0.0,0.0,0.0,0.0,0.0,0.0,0.0,0.0,0.0,0.0,0.0,0.0,0.0,0.0,0.0,0.0,0.0,0.0,0.0,0.0,0.0,0.0,0.0,0.0,0.0,0.0,0.0,0.0,0.0,0.0,0.0,0.0,0.0,0.0,0.0,0.0,0.0,0.0,0.0,0.0,0.0,0.0,0.0,0.0,0.0,0.0,0.0,0.0,0.0,0.0,0.0,0.0,0.0,0.0,0.0,0.0,0.0,0.0,0.0,0.0,0.0,0.0,0.0,0.0,0.0,0.0,0.0,0.0,0.0,0.0,0.0,0.0,0.0,0.0,0.0,0.0,0.0,0.0,0.0,0.0,0.0,0.0,0.0,0.0,0.0,0.0,0.0,0.0,0.0,0.0,0.0,0.0,0.0,0.0,0.0,0.0,0.0,0.0,0.0,0.0,0.0,0.0,0.0,0.0,0.0,0.0,0.0,0.0,0.0,0.0,0.0,0.0,0.0,0.0,0.0,0.0,0.0,0.0,0.0,0.0,0.0,0.0,0.0,0.0,0.0,0.0,0.0,0.0,0.0,0.0,0.0,0.0,0.0,0.0,0.0,0.0,0.0,0.0,0.0,0.0,0.0,0.0,0.0,0.0,0.0,0.0,0.0,0.0,0.0,0.0,0.0,0.0,0.0,0.0,0.0,0.0,0.0,0.0,0.0,0.0,0.0,0.0,0.0,0.0,0.0,0.0,0.0,0.0,0.0,0.0,0.0,0.0,0.0,0.0,0.0,0.0,0.0,0.0,0.0,0.0,0.0,0.0,0.0,0.0,0.0,0.0,0.0,0.0,0.0,0.0,0.0,0.0,0.0,0.0,0.0,0.0,0.0,0.0,0.0,0.0,0.0,0.0,0.0,0.0,0.0,0.0,0.0,0.0,0.0,0.0,0.0,0.0,0.0,0.0,0.0,0.0,0.0,0.0,0.0,0.0,0.0,0.0,0.0,0.0,0.0,0.0,0.0,0.0,0.0,0.0,0.0,0.0,0.0,0.0,0.0,0.0,0.0,0.0,0.0,0.0,0.0,0.0,0.0,0.0,0.0,0.0,0.0,0.0,0.0,0.0,0.0,0.0,0.0,0.0,0.0,0.0,0.0,0.0,0.0,0.0,0.0,0.0,0.0,0.0,0.0,0.0,0.0,0.0,0.0,0.0,0.0,0.0,0.0,-2.6339,0.0,0.0,0.0,0.0,0.0,0.0,0.0,0.0,0.0,0.0,0.0,0.0,0.0,0.0,0.0,0.0,0.0,0.0,0.0,0.0,0.0,0.0,0.0,0.0,0.0,0.0,0.0,0.0,0.0,0.0,0.0,0.0,0.0,0.0,0.0,0.0,0.0,0.0,0.0,0.0,0.0,0.0,0.0,0.0,0.0,0.0,0.0,0.0,0.0,0.0,0.0,0.0,0.0,0.0,0.0,0.0,0.0,0.0,0.0,0.0,0.0,0.0,0.0,0.0,0.0,0.0,0.0,0.0,0.0,0.0,0.0,0.0,0.0,0.0,0.0,0.0,0.0,0.0,0.0,0.0,0.0,0.0,0.0,0.0,0.0,0.0,0.0,0.0,0.0,0.0,0.0,0.0,0.0,0.0,0.0,0.0,0.0,0.0,0.0,0.0,0.0,0.0,0.0,0.0,0.0,0.0,0.0,0.0,0.0,0.0,-2.7348,-2.8629,-2.7858,-2.74,-2.7385,0.0,0.0,0.0,0.0,0.0,0.0,0.0,0.0,0.0,0.0,0.0,0.0,0.0,0.0,0.0,0.0,0.0,0.0,0.0,0.0,0.0,0.0,0.0,0.0,0.0,0.0,0.0,0.0,0.0,0.0,0.0,0.0,0.0,0.0,0.0,0.0,0.0,0.0,0.0,0.0,0.0,0.0,0.0,0.0,0.0,0.0,0.0,0.0,0.0,0.0,0.0,0.0,0.0,0.0,0.0,0.0,0.0,0.0,0.0,0.0,0.0,0.0,0.0,0.0,0.0,0.0,0.0,0.0,0.0,0.0,0.0,0.0,0.0,0.0,0.0,0.0,0.0,0.0,0.0,0.0,0.0,0.0,0.0,0.0,0.0,0.0,0.0,0.0,0.0,0.0,0.0,0.0,0.0,0.0,0.0,0.0,0.0,0.0,0.0,0.0,0.0,0.0,0.0,0.0,0.0,0.0,0.0,0.0,0.0,0.0,0.0,0.0,-2.9318,-2.8671,-2.8308,0.0,0.0,0.0,0.0,0.0,0.0,0.0,0.0,0.0,0.0,0.0,0.0,0.0,0.0,0.0,0.0,0.0,0.0,0.0,0.0,0.0,0.0,0.0,0.0,0.0,0.0,0.0,0.0,0.0,0.0,0.0,0.0,0.0,0.0,0.0,0.0,0.0,0.0,0.0,0.0,0.0,0.0,0.0,0.0,0.0,0.0,0.0,0.0,0.0,0.0,0.0,0.0,0.0,0.0,0.0,0.0,0.0,0.0,0.0,0.0,0.0,0.0,0.0,0.0,0.0,0.0,0.0,0.0,0.0,0.0,0.0,0.0,0.0,0.0,0.0,0.0,0.0,0.0,0.0,0.0,0.0,0.0,0.0,0.0,0.0,0.0,0.0,0.0,0.0,0.0,0.0,0.0,0.0,0.0,0.0,0.0,0.0,0.0,0.0,0.0,0.0,0.0,0.0,0.0,0.0,0.0,0.0,0.0,0.0,0.0,-3.024,-3.2656,-3.1898,0.0,-2.9263,0.0,0.0,0.0,0.0,0.0,0.0,0.0,0.0,0.0,0.0,0.0,0.0,0.0,0.0,0.0,0.0,0.0,0.0,0.0,0.0,0.0,0.0,0.0,0.0,0.0,0.0,0.0,0.0,0.0,0.0,0.0,0.0,0.0,0.0,0.0,0.0,0.0,0.0,0.0,0.0,0.0,0.0,0.0,0.0,0.0,0.0,0.0,0.0,0.0,0.0,0.0,0.0,0.0,0.0,0.0,0.0,0.0,0.0,0.0,0.0,0.0,0.0,0.0,0.0,0.0,0.0,0.0,0.0,0.0,0.0,0.0,0.0,0.0,0.0,0.0,0.0,0.0,0.0,0.0,0.0,0.0,0.0,0.0,0.0,0.0,0.0,0.0,0.0,0.0,0.0,0.0,0.0,0.0,0.0,0.0,0.0,0.0,0.0,0.0,0.0,0.0,0.0,0.0,0.0,0.0,0.0,0.0,0.0,0.0,0.0,-3.1028,-3.3051,-3.272,-3.1499,0.0,0.0,0.0,0.0,0.0,0.0,0.0,0.0,0.0,0.0,0.0,0.0,0.0,0.0,0.0,0.0,0.0,0.0,0.0,0.0,0.0,0.0,0.0,0.0,0.0,0.0,0.0,0.0,0.0,0.0,0.0,0.0,0.0,0.0,0.0,0.0,0.0,0.0,0.0,0.0,0.0,0.0,0.0,0.0,0.0,0.0,0.0,0.0,0.0,0.0,0.0,0.0,0.0,0.0,0.0,0.0,0.0,0.0,0.0,0.0,0.0,0.0,0.0,0.0,0.0,0.0,0.0,0.0,0.0,0.0,0.0,0.0,0.0,0.0,0.0,0.0,0.0,0.0,0.0,0.0,0.0,0.0,0.0,0.0,0.0,0.0,0.0,0.0,0.0,0.0,0.0,0.0,0.0,0.0,0.0,0.0,0.0,0.0,0.0,0.0,0.0,0.0,0.0,0.0,0.0,0.0,0.0,0.0,0.0,0.0,-3.1217,-3.2081,-3.3652,-3.3265,-3.2025,-2.9983,0.0,0.0,0.0,0.0,0.0,0.0,0.0,0.0,0.0,0.0,0.0,0.0,0.0,0.0,0.0,0.0,0.0,0.0,0.0,0.0,0.0,0.0,0.0,0.0,0.0,0.0,0.0,0.0,0.0,0.0,0.0,0.0,0.0,0.0,0.0,0.0,0.0,0.0,0.0,0.0,0.0,0.0,0.0,0.0,0.0,0.0,0.0,0.0,0.0,0.0,0.0,0.0,0.0,0.0,0.0,0.0,0.0,0.0,0.0,0.0,0.0,0.0,0.0,0.0,0.0,0.0,0.0,0.0,0.0,0.0,0.0,0.0,0.0,0.0,0.0,0.0,0.0,0.0,0.0,0.0,0.0,0.0,0.0,0.0,0.0,0.0,0.0,0.0,0.0,0.0,0.0,0.0,0.0,0.0,0.0,0.0,0.0,0.0,0.0,0.0,0.0,0.0,0.0,0.0,0.0,0.0,0.0,0.0,-3.509,-3.3796,-3.3807,-3.5385,-3.388,-3.2599,0.0,0.0,0.0,0.0,0.0,0.0,0.0,0.0,0.0,0.0,0.0,0.0,0.0,0.0,0.0,0.0,0.0,0.0,0.0,0.0,0.0,0.0,0.0,0.0,0.0,0.0,0.0,0.0,0.0,0.0,0.0,0.0,0.0,0.0,0.0,0.0,0.0,0.0,0.0,0.0,0.0,0.0,0.0,0.0,0.0,0.0,0.0,0.0,0.0,0.0,0.0,0.0,0.0,0.0,0.0,0.0,0.0,0.0,0.0,0.0,0.0,0.0,0.0,0.0,0.0,0.0,0.0,0.0,0.0,0.0,0.0,0.0,0.0,0.0,0.0,0.0,0.0,0.0,0.0,0.0,0.0,0.0,0.0,0.0,0.0,0.0,0.0,0.0,0.0,0.0,0.0,0.0,0.0,0.0,0.0,0.0,0.0,0.0,0.0,0.0,0.0,0.0,0.0,0.0,0.0,0.0,0.0,0.0,0.0,-3.3146,-3.4179,-3.5225,-3.626,-3.4687,-3.3395,0.0,0.0,0.0,0.0,0.0,0.0,0.0,0.0,0.0,0.0,0.0,0.0,0.0,0.0,0.0,0.0,0.0,0.0,0.0,0.0,0.0,0.0,0.0,0.0,0.0,0.0,0.0,0.0,0.0,0.0,0.0,0.0,0.0,0.0,0.0,0.0,0.0,0.0,0.0,0.0,0.0,0.0,0.0,0.0,0.0,0.0,0.0,0.0,0.0,0.0,0.0,0.0,0.0,0.0,0.0,0.0,0.0,0.0,0.0,0.0,0.0,0.0,0.0,0.0,0.0,0.0,0.0,0.0,0.0,0.0,0.0,0.0,0.0,0.0,0.0,0.0,0.0,0.0,0.0,0.0,0.0,0.0,0.0,0.0,0.0,0.0,0.0,0.0,0.0,0.0,0.0,0.0,0.0,0.0,0.0,0.0,0.0,0.0,0.0,0.0,0.0,0.0,0.0,0.0,0.0,0.0,0.0,0.0,0.0,-3.3443,0.0,-3.6826,-3.6723,-3.5637,-3.4257,0.0,0.0,0.0,0.0,0.0,0.0,0.0,0.0,0.0,0.0,0.0,0.0,0.0,0.0,0.0,0.0,0.0,0.0,0.0,0.0,0.0,0.0,0.0,0.0,0.0,0.0,0.0,0.0,0.0,0.0,0.0,0.0,0.0,0.0,0.0,0.0,0.0,0.0,0.0,0.0,0.0,0.0,0.0,0.0,0.0,0.0,0.0,0.0,0.0,0.0,0.0,0.0,0.0,0.0,0.0,0.0,0.0,0.0,0.0,0.0,0.0,0.0,0.0,0.0,0.0,0.0,0.0,0.0,0.0,0.0,0.0,0.0,0.0,0.0,0.0,0.0,0.0,0.0,0.0,0.0,0.0,0.0,0.0,0.0,0.0,0.0,0.0,0.0,0.0,0.0,0.0,0.0,0.0,0.0,0.0,0.0,0.0,0.0,0.0,0.0,0.0,0.0,0.0,0.0,0.0,0.0,0.0,0.0,-3.3462,-3.6627,-3.8389,-3.8497,-3.6853,-3.6747,-3.5201,0.0,0.0,0.0,0.0,0.0,0.0,0.0,0.0,0.0,0.0,0.0,0.0,0.0,0.0,0.0,0.0,0.0,0.0,0.0,0.0,0.0,0.0,0.0,0.0,0.0,0.0,0.0,0.0,0.0,0.0,0.0,0.0,0.0,0.0,0.0,0.0,0.0,0.0,0.0,0.0,0.0,0.0,0.0,0.0,0.0,0.0,0.0,0.0,0.0,0.0,0.0,0.0,0.0,0.0,0.0,0.0,0.0,0.0,0.0,0.0,0.0,0.0,0.0,0.0,0.0,0.0,0.0,0.0,0.0,0.0,0.0,0.0,0.0,0.0,0.0,0.0,0.0,0.0,0.0,0.0,0.0,0.0,0.0,0.0,0.0,0.0,0.0,0.0,0.0,0.0,0.0,0.0,0.0,0.0,0.0,0.0,0.0,0.0,0.0,0.0,0.0,0.0,0.0,0.0,0.0,0.0,0.0,0.0,0.0,-3.6863,-3.8472,-3.9625,-4.0096,-3.7365,-3.6213,0.0,0.0,0.0,0.0,0.0,0.0,0.0,0.0,0.0,0.0,0.0,0.0,0.0,0.0,0.0,0.0,0.0,0.0,0.0,0.0,0.0,0.0,0.0,0.0,0.0,0.0,0.0,0.0,0.0,0.0,0.0,0.0,0.0,0.0,0.0,0.0,0.0,0.0,0.0,0.0,0.0,0.0,0.0,0.0,0.0,0.0,0.0,0.0,0.0,0.0,0.0,0.0,0.0,0.0,0.0,0.0,0.0,0.0,0.0,0.0,0.0,0.0,0.0,0.0,0.0,0.0,0.0,0.0,0.0,0.0,0.0,0.0,0.0,0.0,0.0,0.0,0.0,0.0,0.0,0.0,0.0,0.0,0.0,0.0,0.0,0.0,0.0,0.0,0.0,0.0,0.0,0.0,0.0,0.0,0.0,0.0,0.0,0.0,0.0,0.0,0.0,0.0,0.0,0.0,0.0,0.0,0.0,0.0,0.0,-3.9276,-4.0807,-4.1828,-4.2239,-3.9615,-3.8146,-3.7912,0.0,0.0,0.0,0.0,0.0,0.0,0.0,0.0,0.0,0.0,0.0,0.0,0.0,0.0,0.0,0.0,0.0,0.0,0.0,0.0,0.0,0.0,0.0,0.0,0.0,0.0,0.0,0.0,0.0,0.0,0.0,0.0,0.0,0.0,0.0,0.0,0.0,0.0,0.0,0.0,0.0,0.0,0.0,0.0,0.0,0.0,0.0,0.0,0.0,0.0,0.0,0.0,0.0,0.0,0.0,0.0,0.0,0.0,0.0,0.0,0.0,0.0,0.0,0.0,0.0,0.0,0.0,0.0,0.0,0.0,0.0,0.0,0.0,0.0,0.0,0.0,0.0,0.0,0.0,0.0,0.0,0.0,0.0,0.0,0.0,0.0,0.0,0.0,0.0,0.0,0.0,0.0,0.0,0.0,0.0,0.0,0.0,0.0,0.0,0.0,0.0,0.0,0.0,0.0,0.0,0.0,0.0,0.0,-4.3294,-4.5073,-4.522,-4.3537,-4.3115,-4.0803,0.0,0.0,0.0,0.0,0.0,0.0,0.0,0.0,0.0,0.0,0.0,0.0,0.0,0.0,0.0,0.0,0.0,0.0,0.0,0.0,0.0,0.0,0.0,0.0,0.0,0.0,0.0,0.0,0.0,0.0,0.0,0.0,0.0,0.0,0.0,0.0,0.0,0.0,0.0,0.0,0.0,0.0,0.0,0.0,0.0,0.0,0.0,0.0,0.0,0.0,0.0,0.0,0.0,0.0,0.0,0.0,0.0,0.0,0.0,0.0,0.0,0.0,0.0,0.0,0.0,0.0,0.0,0.0,0.0,0.0,0.0,0.0,0.0,0.0,0.0,0.0,0.0,0.0,0.0,0.0,0.0,0.0,0.0,0.0,0.0,0.0,0.0,0.0,0.0,0.0,0.0,0.0,0.0,0.0,0.0,0.0,0.0,0.0,0.0,0.0,0.0,0.0,0.0,0.0,0.0,0.0,0.0,0.0,0.0,-4.5829,-4.9308,-5.0326,-4.8605,-4.4975,-4.2412,0.0,0.0,0.0,0.0,0.0,0.0,0.0,0.0,0.0,0.0,0.0,0.0,0.0,0.0,0.0,0.0,0.0,0.0,0.0,0.0,0.0,0.0,0.0,0.0,0.0,0.0,0.0,0.0,0.0,0.0,0.0,0.0,0.0,0.0,0.0,0.0,0.0,0.0,0.0,0.0,0.0,0.0,0.0,0.0,0.0,0.0,0.0,0.0,0.0,0.0,0.0,0.0,0.0,0.0,0.0,0.0,0.0,0.0,0.0,0.0,0.0,0.0,0.0,0.0,0.0,0.0,0.0,0.0,0.0,0.0,0.0,0.0,0.0,0.0,0.0,0.0,0.0,0.0,0.0,0.0,0.0,0.0,0.0,0.0,0.0,0.0,0.0,0.0,0.0,0.0,0.0,0.0,0.0,0.0,0.0,0.0,0.0,0.0,0.0,0.0,0.0,0.0,0.0,0.0,0.0,0.0,0.0,0.0,-4.4978,-4.7847,-5.277,-5.4818,-5.378,-4.8827,-4.5028,0.0,0.0,0.0,0.0,0.0,0.0,0.0,0.0,0.0,0.0,0.0,0.0,0.0,0.0,0.0,0.0,0.0,0.0,0.0,0.0,0.0,0.0,0.0,0.0,0.0,0.0,0.0,0.0,0.0,0.0,0.0,0.0,0.0,0.0,0.0,0.0,0.0,0.0,0.0,0.0,0.0,0.0,0.0,0.0,0.0,0.0,0.0,0.0,0.0,0.0,0.0,0.0,0.0,0.0,0.0,0.0,0.0,0.0,0.0,0.0,0.0,0.0,0.0,0.0,0.0,0.0,0.0,0.0,0.0,0.0,0.0,0.0,0.0,0.0,0.0,0.0,0.0,0.0,0.0,0.0,0.0,0.0,0.0,0.0,0.0,0.0,0.0,0.0,0.0,0.0,0.0,0.0,0.0,0.0,0.0,0.0,0.0,0.0,0.0,0.0,0.0,0.0,0.0,0.0,0.0,0.0,0.0,0.0,-4.7094,-4.9596,-5.543,-5.8415,-5.8108,-5.3255,-4.798,0.0,0.0,0.0,0.0,0.0,0.0,0.0,0.0,0.0,0.0,0.0,0.0,0.0,0.0,0.0,0.0,0.0,0.0,0.0,0.0,0.0,0.0,0.0,0.0,0.0,0.0,0.0,0.0,0.0,0.0,0.0,0.0,0.0,0.0,0.0,0.0,0.0,0.0,0.0,0.0,0.0,0.0,0.0,0.0,0.0,0.0,0.0,0.0,0.0,0.0,0.0,0.0,0.0,0.0,0.0,0.0,0.0,0.0,0.0,0.0,0.0,0.0,0.0,0.0,0.0,0.0,0.0,0.0,0.0,0.0,0.0,0.0,0.0,0.0,0.0,0.0,0.0,0.0,0.0,0.0,0.0,0.0,0.0,0.0,0.0,0.0,0.0,0.0,0.0,0.0,0.0,0.0,0.0,0.0,0.0,0.0,0.0,0.0,0.0,0.0,0.0,0.0,0.0,0.0,0.0,0.0,0.0,0.0,-4.8214,-5.1414,-5.6543,-5.9309,-5.9333,-5.3822,-4.896,0.0,0.0,0.0,0.0,0.0,0.0,0.0,0.0,0.0,0.0,0.0,0.0,0.0,0.0,0.0,0.0,0.0,0.0,0.0,0.0,0.0,0.0,0.0,0.0,0.0,0.0,0.0,0.0,0.0,0.0,0.0,0.0,0.0,0.0,0.0,0.0,0.0,0.0,0.0,0.0,0.0,0.0,0.0,0.0,0.0,0.0,0.0,0.0,-2.8406,0.0,0.0,0.0,0.0,0.0,0.0,0.0,0.0,0.0,0.0,0.0,0.0,0.0,0.0,0.0,0.0,0.0,0.0,0.0,0.0,0.0,0.0,0.0,0.0,0.0,0.0,0.0,0.0,0.0,0.0,0.0,0.0,0.0,0.0,0.0,0.0,0.0,0.0,0.0,0.0,0.0,0.0,0.0,0.0,0.0,0.0,0.0,0.0,0.0,0.0,0.0,0.0,0.0,0.0,0.0,0.0,0.0,0.0,0.0,-4.9351,-5.3119,-5.7375,-5.9622,-5.954,-5.5526,-5.1302,0.0,0.0,0.0,0.0,0.0,0.0,0.0,0.0,0.0,0.0,0.0,0.0,0.0,0.0,0.0,0.0,0.0,0.0,0.0,0.0,0.0,0.0,0.0,0.0,0.0,0.0,0.0,0.0,0.0,0.0,0.0,0.0,0.0,0.0,0.0,0.0,0.0,0.0,0.0,0.0,0.0,0.0,0.0,0.0,0.0,0.0,0.0,0.0,0.0,0.0,0.0,0.0,0.0,0.0,0.0,0.0,0.0,0.0,0.0,0.0,0.0,0.0,0.0,0.0,0.0,0.0,0.0,0.0,0.0,0.0,0.0,0.0,0.0,0.0,0.0,0.0,0.0,0.0,0.0,0.0,0.0,0.0,0.0,0.0,0.0,0.0,0.0,0.0,0.0,0.0,0.0,0.0,0.0,0.0,0.0,0.0,0.0,0.0,0.0,0.0,0.0,0.0,0.0,0.0,0.0,0.0,0.0,-4.6047,-5.0506,-5.4824,-5.8161,-5.9889,-5.986,-5.7263,-5.3614,-4.8952,0.0,0.0,0.0,0.0,0.0,0.0,0.0,0.0,0.0,0.0,0.0,0.0,0.0,0.0,0.0,0.0,0.0,0.0,0.0,0.0,0.0,0.0,0.0,0.0,0.0,0.0,0.0,0.0,0.0,0.0,0.0,0.0,0.0,0.0,0.0,0.0,0.0,0.0,-2.726,-2.8831,0.0,0.0,0.0,0.0,0.0,0.0,0.0,0.0,-2.9109,0.0,0.0,0.0,0.0,0.0,0.0,0.0,0.0,0.0,0.0,0.0,0.0,0.0,0.0,0.0,0.0,0.0,0.0,0.0,0.0,0.0,0.0,0.0,0.0,0.0,0.0,0.0,0.0,0.0,0.0,0.0,0.0,0.0,0.0,0.0,0.0,0.0,0.0,0.0,0.0,0.0,0.0,0.0,0.0,0.0,0.0,0.0,0.0,0.0,0.0,0.0,0.0,0.0,0.0,0.0,0.0,-4.4885,-4.7822,-5.1699,-5.6656,-5.9339,-6.0769,-6.0761,-5.7048,-5.3594,-5.0511,0.0,0.0,0.0,0.0,0.0,0.0,0.0,0.0,0.0,0.0,0.0,0.0,0.0,0.0,0.0,0.0,0.0,0.0,0.0,0.0,0.0,0.0,0.0,0.0,0.0,0.0,0.0,0.0,0.0,0.0,0.0,0.0,0.0,0.0,0.0,0.0,0.0,0.0,0.0,-3.0498,-3.1506,0.0,0.0,0.0,0.0,0.0,0.0,0.0,0.0,-3.0416,0.0,0.0,0.0,0.0,0.0,0.0,0.0,0.0,0.0,0.0,0.0,0.0,0.0,0.0,0.0,0.0,0.0,0.0,0.0,0.0,0.0,0.0,0.0,0.0,0.0,0.0,0.0,0.0,0.0,0.0,0.0,0.0,0.0,0.0,0.0,0.0,0.0,0.0,0.0,0.0,0.0,0.0,0.0,0.0,0.0,0.0,0.0,0.0,0.0,0.0,0.0,0.0,0.0,0.0,0.0,-4.5638,-4.8723,-5.2728,-5.7708,-5.9476,-6.0384,-6.0383,-5.636,-5.289,0.0,0.0,0.0,0.0,0.0,0.0,0.0,0.0,0.0,0.0,0.0,0.0,0.0,0.0,0.0,0.0,0.0,0.0,0.0,0.0,0.0,0.0,0.0,0.0,0.0,0.0,0.0,0.0,0.0,0.0,0.0,0.0,0.0,0.0,0.0,0.0,0.0,0.0,0.0,0.0,-3.1248,-3.2248,-3.1303,0.0,0.0,0.0,0.0,0.0,0.0,-3.1885,-3.1212,0.0,0.0,0.0,0.0,0.0,0.0,0.0,0.0,0.0,0.0,0.0,0.0,0.0,0.0,0.0,0.0,0.0,0.0,0.0,0.0,0.0,0.0,0.0,0.0,0.0,0.0,0.0,0.0,0.0,0.0,0.0,0.0,0.0,0.0,0.0,0.0,0.0,0.0,0.0,0.0,0.0,0.0,0.0,0.0,0.0,0.0,0.0,0.0,0.0,0.0,0.0,0.0,0.0,0.0,0.0,-4.5749,-4.9335,-5.3555,-5.8278,-5.936,-5.9843,-5.9822,-5.5567,-5.2097,0.0,0.0,0.0,0.0,0.0,0.0,0.0,0.0,0.0,0.0,0.0,0.0,0.0,0.0,0.0,0.0,0.0,0.0,0.0,0.0,0.0,0.0,0.0,0.0,0.0,0.0,0.0,0.0,0.0,0.0,0.0,0.0,0.0,0.0,0.0,0.0,0.0,0.0,0.0,0.0,0.0,-3.3093,-3.1523,-3.3149,0.0,0.0,0.0,0.0,-3.316,-3.291,0.0,0.0,0.0,0.0,0.0,0.0,0.0,0.0,0.0,0.0,0.0,0.0,0.0,0.0,0.0,0.0,0.0,0.0,0.0,0.0,0.0,0.0,0.0,0.0,0.0,0.0,0.0,0.0,0.0,0.0,0.0,0.0,0.0,0.0,0.0,0.0,0.0,0.0,0.0,0.0,0.0,0.0,0.0,0.0,0.0,0.0,0.0,0.0,0.0,0.0,0.0,0.0,0.0,0.0,0.0,0.0,-4.5761,-4.9939,-5.4166,-5.8372,-5.9426,-5.9899,-5.9841,-5.5015,-5.1505,0.0,0.0,0.0,0.0,0.0,0.0,0.0,0.0,0.0,0.0,0.0,0.0,0.0,0.0,0.0,0.0,0.0,0.0,0.0,0.0,0.0,0.0,0.0,0.0,0.0,0.0,0.0,0.0,0.0,0.0,0.0,0.0,0.0,0.0,0.0,0.0,0.0,0.0,0.0,0.0,0.0,-3.4966,-3.399,-3.4718,-3.5002,0.0,0.0,-3.4071,-3.4052,-3.5218,0.0,0.0,0.0,0.0,0.0,0.0,0.0,0.0,0.0,0.0,0.0,0.0,0.0,0.0,0.0,0.0,0.0,0.0,0.0,0.0,0.0,0.0,0.0,0.0,0.0,0.0,0.0,0.0,0.0,0.0,0.0,0.0,0.0,0.0,0.0,0.0,0.0,0.0,0.0,0.0,0.0,0.0,0.0,0.0,0.0,0.0,0.0,0.0,0.0,0.0,0.0,0.0,0.0,0.0,0.0,-4.2073,-4.5807,-5.0024,-5.4039,-5.7714,-5.87,-5.9145,-5.9154,-5.373,-5.0442,0.0,0.0,0.0,0.0,0.0,0.0,0.0,0.0,0.0,0.0,0.0,0.0,0.0,0.0,0.0,0.0,0.0,0.0,0.0,0.0,0.0,0.0,0.0,0.0,0.0,0.0,0.0,0.0,0.0,0.0,0.0,0.0,0.0,0.0,0.0,0.0,0.0,0.0,0.0,0.0,0.0,0.0,-3.3832,-3.5477,0.0,0.0,0.0,-3.5622,-3.5622,0.0,0.0,0.0,0.0,0.0,0.0,0.0,0.0,0.0,0.0,0.0,0.0,0.0,0.0,0.0,0.0,0.0,0.0,0.0,0.0,0.0,0.0,0.0,0.0,0.0,0.0,0.0,0.0,0.0,0.0,0.0,0.0,0.0,0.0,0.0,0.0,0.0,0.0,0.0,0.0,0.0,0.0,0.0,0.0,0.0,0.0,0.0,0.0,0.0,0.0,0.0,0.0,0.0,0.0,0.0,0.0,0.0,-4.5826,-5.0024,-5.3846,-5.7135,-5.7918,-5.8178,-5.7851,-5.2793,0.0,0.0,0.0,0.0,0.0,0.0,0.0,0.0,0.0,0.0,0.0,0.0,0.0,0.0,0.0,0.0,0.0,0.0,0.0,0.0,0.0,0.0,0.0,0.0,0.0,0.0,0.0,-2.7898,0.0,0.0,0.0,0.0,0.0,0.0,0.0,0.0,0.0,0.0,0.0,0.0,0.0,0.0,-3.6401,-3.4507,-3.6759,-3.7873,0.0,0.0,-3.7199,-3.6776,-3.6372,-3.5584,0.0,0.0,0.0,0.0,0.0,0.0,0.0,0.0,0.0,0.0,0.0,0.0,0.0,0.0,0.0,0.0,0.0,0.0,0.0,0.0,0.0,0.0,0.0,0.0,0.0,0.0,0.0,0.0,0.0,0.0,0.0,0.0,0.0,0.0,0.0,0.0,0.0,0.0,0.0,0.0,0.0,0.0,0.0,0.0,0.0,0.0,0.0,0.0,0.0,0.0,0.0,0.0,0.0,0.0,0.0,-4.5884,-5.0062,-5.3829,-5.708,-5.732,-5.6991,-5.6154,-5.271,-4.9726,0.0,0.0,0.0,0.0,0.0,0.0,0.0,0.0,0.0,0.0,0.0,0.0,0.0,0.0,0.0,0.0,0.0,0.0,0.0,0.0,0.0,0.0,0.0,0.0,0.0,0.0,0.0,0.0,0.0,0.0,0.0,0.0,0.0,0.0,0.0,0.0,0.0,0.0,0.0,0.0,0.0,-3.787,-3.7688,-3.9207,-3.9996,0.0,0.0,-3.8565,-3.6942,-3.9269,-3.9411,-3.3891,0.0,0.0,0.0,0.0,0.0,0.0,0.0,0.0,0.0,0.0,0.0,0.0,0.0,0.0,0.0,0.0,0.0,0.0,0.0,0.0,0.0,0.0,0.0,0.0,0.0,0.0,0.0,0.0,0.0,0.0,0.0,0.0,0.0,0.0,0.0,0.0,0.0,0.0,0.0,0.0,0.0,0.0,0.0,0.0,0.0,0.0,0.0,0.0,0.0,0.0,0.0,0.0,0.0,-4.375,-4.6639,-5.0828,-5.4127,-5.6353,-5.7009,-5.6641,-5.529,-5.2967,-5.0248,0.0,0.0,0.0,0.0,0.0,0.0,0.0,0.0,0.0,0.0,0.0,0.0,0.0,0.0,0.0,0.0,0.0,0.0,0.0,0.0,0.0,0.0,0.0,0.0,0.0,0.0,0.0,0.0,-3.0525,-3.0908,-3.143,0.0,0.0,0.0,0.0,0.0,0.0,0.0,0.0,0.0,0.0,-3.8792,-3.8803,-3.9777,0.0,0.0,-3.9281,-3.9058,-3.8335,-3.8466,-3.7892,-3.5596,-3.4757,0.0,0.0,0.0,0.0,0.0,0.0,0.0,0.0,0.0,0.0,0.0,0.0,0.0,0.0,0.0,0.0,0.0,0.0,0.0,0.0,0.0,0.0,0.0,0.0,0.0,0.0,0.0,0.0,0.0,0.0,0.0,0.0,0.0,0.0,0.0,0.0,0.0,0.0,0.0,0.0,0.0,0.0,0.0,0.0,0.0,0.0,0.0,0.0,0.0,0.0,0.0,0.0,-4.4543,-4.7076,-5.108,-5.405,-5.5967,-5.6594,-5.61,-5.4428,-5.2948,-5.0585,0.0,0.0,0.0,0.0,0.0,0.0,0.0,0.0,0.0,0.0,0.0,0.0,0.0,0.0,0.0,0.0,0.0,0.0,0.0,0.0,0.0,0.0,0.0,0.0,0.0,0.0,0.0,0.0,-3.207,-3.2331,-3.2918,0.0,0.0,0.0,0.0,0.0,0.0,0.0,0.0,0.0,0.0,-3.9669,-3.9669,-4.0381,-4.0673,-4.0057,-3.98,-3.9462,-3.8923,-3.8081,-3.7046,-3.5776,0.0,0.0,0.0,0.0,0.0,0.0,0.0,0.0,0.0,0.0,0.0,0.0,0.0,0.0,0.0,0.0,0.0,0.0,0.0,0.0,0.0,0.0,0.0,0.0,0.0,0.0,0.0,-3.952,0.0,0.0,-3.9443,0.0,0.0,0.0,0.0,0.0,0.0,0.0,0.0,0.0,0.0,0.0,0.0,0.0,0.0,0.0,0.0,0.0,0.0,0.0,0.0,0.0,0.0,-4.4601,-4.7122,-5.0558,-5.3481,-5.5883,-5.6025,-5.5213,-5.3488,-5.263,-5.0604,-4.7212,0.0,0.0,0.0,0.0,0.0,0.0,0.0,0.0,0.0,0.0,0.0,0.0,0.0,0.0,0.0,0.0,0.0,0.0,0.0,0.0,0.0,0.0,0.0,0.0,0.0,0.0,-3.2878,-3.2941,-3.2979,0.0,0.0,0.0,0.0,0.0,0.0,0.0,0.0,0.0,0.0,-3.8411,-4.0477,-4.0477,-4.12,-4.1673,-4.1654,-4.0969,-3.9881,-3.8296,-3.8661,-3.7822,0.0,0.0,0.0,0.0,0.0,0.0,0.0,0.0,0.0,0.0,0.0,0.0,0.0,0.0,0.0,0.0,0.0,0.0,0.0,0.0,0.0,0.0,0.0,0.0,0.0,0.0,0.0,-4.484,-4.4549,0.0,0.0,0.0,0.0,0.0,0.0,0.0,0.0,0.0,0.0,0.0,-4.6549,-4.713,0.0,0.0,0.0,0.0,0.0,0.0,0.0,0.0,0.0,0.0,0.0,0.0,-4.6791,-4.879,-5.1554,-5.3662,-5.5045,-5.5671,-5.4896,-5.2619,-5.2873,-5.1196,-4.7231,0.0,0.0,0.0,0.0,0.0,0.0,0.0,0.0,0.0,0.0,0.0,0.0,0.0,0.0,0.0,0.0,0.0,0.0,0.0,0.0,0.0,0.0,0.0,0.0,0.0,-3.3795,0.0,0.0,0.0,0.0,0.0,0.0,0.0,0.0,0.0,0.0,0.0,-3.7038,-3.7911,-3.945,-4.0727,-4.1277,-4.1123,-4.0923,0.0,0.0,0.0,0.0,0.0,0.0,0.0,0.0,0.0,0.0,0.0,0.0,0.0,0.0,-3.3923,-3.1654,-3.1019,-3.0827,-3.0827,0.0,0.0,0.0,0.0,0.0,0.0,0.0,0.0,0.0,0.0,0.0,0.0,0.0,0.0,-4.7692,0.0,-4.7322,0.0,0.0,0.0,0.0,0.0,0.0,0.0,0.0,-4.778,-4.9367,-5.0401,-5.098,-5.0923,0.0,-5.0076,-4.7499,0.0,0.0,0.0,0.0,0.0,0.0,0.0,0.0,-4.7786,-4.9195,-5.1666,-5.3356,-5.4158,-5.4774,-5.4136,-5.2174,-5.2139,-5.0577,-4.7212,-4.4678,-4.2828,0.0,0.0,0.0,0.0,0.0,0.0,0.0,0.0,0.0,0.0,0.0,0.0,0.0,0.0,0.0,0.0,0.0,0.0,0.0,0.0,0.0,0.0,0.0,-3.4968,0.0,0.0,0.0,0.0,0.0,0.0,0.0,0.0,0.0,-3.7668,-3.763,-3.8238,-3.995,-4.0362,-4.0816,-4.1681,0.0,0.0,0.0,0.0,0.0,0.0,0.0,-3.7315,-3.6423,-3.6327,-3.6442,-3.6673,-3.6712,-3.6327,-3.5257,0.0,0.0,-3.2519,-3.1923,-3.1731,-3.1718,-3.1955,-3.2153,-3.2122,-3.2981,-3.3449,0.0,0.0,0.0,0.0,0.0,0.0,0.0,0.0,-4.9138,-4.9269,0.0,-4.8169,0.0,0.0,0.0,0.0,0.0,-4.6008,0.0,0.0,-5.2935,-5.4544,-5.4592,-5.4628,-5.378,-5.225,-5.2953,-5.205,-4.9558,-4.6376,0.0,0.0,0.0,0.0,0.0,0.0,-4.7534,-4.8467,-5.0878,-5.2518,-5.3329,-5.3403,-5.3005,-5.2116,-5.0592,-4.8991,-4.7231,-4.6348,-4.511,-4.3395,-4.1757,0.0,0.0,0.0,0.0,0.0,0.0,0.0,0.0,0.0,0.0,0.0,0.0,0.0,0.0,0.0,0.0,0.0,0.0,0.0,0.0,-3.6731,0.0,0.0,0.0,0.0,0.0,0.0,0.0,0.0,0.0,0.0,-3.9599,-3.9427,-3.9969,-4.1604,0.0,0.0,0.0,0.0,-4.0189,-3.9419,-3.9938,-3.9534,-3.7135,-3.8142,-3.8392,-3.6,0.0,0.0,-3.6885,-3.6769,-3.6315,-3.4661,-3.4494,-3.4584,-3.5404,-3.468,-3.4109,-3.4148,-3.3647,-3.3159,-3.3057,-3.3339,-3.3313,-5.881,0.0,0.0,0.0,0.0,-5.3129,-5.4598,-5.6008,-5.6319,-5.5876,-5.4853,-5.3175,0.0,0.0,0.0,0.0,0.0,0.0,-5.0668,-5.2326,-5.4497,-5.6124,-5.7225,-5.78,-5.78,-5.73,-5.6408,-5.5334,-5.3975,-5.128,-4.8605,-4.6032,0.0,0.0,0.0,0.0,-4.8638,-5.0015,-5.1392,-5.2183,-5.2405,-5.3038,-5.3022,-5.2205,-5.113,-4.9765,-4.8101,-4.7219,-4.5974,-4.4311,-4.3189,0.0,0.0,0.0,0.0,0.0,0.0,0.0,0.0,0.0,0.0,0.0,0.0,0.0,0.0,0.0,0.0,0.0,0.0,0.0,-3.8488,-3.745,-3.6846,0.0,0.0,0.0,0.0,0.0,0.0,0.0,0.0,0.0,-4.3468,-4.2168,-4.1489,0.0,0.0,-4.0823,-4.1673,-4.0566,-3.9554,-3.9342,-3.8969,0.0,-3.7757,-3.8046,-3.8123,-3.7392,-3.82,-3.8642,-3.7777,-3.8142,-3.82,-3.7084,-3.6911,-3.7007,-3.7103,-3.5565,-3.4533,-3.4968,-3.5379,-3.561,-3.5622,-3.5629,-3.5443,-6.4935,-5.9767,-5.7198,-5.6064,-5.6134,-5.7454,-5.877,-6.0026,-6.0119,-5.9759,-5.895,-5.6963,-5.4477,-5.1687,-4.9922,0.0,0.0,0.0,-5.3157,-5.5355,-5.6396,-5.7753,-5.9261,-5.9781,-5.9819,-5.9435,-5.8201,-5.7175,-5.6358,-5.3848,-5.1612,-4.9649,0.0,0.0,-4.6851,-4.8425,-4.9551,-5.0201,-5.1433,-5.1885,-5.1491,-5.2084,-5.2172,-5.1699,-5.1169,-5.0105,-4.8469,-4.7874,-4.681,-4.5162,-4.4251,-4.3175,0.0,0.0,0.0,0.0,0.0,0.0,0.0,0.0,0.0,0.0,0.0,-3.6346,-3.6841,0.0,0.0,0.0,-3.8351,-3.8719,-3.9265,-3.8354,0.0,0.0,0.0,0.0,0.0,0.0,0.0,-4.1956,-4.3052,-4.4214,-4.5358,-4.4241,-4.3624,-4.4489,-4.2816,-4.172,-4.2258,0.0,-4.0065,-3.94,-3.9123,-3.8757,-3.8104,-3.8565,-3.8996,-3.8988,-3.94,-3.945,-3.87,-3.8969,-3.8969,-3.82,-3.7719,-3.77,-3.8373,-3.6699,-3.5449,-3.6295,-3.661,-3.6713,-3.6719,-3.6957,-3.6887,-6.9695,-6.7703,-6.2925,-6.0725,-6.0491,-6.1333,-6.2007,-6.2441,-6.1649,-6.1631,-6.1978,-5.9515,-5.7904,-5.6811,-5.3939,0.0,-5.3904,-5.3981,-5.5669,-5.8595,-5.8595,-5.9372,-6.0762,-6.0781,-6.0377,-5.96,-5.8732,-5.7995,-5.7313,-5.4938,-5.3668,-5.3536,-5.1214,-4.9531,-4.8737,-5.0093,-5.0413,-4.9654,-5.127,-5.1693,-5.0854,-5.0866,-5.0905,-5.0917,-5.084,-5.0047,-4.8488,-4.8257,-4.7465,-4.5896,-4.503,-4.423,-4.3433,0.0,0.0,0.0,0.0,0.0,0.0,0.0,0.0,0.0,0.0,0.0,0.0,0.0,0.0,0.0,-3.8991,0.0,-3.9688,-3.9573,0.0,0.0,0.0,-4.0977,-4.1912,-4.3436,-4.4446,-4.4509,0.0,0.0,-4.5893,-4.5748,-4.599,-4.6788,-4.472,-4.3085,-4.3085,-4.2316,-4.1219,-3.9662,-4.0015,-3.99,-3.8507,-3.9304,-4.015,-4.0169,-4.0458,-4.0189,-3.9527,-3.9284,-3.8957,-3.843,-3.7507,-3.745,-3.9104,-3.8007,-3.718,-3.8046,-3.7586,-3.7004,-3.6937,-3.7529,-3.7593,-7.1488,-6.9846,-6.8501,-6.6395,-6.402,-6.5344,-6.5274,-6.4269,-6.4566,-6.4075,-6.2863,-6.0384,-5.8179,-5.6241,-5.6141,-5.6573,-5.7404,-5.8062,-5.909,-6.0341,-6.037,-6.0528,-6.0781,-6.08,-6.0727,-6.0465,-5.9074,-5.8654,-5.908,-5.7282,-5.5724,-5.4503,-5.3823,-5.2717,-5.1275,-5.1585,-5.1634,-5.1376,-5.249,-5.2659,-5.1871,-5.123,-5.0909,-5.0898,-5.0306,-4.9494,-4.843,-4.7746,-4.6876,-4.5865,-4.5619,-4.5135,-4.4323,-4.4091,0.0,0.0,0.0,0.0,0.0,0.0,0.0,0.0,0.0,-3.8124,-3.8769,0.0,-3.8612,0.0,-4.0723,-4.172,-4.297,-4.195,0.0,0.0,-4.1777,-4.2066,-4.3547,-4.4635,-4.5558,-4.622,-4.7173,-4.7731,-4.7528,-4.699,-4.6663,-4.6808,-4.4701,-4.3085,-4.3066,-4.2354,-4.1431,-4.0458,-4.0362,-4.015,-3.9227,-3.9304,-3.9631,-3.9592,-4.0092,-4.0439,-4.0246,-3.9688,-3.94,-3.9746,-3.9246,-3.9161,-3.9996,-3.9361,-3.9027,-3.965,-3.9265,-3.8484,-3.7873,-3.838,-3.8476,-7.2908,-7.168,-7.1217,-6.9642,-6.7464,-6.7416,-6.6819,-6.5924,-6.5902,-6.5359,-6.4339,-6.2664,-6.0554,-5.8346,-5.9185,-5.9629,-5.9745,-6.0209,-6.0626,-6.1,-6.1009,-6.0967,-6.09,-6.088,-6.0922,-6.0886,-5.9242,-5.8713,-5.9109,-5.7532,-5.6235,-5.5354,-5.5311,-5.4812,-5.3791,-5.2297,-5.1315,-5.0902,-5.1417,-5.1871,-5.2163,-5.1351,-5.0724,-5.0357,-4.9916,-4.9073,-4.785,-4.7318,-4.666,-4.5858,-4.5812,-4.5438,-4.4652,-4.4581,-4.3808,0.0,0.0,0.0,0.0,0.0,0.0,0.0,0.0,0.0,0.0,0.0,-4.0299,-4.1605,-4.2112,-4.2758,-4.3682,-4.2931,-4.272,-4.3547,-4.3201,-4.3431,-4.4739,-4.5643,-4.6374,-4.6846,-4.7605,-4.7971,-4.7625,-4.7192,-4.6577,-4.5874,-4.4528,-4.3508,-4.3085,-4.2354,-4.1489,-4.0669,-4.0496,-4.0208,-3.9419,-3.9611,-3.9708,-3.9438,-3.9958,-4.0496,-4.0477,-3.9842,-3.9554,-4.0246,-3.9534,-3.9123,-4.0169,-3.9515,-3.9008,-3.9631,-3.9611,-3.915,-3.8688,-3.9238,-3.9342,-7.3746,-7.2869,-7.2103,-7.125,-7.0265,-6.8374,-6.7467,-6.7251,-6.6319,-6.5795,-6.555,-6.4926,-6.3297,-6.1089,-6.1872,-6.1814,-6.1118,-6.1099,-6.107,-6.1002,-6.1002,-6.101,-6.1006,-6.1006,-6.1017,-6.0931,-5.9408,-5.8607,-5.8462,-5.703,-5.6167,-5.5868,-5.5949,-5.5883,-5.5555,-5.2545,-5.0763,-5.0338,-5.008,-5.0739,-5.2298,-5.1312,-5.0422,-4.9738,-4.9436,-4.8613,-4.7173,-4.692,-4.6526,-4.5858,-4.581,-4.5481,-4.4806,-4.4865,-4.4523,0.0,-4.2899,0.0,0.0,0.0,0.0,0.0,0.0,0.0,0.0,-4.1567,-4.2335,-4.319,-4.3239,-4.3297,-4.3421,-4.344,-4.3758,-4.4509,-4.4528,-4.4844,-4.5806,-4.6509,-4.6951,-4.7038,-4.7682,-4.7817,-4.7038,-4.6904,-4.6259,-4.4913,-4.4278,-4.3778,-4.3181,-4.2354,-4.1489,-4.0631,-4.04,-4.0015,-3.9477,-3.9746,-3.9869,-3.9457,-3.9831,-4.0381,-4.0477,-3.9842,-3.9554,-4.0169,-3.9304,-3.8815,-4.0227,-3.9342,-3.8681,-3.9419,-3.9554,-3.9419,-3.915,-3.9631,-3.9785,-7.283,-7.2025,-7.1803,-7.1199,-7.0277,-6.9014,-6.8042,-6.7314,-6.6336,-6.517,-6.3992,-6.3866,-6.2789,-6.1138,-6.1263,-6.1253,-6.1099,-6.1099,-6.107,-6.1002,-6.1002,-6.101,-6.1017,-6.1006,-6.0999,-6.0943,-6.0017,-5.9234,-5.8575,-5.8275,-5.7056,-5.5103,-5.5675,-5.5318,-5.3973,0.0,0.0,0.0,-5.2746,-5.2202,-5.3111,-5.1061,-4.9861,-4.9668,-4.8307,0.0,-4.7096,-4.6404,-4.5967,-4.5826,-4.5819,0.0,0.0,0.0,0.0,0.0,0.0,0.0,0.0,0.0,0.0,0.0,-4.4758,-4.3435,-4.2722,-4.2771,-4.3198,-4.4058,-4.4111,-4.4391,-4.5126,-4.515,-4.547,-4.6278,-4.5778,-4.5951,-4.7394,-4.7212,-4.7144,-4.7798,-4.8009,-4.7798,-4.7,-4.6904,-4.649,-4.5383,-4.4182,-4.3335,-4.3124,-4.2308,-4.147,-4.0669,-4.0054,-3.9554,-3.9342,-3.8922,-3.8987,-3.9119,-3.9384,-3.9807,-4.0312,-3.9823,-3.9573,-4.0323,-3.97,-3.9323,-4.0323,-4.0208,-3.9977,-4.0227,-4.0246,-3.9861,-3.8565,-3.8957,-3.9227,-7.3882,0.0,-7.2581,-7.1673,0.0,-6.9356,-6.84,-6.7492,-6.641,-6.5072,-6.366,-6.4087,-6.3119,-6.1191,-6.1543,-6.1505,-6.1099,-6.1099,-6.106,-6.1041,-6.1041,-6.1041,-6.1031,-6.1041,-6.1031,-6.1022,-6.0229,-5.963,-5.9223,-5.8825,-5.7714,-5.6051,-5.6882,-5.6631,-5.5412,-5.4948,-5.4735,-5.4755,-5.3072,-5.2627,-5.3382,-5.1815,-5.0538,-4.9707,-4.8814,0.0,0.0,0.0,0.0,0.0,0.0,0.0,0.0,-4.7468,0.0,-4.7115,-4.667,-4.6832,-4.7599,-4.6554,-4.637,-4.7545,-4.6444,-4.5112,-4.3819,-4.4119,-4.4551,-4.4955,-4.4949,-4.5315,-4.6179,-4.6249,-4.6586,-4.7355,-4.7105,-4.7067,-4.7413,-4.7509,-4.7317,-4.6951,-4.7259,-4.7182,-4.6374,-4.6259,-4.5893,-4.5075,-4.3893,-4.2931,-4.247,-4.172,-4.0969,-4.0573,-4.0208,-3.9754,-3.9403,-3.9398,-3.9201,-3.942,-3.9663,-4.006,-4.0488,-3.9877,-3.9554,-4.0265,-3.9842,-3.9573,-4.0304,-4.0496,-4.0496,-4.0496,-4.0496,-4.0285,-3.94,-3.9592,-3.965,-7.5109,-7.4116,-7.3395,-7.2031,-7.0292,-6.9454,-6.847,-6.7409,0.0,0.0,0.0,-6.454,-6.355,-6.1502,-6.1957,-6.1795,-6.1118,-6.1099,-6.1099,-6.1099,-6.1099,-6.1099,-6.1099,-6.1099,-6.1099,-6.106,-6.0422,-6.0035,-5.9861,-5.9019,-5.8236,-5.7637,-5.7946,-5.7772,-5.7106,-5.7067,-5.6031,-5.402,-5.3091,-5.2925,-5.3459,-5.2492,-5.1254,-4.9745,-4.9502,-4.9077,-4.843,-4.8342,-4.8342,-4.8411,-4.8342,-4.8342,-4.8403,-4.8477,-4.8574,-4.8604,-4.7947,-4.7927,-4.874,-4.7908,-4.7608,-4.8271,-4.7739,-4.656,-4.4699,-4.5252,-4.5742,-4.5843,-4.5825,-4.6191,-4.7057,-4.7124,-4.7442,-4.824,-4.8202,-4.7855,-4.7451,-4.7605,-4.7317,-4.6163,-4.6374,-4.6413,-4.5748,-4.5652,-4.5364,-4.4605,-4.3758,-4.2681,-4.1739,-4.0989,-4.0573,-4.0496,-4.0427,-4.025,-3.981,-3.9851,-4.0154,-3.9737,-4.0058,-4.041,-4.0446,-4.0,-3.985,-4.0381,-3.9919,-3.99,-4.0342,-4.0496,-4.0496,-4.0496,-4.0496,-4.0496,-4.0496,-4.0496,-4.0265,-7.4759,-7.3278,-7.3142,-7.17,-6.9454,-6.9201,-6.8144,-6.6581,-6.6348,-6.5747,-6.4849,-6.4233,-6.3352,-6.2286,-6.159,-6.1195,-6.1099,-6.1099,-6.1099,-6.1099,-6.1099,-6.1099,-6.1099,-6.1099,-6.1099,-6.1099,-6.0963,-6.0576,-5.988,-5.9048,-5.8526,-5.8275,-5.7056,-5.636,-5.6177,-5.6177,-5.6003,-5.5644,-5.4851,-5.4136,-5.3498,-5.1912,-5.0647,-4.9726,-4.9003,-4.8519,-4.8411,-4.8423,-4.8384,-4.8411,-4.8384,-4.8384,-4.843,-4.9119,-4.9506,-4.9533,-4.9397,-4.9707,-5.0453,-4.9107,-4.8241,-4.833,-4.8863,-4.8166,-4.5778,-4.5616,-4.5982,-4.6619,-4.6719,-4.7057,-4.7901,-4.7951,-4.8279,-4.9029,-4.8548,-4.8336,-4.8798,-4.7913,-4.7048,-4.6644,-4.6124,-4.5806,-4.5652,-4.5594,-4.5556,-4.5229,-4.4124,-4.2585,-4.1258,-4.0593,-4.0516,-4.0516,-4.0565,-4.0523,-4.0326,-3.9874,-3.9939,-4.0371,-3.9932,-3.9855,-4.045,-4.0354,-4.0296,-4.0485,-4.0342,-4.0362,-4.0496,-4.0496,-4.0496,-4.0496,-4.0496,-4.0496,-4.0496,-4.0496,-4.0439,-7.5382,-7.3862,-7.3804,-7.207,-6.9225,-6.8228,-6.7321,-6.6581,-6.6528,-6.6028,-6.5139,-6.4252,-6.3375,-6.2494,-6.1571,-6.1161,-6.1161,-6.1161,-6.1161,-6.1152,-6.1126,-6.1099,-6.1099,-6.1134,-6.1161,-6.1161,-6.1161,-6.0967,-6.058,-6.0159,-5.9745,-5.9281,-5.8488,-5.7656,-5.6805,-5.7192,-5.694,-5.6003,-5.5219,-5.46,-5.4194,-5.2975,-5.2124,-5.1757,-5.1351,-5.1157,-5.1157,-5.0693,-5.0461,-5.0461,-4.9993,-4.9761,-4.9776,-5.0128,-5.036,-5.0357,-5.0357,-5.0511,-5.0879,-5.0186,-4.954,-4.9115,-4.9389,-4.8913,-4.7259,-4.7124,-4.7254,-4.757,-4.7621,-4.793,-4.8758,-4.8826,-4.9163,-5.0029,-4.974,-4.9298,-4.8779,-4.8548,-4.7721,-4.6509,-4.6297,-4.6124,-4.5671,-4.5594,-4.5594,-4.5498,-4.447,-4.3104,-4.1489,-4.1243,-4.1078,-4.0639,-4.0565,-4.0595,-4.0579,-4.0351,-4.0301,-4.0661,-3.9979,-3.9805,-4.034,-4.0294,-4.0111,-4.0408,-4.0496,-4.0496,-4.0496,-4.0496,-4.0496,-4.0496,-4.0496,-4.0496,-4.0496,-4.0531,-4.0558,-7.5986,-7.4408,-7.4408,-7.244,-6.9225,-6.7665,-6.6886,-6.6707,-6.671,-6.6299,-6.553,-6.4617,-6.3825,-6.3138,-6.2028,-6.1524,-6.1485,-6.1286,-6.1181,-6.1192,-6.1145,-6.1089,-6.1136,-6.1186,-6.1209,-6.1252,-6.1252,-6.1252,-6.1225,-6.0986,-6.043,-5.9723,-5.9793,-5.9038,-5.7373,-5.7974,-5.754,-5.6051,-5.5219,-5.4813,-5.4793,-5.4136,-5.371,-5.3517,-5.3478,-5.3498,-5.3459,-5.2859,-5.2395,-5.2182,-5.1559,-5.1098,-5.0917,-5.0913,-5.0905,-5.0898,-5.0898,-5.0898,-5.0898,-5.0913,-5.0634,-5.0028,-4.9927,-4.9602,-4.8984,-4.8906,-4.8759,-4.8549,-4.8493,-4.8822,-4.9556,-4.9711,-4.9971,-5.0606,-5.0693,-5.0029,-4.874,-4.8836,-4.8432,-4.6567,-4.6451,-4.6336,-4.5998,-4.571,-4.5498,-4.521,-4.4863,-4.3951,-4.2508,-4.2144,-4.1786,-4.1085,-4.0723,-4.0624,-4.064,-4.0668,-4.0694,-4.0765,-4.0011,-3.9895,-4.0221,-3.9897,-3.9714,-4.0281,-4.0496,-4.0496,-4.0496,-4.0496,-4.0496,-4.0523,-4.0531,-4.0531,-4.0527,-4.0569,-4.058,-7.5967,-7.4525,-7.4369,-7.244,-6.9303,-6.8246,-6.7428,-6.6751,-6.6707,-6.6668,-6.6424,-6.5575,-6.5122,-6.4824,-6.3203,-6.241,-6.2325,-6.159,-6.12,-6.1192,-6.1125,-6.1145,-6.1203,-6.1181,-6.126,-6.1366,-6.1373,-6.1373,-6.1335,-6.0573,-5.97,-5.8986,-5.9538,-5.9082,-5.7591,-5.7448,-5.6979,-5.6003,-5.52,-5.4813,-5.4813,-5.4735,-5.4291,-5.3517,-5.3517,-5.3498,-5.3594,-5.3428,-5.3014,-5.2287,-5.2144,-5.171,-5.1033,-5.0917,-5.0898,-5.0898,-5.0898,-5.0898,-5.0898,-5.0917,-5.0859,-5.0801,-5.0743,-5.0697,-5.06,-5.06,-5.0278,-4.9603,-4.9384,-4.977,-5.0533,-5.0565,-5.0557,-5.0653,-5.0702,-5.0308,-4.9375,-4.8644,-4.8105,-4.7952,-4.6605,-4.596,-4.6413,-4.6009,-4.5325,-4.4778,-4.5086,-4.4786,-4.3352,-4.2876,-4.258,-4.1817,-4.1198,-4.0738,-4.0694,-4.0746,-4.0752,-4.0662,-4.0037,-3.9928,-4.0176,-4.0,-3.9627,-4.03,-4.0496,-4.0496,-4.0496,-4.0496,-4.0523,-4.0554,-4.058,-4.0576,-4.0586,-4.06,-4.0579,-7.5226,-7.3668,-7.3629,-7.1973,-6.9367,-6.8388,-6.7506,-6.6731,-6.6712,-6.6712,-6.6668,-6.6277,-6.5547,-6.4461,-6.3268,-6.2458,-6.1927,-6.1509,-6.1318,-6.1302,-6.1171,-6.1134,-6.12,-6.1275,-6.1354,-6.146,-6.1447,-6.1467,-6.1396,-6.1004,-6.0386,-5.9719,-6.0368,-5.9654,-5.7622,-5.7893,-5.7437,-5.6051,-5.5683,-5.5509,-5.5451,-5.5045,-5.4871,-5.4967,-5.4967,-5.4987,-5.4929,-5.4523,-5.4097,-5.373,-5.3265,-5.2569,-5.1699,-5.166,-5.1447,-5.0975,-5.0898,-5.0898,-5.0898,-5.0898,-5.0898,-5.0898,-5.0898,-5.0898,-5.0898,-5.0898,-5.0728,-5.0433,-5.0312,-5.048,-5.0743,-5.0775,-5.0747,-5.0766,-5.072,-5.0365,-4.9556,-4.9124,-4.8567,-4.7558,-4.6797,-4.6259,-4.6124,-4.5825,-4.546,-4.5133,-4.5402,-4.5084,-4.4042,-4.3485,-4.2822,-4.2061,-4.128,-4.0817,-4.0726,-4.0752,-4.0752,-4.0604,-4.0037,-3.9792,-4.0277,-3.9923,-3.9646,-4.0369,-4.0419,-4.0439,-4.0496,-4.0496,-4.0504,-4.0561,-4.0598,-4.0593,-4.0588,-4.0628,-4.0633,-7.4486,-7.3181,-7.2849,-7.1544,-6.9615,-6.8738,-6.7861,-6.7057,-6.6809,-6.6712,-6.6712,-6.6712,-6.5853,-6.4393,-6.3531,-6.2791,-6.2202,-6.1681,-6.1415,-6.1421,-6.1267,-6.1212,-6.1291,-6.1388,-6.1467,-6.1501,-6.1526,-6.152,-6.1497,-6.146,-6.1104,-6.067,-6.1103,-6.0325,-5.8425,-5.8595,-5.7951,-5.6519,-5.6164,-5.6003,-5.5915,-5.5432,-5.5412,-5.5954,-5.6003,-5.6003,-5.5984,-5.5432,-5.5026,-5.4793,-5.3962,-5.3119,-5.2268,-5.1989,-5.1563,-5.0995,-5.0898,-5.0898,-5.0898,-5.0898,-5.0898,-5.0898,-5.0898,-5.0898,-5.0898,-5.0898,-5.0898,-5.0879,-5.0893,-5.0861,-5.0844,-5.0827,-5.0819,-5.0829,-5.0775,-5.0392,-4.9621,-4.945,-4.8855,-4.7527,-4.7057,-4.6567,-4.5845,-4.5594,-4.5556,-4.5556,-4.5584,-4.5332,-4.4575,-4.3883,-4.3311,-4.2451,-4.1828,-4.1339,-4.0875,-4.0778,-4.0759,-4.0552,-4.0037,-3.9741,-4.0347,-3.9853,-3.9646,-4.0281,-4.0273,-4.0304,-4.04,-4.0439,-4.0377,-4.0537,-4.0612,-4.0628,-4.0648,-4.0674,-4.0694,-7.3921,-7.3025,-7.2206,-7.1349,-7.0458,-6.9576,-6.8719,-6.7798,-6.7057,-6.6712,-6.6712,-6.6712,-6.62,-6.528,-6.4422,-6.4018,-6.3697,-6.2241,-6.155,-6.1485,-6.1421,-6.1428,-6.1472,-6.1497,-6.1532,-6.1573,-6.1578,-6.1558,-6.1509,-6.1536,-6.1497,-6.1419,-6.1428,-6.0955,-5.993,-5.9093,-5.8234,-5.7269,-5.643,-5.6012,-5.6003,-5.5945,-5.5907,-5.5984,-5.6003,-5.6003,-5.5984,-5.5965,-5.5586,-5.4851,-5.4058,-5.3169,-5.2279,-5.1459,-5.0975,-5.0898,-5.0898,-5.0898,-5.0898,-5.0898,-5.0898,-5.0898,-5.0898,-5.0898,-5.0898,-5.0898,-5.0898,-5.0898,-5.0898,-5.0909,-5.0901,-5.0897,-5.0899,-5.0899,-5.0838,-5.0407,-4.9635,-4.963,-4.9122,-4.8178,-4.7295,-4.6499,-4.571,-4.5594,-4.5622,-4.5622,-4.5648,-4.5373,-4.4649,-4.4376,-4.395,-4.3347,-4.293,-4.2628,-4.1235,-4.1184,-4.1074,-4.0829,-4.0514,-3.976,-3.9919,-4.0058,-4.0137,-4.0031,-3.9785,-3.9823,-4.0169,-4.0262,-4.0149,-4.0282,-4.0595,-4.0687,-4.0674,-4.07,-4.0707,-7.357,-7.2245,-7.1934,-7.133,-7.0531,-6.9679,-6.8816,-6.7934,-6.7057,-6.6712,-6.6712,-6.6712,-6.6517,-6.6161,-6.5329,-6.4354,-6.3336,-6.2622,-6.2029,-6.1556,-6.1434,-6.1441,-6.1497,-6.1503,-6.1537,-6.1583,-6.1588,-6.1578,-6.1661,-6.2104,-6.2104,-6.1636,-6.1562,-6.1098,-6.018,-5.9283,-5.8363,-5.7416,-5.6517,-5.6051,-5.6031,-5.6003,-5.6003,-5.6003,-5.6003,-5.6003,-5.6003,-5.6003,-5.5877,-5.5567,-5.5258,-5.4456,-5.3031,-5.1658,-5.0913,-5.0898,-5.0898,-5.0898,-5.0898,-5.0898,-5.0898,-5.0898,-5.0898,-5.0898,-5.0898,-5.0898,-5.0898,-5.0917,-5.0917,-5.0898,-5.0898,-5.0901,-5.0901,-5.0893,-5.0869,-5.0748,-5.048,-5.0338,-4.9802,-4.8388,-4.7032,-4.6003,-4.58,-4.5662,-4.5662,-4.5646,-4.5679,-4.5298,-4.4685,-4.4484,-4.4204,-4.3529,-4.3253,-4.3092,-4.2628,-4.2369,-4.2221,-4.1711,-4.1247,-4.0788,-4.0714,-4.0533,-4.0515,-4.0262,-3.9804,-3.9592,-4.0035,-4.0385,-4.0234,-4.0352,-4.0646,-4.0654,-4.0648,-4.0668,-4.07,-7.2888,-7.1895,-7.1817,-7.1485,-7.0862,-6.9776,-6.8972,-6.829,-6.7219,-6.6712,-6.6712,-6.6712,-6.6712,-6.6615,-6.6088,-6.5075,-6.3765,-6.3378,-6.2914,-6.2344,-6.2017,-6.1906,-6.1896,-6.1648,-6.1553,-6.1641,-6.1899,-6.2016,-6.2114,-6.2874,-6.2835,-6.2075,-6.2016,-6.1573,-6.0666,-5.9769,-5.8946,-5.8178,-5.7125,-5.6501,-5.6407,-5.6147,-5.6003,-5.6003,-5.6003,-5.6003,-5.6003,-5.6003,-5.6003,-5.5973,-5.5752,-5.4834,-5.3089,-5.1669,-5.0913,-5.0898,-5.0898,-5.0898,-5.0898,-5.0898,-5.0898,-5.0898,-5.0898,-5.0898,-5.0898,-5.0898,-5.1014,-5.1196,-5.1014,-5.0956,-5.1188,-5.1072,-5.0898,-5.0898,-5.0893,-5.0897,-5.0877,-5.0574,-4.9586,-4.8009,-4.6604,-4.5833,-4.5687,-4.5692,-4.5684,-4.5687,-4.5719,-4.5345,-4.4363,-4.4353,-4.4232,-4.353,-4.3621,-4.3756,-4.373,-4.378,-4.331,-4.2762,-4.2295,-4.1846,-4.1253,-4.1046,-4.0754,-4.0435,-4.0138,-3.9869,-3.9954,-4.0354,-4.0523,-4.0569,-4.061,-4.0612,-4.0633,-4.0654,-4.0668,-7.1836,-7.1817,-7.1817,-7.1778,-7.1485,-7.0068,-6.9347,-6.905,-6.7511,-6.6843,-6.6887,-6.6751,-6.6712,-6.6687,-6.6595,-6.6147,-6.5285,-6.4564,-6.4033,-6.3682,-6.3098,-6.2747,-6.2635,-6.1909,-6.1578,-6.1646,-6.2503,-6.2854,-6.2835,-6.3634,-6.3692,-6.2991,-6.2776,-6.2284,-6.1568,-6.0569,-6.0079,-5.9542,-5.8178,-5.7311,-5.72,-5.6437,-5.6003,-5.6003,-5.6003,-5.6003,-5.6003,-5.6003,-5.6003,-5.5935,-5.5335,-5.4039,-5.2589,-5.1447,-5.0898,-5.0914,-5.0914,-5.0906,-5.0906,-5.0906,-5.0914,-5.0937,-5.0937,-5.1061,-5.1091,-5.1149,-5.1467,-5.195,-5.1621,-5.1331,-5.1854,-5.1467,-5.0995,-5.0898,-5.0909,-5.089,-5.0677,-5.0054,-4.8971,-4.7433,-4.6325,-4.5766,-4.5708,-4.5731,-4.5712,-4.5723,-4.5742,-4.523,-4.3942,-4.4215,-4.4234,-4.3731,-4.4034,-4.4615,-4.4904,-4.5102,-4.4425,-4.3807,-4.3364,-4.2888,-4.1981,-4.1531,-4.1077,-4.0727,-4.02,-3.9911,-3.9611,-4.0038,-4.0469,-4.0573,-4.0569,-4.0576,-4.0579,-4.06,-4.0647,-7.1817,-7.1817,-7.1817,-7.1817,-7.168,-7.0648,-7.02,-7.001,-6.8349,-6.7589,-6.7491,-6.6965,-6.6712,-6.6712,-6.6712,-6.6556,-6.6283,-6.5947,-6.4997,-6.3497,-6.303,-6.2601,-6.2075,-6.1744,-6.1588,-6.1841,-6.3069,-6.3419,-6.3244,-6.4315,-6.4315,-6.3166,-6.2932,-6.2445,-6.1646,-6.0755,-6.0233,-5.9962,-5.8396,-5.7446,-5.7292,-5.6471,-5.6012,-5.6003,-5.6003,-5.6003,-5.6003,-5.6003,-5.6003,-5.6003,-5.5752,-5.484,-5.322,-5.1738,-5.1032,-5.1042,-5.105,-5.101,-5.0969,-5.0981,-5.0959,-5.1037,-5.1428,-5.1776,-5.1873,-5.2318,-5.2743,-5.3072,-5.2821,-5.2666,-5.2221,-5.1989,-5.1486,-5.0956,-5.0898,-5.0647,-5.0008,-4.8825,-4.8075,-4.7871,-4.6672,-4.5887,-4.5798,-4.5819,-4.5879,-4.5786,-4.588,-4.5325,-4.4047,-4.4554,-4.4843,-4.3813,-4.4703,-4.5279,-4.5273,-4.5344,-4.5111,-4.4504,-4.4054,-4.3419,-4.2582,-4.1861,-4.1427,-4.0884,-4.0357,-3.9995,-3.9696,-3.9927,-4.0512,-4.0608,-4.0596,-4.0585,-4.0534,-4.0571,-4.0614,-7.1817,-7.1817,-7.1817,-7.1817,-7.1661,-7.0609,-7.0127,-6.9849,-6.8271,-6.7511,-6.7369,-6.6941,-6.6712,-6.6712,-6.6712,-6.6712,-6.6712,-6.6712,-6.5504,-6.3614,-6.3341,-6.2874,-6.2094,-6.1724,-6.1588,-6.1899,-6.3302,-6.3848,-6.3478,-6.4958,-6.5192,-6.4023,-6.3497,-6.2932,-6.2094,-6.1237,-6.0765,-6.0439,-5.8933,-5.7961,-5.7676,-5.6671,-5.6001,-5.6029,-5.602,-5.6012,-5.6003,-5.6003,-5.6003,-5.5877,-5.5459,-5.4401,-5.3089,-5.1782,-5.1049,-5.1089,-5.1081,-5.1081,-5.1043,-5.1043,-5.1198,-5.1467,-5.1969,-5.2419,-5.2702,-5.3306,-5.358,-5.3931,-5.3323,-5.2917,-5.2666,-5.1989,-5.1486,-5.0975,-5.0898,-5.0395,-4.9359,-4.7993,-4.7207,-4.7143,-4.6448,-4.597,-4.5861,-4.6261,-4.6202,-4.6041,-4.6201,-4.5834,-4.4672,-4.4815,-4.4494,-4.4314,-4.4746,-4.5132,-4.5317,-4.5473,-4.5674,-4.5182,-4.4624,-4.3784,-4.2908,-4.2218,-4.1668,-4.0983,-4.0391,-4.0315,-4.0092,-4.0623,-4.115,-4.0931,-4.0642,-4.0812,-4.0827,-4.061,-4.0614,-7.1856,-7.1817,-7.1817,-7.1817,-7.1622,-7.0258,-6.9679,-6.9192,-6.7764,-6.7063,-6.6926,-6.679,-6.6712,-6.6712,-6.6712,-6.6712,-6.6712,-6.6712,-6.5757,-6.4393,-6.3945,-6.3478,-6.2542,-6.188,-6.1607,-6.1841,-6.3302,-6.4023,-6.4043,-6.5699,-6.6244,-6.5212,-6.4354,-6.3672,-6.2757,-6.2016,-6.1485,-6.1151,-5.9724,-5.8894,-5.8755,-5.7098,-5.6181,-5.6233,-5.6084,-5.6001,-5.6012,-5.6012,-5.5982,-5.575,-5.4478,-5.336,-5.2402,-5.1528,-5.1108,-5.1126,-5.1099,-5.1111,-5.1111,-5.128,-5.1565,-5.2155,-5.2589,-5.2848,-5.357,-5.3913,-5.4204,-5.452,-5.3486,-5.2782,-5.2937,-5.2113,-5.1223,-5.0933,-5.0786,-5.0109,-4.8813,-4.7862,-4.7178,-4.6532,-4.6137,-4.603,-4.6104,-4.6773,-4.6746,-4.6532,-4.6749,-4.6206,-4.5215,-4.488,-4.4842,-4.49,-4.5016,-4.5283,-4.5551,-4.5646,-4.5808,-4.5512,-4.4968,-4.4179,-4.3399,-4.2748,-4.221,-4.1461,-4.0918,-4.0758,-4.0746,-4.1239,-4.12,-4.0746,-4.0746,-4.1046,-4.0981,-4.0694,-4.064,-7.2382,-7.1836,-7.1817,-7.1817,-7.1758,-7.1271,-7.0765,-7.0166,-6.9069,-6.8095,-6.7647,-6.698,-6.6712,-6.6712,-6.6712,-6.6712,-6.6712,-6.6712,-6.5757,-6.4296,-6.4082,-6.3244,-6.2172,-6.1724,-6.1588,-6.1822,-6.3185,-6.4082,-6.4238,-6.5796,-6.62,-6.5382,-6.4608,-6.375,-6.2893,-6.2114,-6.1622,-6.1427,-6.0464,-5.9807,-5.9516,-5.8026,-5.7109,-5.6998,-5.644,-5.609,-5.602,-5.6046,-5.5725,-5.5086,-5.4107,-5.3172,-5.235,-5.1591,-5.1184,-5.122,-5.1244,-5.1225,-5.1332,-5.1769,-5.22,-5.2471,-5.3521,-5.4336,-5.4542,-5.5118,-5.5168,-5.4951,-5.4257,-5.3564,-5.2771,-5.2156,-5.1656,-5.1066,-5.0588,-5.022,-4.9859,-4.8535,-4.7373,-4.7684,-4.6812,-4.6576,-4.6911,-4.7252,-4.7383,-4.7179,-4.7179,-4.6993,-4.5914,-4.5499,-4.5741,-4.53,-4.5311,-4.558,-4.5803,-4.5892,-4.5877,-4.5686,-4.5209,-4.4606,-4.3968,-4.3453,-4.305,-4.2587,-4.2193,-4.1971,-4.1647,-4.1692,-4.12,-4.0862,-4.0793,-4.1024,-4.0823,-4.0598,-4.0698,-7.2245,-7.1817,-7.1817,-7.1817,-7.1739,-7.1446,-7.1037,-7.0394,-6.9284,-6.8485,-6.7876,-6.7096,-6.6712,-6.6712,-6.6712,-6.6712,-6.6712,-6.6712,-6.5713,-6.4199,-6.3341,-6.2484,-6.1763,-6.1588,-6.1588,-6.1724,-6.2952,-6.3711,-6.4257,-6.5523,-6.5952,-6.5855,-6.5075,-6.4413,-6.4004,-6.2737,-6.2133,-6.1929,-6.0939,-6.0211,-6.01,-5.8829,-5.8155,-5.7807,-5.7125,-5.6509,-5.6106,-5.6051,-5.5552,-5.4498,-5.3793,-5.3081,-5.1948,-5.1491,-5.1259,-5.131,-5.1308,-5.1401,-5.1812,-5.2295,-5.2865,-5.3516,-5.4577,-5.5054,-5.5353,-5.5634,-5.53,-5.4921,-5.4243,-5.3286,-5.2489,-5.2007,-5.161,-5.1153,-5.0662,-5.0442,-5.0546,-4.8924,-4.8238,-4.8229,-4.7874,-4.7334,-4.7928,-4.8219,-4.8243,-4.8165,-4.8377,-4.7801,-4.7026,-4.6847,-4.664,-4.629,-4.5811,-4.5951,-4.5988,-4.6021,-4.5941,-4.5769,-4.557,-4.4954,-4.4367,-4.3936,-4.3545,-4.3235,-4.3204,-4.3054,-4.2625,-4.2231,-4.195,-4.1612,-4.1254,-4.0912,-4.0788,-4.0819,-4.0873,-7.1895,-7.1817,-7.1817,-7.1817,-7.17,-7.1037,-7.0784,-7.0316,-6.9147,-6.831,-6.7881,-6.7174,-6.6863,-6.6712,-6.6712,-6.6712,-6.6712,-6.6712,-6.5718,-6.4315,-6.3069,-6.2114,-6.1919,-6.1666,-6.1607,-6.1744,-6.2503,-6.3244,-6.4004,-6.4919,-6.5791,-6.6005,-6.5601,-6.529,-6.4608,-6.3536,-6.2913,-6.2343,-6.1222,-6.0564,-6.0413,-5.9565,-5.9005,-5.8796,-5.778,-5.7005,-5.6377,-5.5994,-5.5203,-5.3603,-5.3637,-5.2834,-5.1478,-5.1259,-5.1287,-5.1295,-5.1351,-5.1647,-5.2426,-5.2695,-5.3439,-5.4673,-5.5088,-5.5414,-5.5744,-5.5411,-5.4865,-5.4345,-5.3185,-5.2487,-5.2043,-5.1495,-5.1244,-5.1108,-5.1122,-5.0759,-5.0068,-4.9289,-4.8822,-4.8725,-4.8738,-4.8708,-4.9019,-4.937,-4.9698,-4.8892,-4.9005,-4.8503,-4.7841,-4.7458,-4.7482,-4.7536,-4.6964,-4.6333,-4.6253,-4.6149,-4.6003,-4.586,-4.5782,-4.5351,-4.4595,-4.4124,-4.3798,-4.3651,-4.4064,-4.3917,-4.336,-4.3008,-4.2593,-4.1974,-4.1343,-4.1135,-4.1041,-4.1156,-4.1235,-7.2401,-7.1817,-7.1817,-7.1817,-7.1778,-7.1583,-7.1193,-7.057,-7.02,-6.9206,-6.8187,-6.7778,-6.7291,-6.6712,-6.6712,-6.6712,-6.6692,-6.6609,-6.6069,-6.5114,-6.4082,-6.3185,-6.2581,-6.1997,-6.1646,-6.1822,-6.2484,-6.2971,-6.3458,-6.4569,-6.5484,-6.5596,-6.564,-6.5075,-6.4374,-6.3614,-6.2542,-6.1958,-6.1437,-6.1262,-6.1086,-6.0448,-5.9905,-5.9697,-5.8316,-5.7438,-5.6936,-5.5862,-5.4692,-5.3935,-5.3635,-5.3066,-5.1643,-5.1278,-5.1295,-5.1308,-5.1316,-5.169,-5.2524,-5.3249,-5.4067,-5.5095,-5.5643,-5.5911,-5.5311,-5.5098,-5.4246,-5.3333,-5.253,-5.1999,-5.1528,-5.1263,-5.1139,-5.1167,-5.12,-5.1147,-5.087,-5.0216,-4.978,-4.9605,-4.9239,-4.9033,-4.9633,-4.9827,-4.9929,-4.9676,-4.9426,-4.9079,-4.867,-4.8261,-4.8144,-4.828,-4.7805,-4.7069,-4.6376,-4.6201,-4.5974,-4.5874,-4.5838,-4.5757,-4.502,-4.477,-4.4585,-4.4808,-4.5213,-4.4807,-4.4141,-4.331,-4.2807,-4.211,-4.1612,-4.1526,-4.1516,-4.1583,-4.1996,-7.2206,-7.1817,-7.1817,-7.1817,-7.1817,-7.1797,-7.1544,-7.1135,-7.0745,-6.9868,-6.8719,-6.8212,-6.7506,-6.6751,-6.6712,-6.6712,-6.6595,-6.6239,-6.5855,-6.5212,-6.4471,-6.3653,-6.301,-6.2445,-6.2075,-6.1802,-6.2036,-6.2445,-6.3146,-6.4082,-6.4997,-6.5446,-6.5752,-6.5582,-6.4705,-6.3848,-6.3069,-6.2328,-6.1783,-6.1588,-6.1471,-6.1198,-6.059,-6.0089,-5.883,-5.7928,-5.7392,-5.6291,-5.5007,-5.418,-5.409,-5.341,-5.1715,-5.1319,-5.1308,-5.1296,-5.132,-5.1982,-5.2976,-5.3677,-5.4437,-5.5665,-5.5885,-5.5551,-5.4932,-5.4422,-5.3487,-5.2576,-5.2007,-5.1516,-5.1196,-5.1161,-5.1189,-5.122,-5.1259,-5.1278,-5.1202,-5.0864,-5.0599,-5.0541,-5.0283,-5.0287,-5.0482,-5.0482,-5.056,-5.0498,-5.0459,-5.0151,-5.0053,-4.9586,-4.8865,-4.869,-4.8347,-4.7696,-4.6742,-4.6247,-4.5925,-4.5834,-4.5824,-4.5791,-4.5501,-4.5488,-4.5579,-4.5648,-4.5555,-4.5528,-4.4859,-4.3978,-4.3262,-4.315,-4.2833,-4.2348,-4.2189,-4.2518,-4.3066,-7.1817,-7.1817,-7.1817,-7.1817,-7.1817,-7.1817,-7.1797,-7.1661,-7.0959,-7.0068,-6.9245,-6.8388,-6.7525,-6.6843,-6.6712,-6.6712,-6.6531,-6.6127,-6.5777,-6.564,-6.5114,-6.4354,-6.3653,-6.3205,-6.2664,-6.1865,-6.1733,-6.208,-6.2679,-6.3541,-6.432,-6.5153,-6.603,-6.5699,-6.5095,-6.4491,-6.3458,-6.2484,-6.188,-6.1588,-6.1588,-6.1529,-6.112,-6.05,-5.958,-5.8636,-5.7844,-5.6753,-5.5588,-5.4193,-5.4645,-5.3719,-5.2414,-5.1697,-5.169,-5.1768,-5.1924,-5.2684,-5.3751,-5.4238,-5.4846,-5.6351,-5.5723,-5.5117,-5.4611,-5.3637,-5.2852,-5.2469,-5.2082,-5.1771,-5.1447,-5.1516,-5.1429,-5.1317,-5.1306,-5.13,-5.1296,-5.13,-5.1222,-5.1203,-5.0969,-5.093,-5.1028,-5.1086,-5.1222,-5.1281,-5.1203,-5.1145,-5.1008,-5.0502,-4.9566,-4.8865,-4.8468,-4.757,-4.6576,-4.6653,-4.6286,-4.591,-4.5868,-4.5829,-4.5798,-4.5746,-4.5703,-4.5654,-4.5599,-4.556,-4.5145,-4.4083,-4.3748,-4.4068,-4.3552,-4.2589,-4.2783,-4.3447,-4.4058,-7.1817,-7.1817,-7.1817,-7.1817,-7.1797,-7.1817,-7.1778,-7.1661,-7.0881,-7.0107,-6.9231,-6.8388,-6.7525,-6.6887,-6.6712,-6.6712,-6.6629,-6.64,-6.6381,-6.6361,-6.6011,-6.5484,-6.4764,-6.4009,-6.339,-6.2682,-6.2082,-6.1849,-6.203,-6.2678,-6.3769,-6.4418,-6.527,-6.5251,-6.4627,-6.4062,-6.3263,-6.2172,-6.1724,-6.1607,-6.1588,-6.1568,-6.1525,-6.1115,-6.0294,-5.9452,-5.85,-5.7166,-5.5882,-5.5024,-5.4433,-5.3966,-5.3537,-5.3424,-5.3424,-5.3225,-5.321,-5.3673,-5.4628,-5.494,-5.547,-5.6035,-5.5606,-5.4756,-5.4051,-5.3186,-5.2519,-5.2621,-5.2863,-5.2946,-5.2329,-5.2169,-5.1887,-5.1555,-5.1291,-5.13,-5.1292,-5.13,-5.13,-5.13,-5.13,-5.13,-5.13,-5.13,-5.13,-5.1183,-5.1008,-5.1125,-5.1183,-5.0463,-4.9508,-4.8943,-4.8495,-4.7391,-4.6236,-4.6726,-4.68,-4.6194,-4.6018,-4.5919,-4.5873,-4.5758,-4.5692,-4.5687,-4.5654,-4.5618,-4.498,-4.4145,-4.4145,-4.4414,-4.3575,-4.2602,-4.3517,-4.4369,-4.4727,-7.1853,-7.1838,-7.1857,-7.1579,-7.1315,-7.1622,-7.1271,-7.0589,-7.0536,-6.9849,-6.8816,-6.8154,-6.7506,-6.6887,-6.6712,-6.6712,-6.6712,-6.6712,-6.6712,-6.6653,-6.6244,-6.5855,-6.5348,-6.4559,-6.4027,-6.344,-6.2754,-6.2033,-6.1803,-6.3019,-6.3655,-6.4246,-6.5036,-6.4992,-6.4179,-6.3653,-6.2835,-6.1822,-6.1588,-6.1588,-6.1588,-6.1588,-6.1588,-6.1344,-6.0731,-5.9854,-5.8929,-5.7833,-5.6446,-5.5478,-5.5233,-5.4983,-5.4831,-5.4867,-5.4796,-5.4145,-5.3985,-5.4316,-5.5037,-5.5232,-5.5587,-5.6191,-5.5353,-5.4405,-5.3613,-5.2786,-5.2309,-5.2563,-5.2743,-5.302,-5.2553,-5.2621,-5.2128,-5.1514,-5.1323,-5.1347,-5.1316,-5.132,-5.13,-5.13,-5.13,-5.13,-5.13,-5.13,-5.13,-5.1125,-5.0872,-5.1028,-5.1281,-5.0579,-4.9664,-4.8733,-4.8253,-4.769,-4.6821,-4.7172,-4.7374,-4.6806,-4.6412,-4.632,-4.6015,-4.5947,-4.5843,-4.575,-4.5719,-4.5544,-4.5144,-4.443,-4.4595,-4.452,-4.3453,-4.295,-4.4324,-4.5233,-4.5448,-7.1896,-7.1897,-7.1716,-7.1331,-7.0965,-7.1115,-7.0672,-6.9796,-6.9868,-6.9264,-6.811,-6.7778,-6.733,-6.6863,-6.6712,-6.6712,-6.6712,-6.6712,-6.6712,-6.6609,-6.6147,-6.5718,-6.547,-6.4943,-6.4473,-6.4384,-6.3611,-6.2864,-6.2554,-6.2964,-6.3675,-6.415,-6.4848,-6.466,-6.3804,-6.3253,-6.2391,-6.1861,-6.1588,-6.1588,-6.1588,-6.1588,-6.1588,-6.1568,-6.0906,-6.0107,-5.9044,-5.8362,-5.7104,-5.6203,-5.5954,-5.6133,-5.5695,-5.6113,-5.5822,-5.4714,-5.4457,-5.4846,-5.5256,-5.5528,-5.5879,-5.639,-5.5041,-5.4366,-5.3972,-5.336,-5.2615,-5.2908,-5.3443,-5.3535,-5.3476,-5.3217,-5.2777,-5.2134,-5.1803,-5.1573,-5.1569,-5.1515,-5.132,-5.13,-5.13,-5.13,-5.13,-5.13,-5.13,-5.13,-5.1067,-5.1086,-5.1242,-5.0872,-4.9968,-4.8654,-4.7981,-4.7814,-4.759,-4.785,-4.7884,-4.754,-4.725,-4.7127,-4.6636,-4.6197,-4.6112,-4.6008,-4.5375,-4.5152,-4.4892,-4.4687,-4.4423,-4.3954,-4.3092,-4.326,-4.4466,-4.5258,-4.559,-7.1897,-7.1819,-7.1092,-7.1082,-7.133,-7.0219,-6.999,-7.0161,-6.8953,-6.8251,-6.7837,-6.7233,-6.6868,-6.6731,-6.6712,-6.6712,-6.6712,-6.6712,-6.6712,-6.6648,-6.64,-6.6303,-6.6366,-6.5727,-6.5359,-6.518,-6.448,-6.4089,-6.3754,-6.3,-6.3013,-6.3936,-6.3733,-6.3238,-6.3412,-6.3057,-6.2444,-6.1748,-6.1588,-6.1588,-6.1588,-6.1588,-6.1588,-6.1549,-6.1359,-6.0584,-5.9276,-5.8714,-5.7907,-5.6517,-5.6381,-5.6432,-5.6383,-5.6418,-5.6465,-5.6258,-5.621,-5.621,-5.6249,-5.621,-5.621,-5.6312,-5.5489,-5.5134,-5.4624,-5.4546,-5.4249,-5.4838,-5.5349,-5.5271,-5.4682,-5.4764,-5.4355,-5.3502,-5.2645,-5.243,-5.2279,-5.1503,-5.1328,-5.1308,-5.1308,-5.1304,-5.1304,-5.13,-5.13,-5.13,-5.13,-5.13,-5.1067,-5.0599,-5.0018,-4.8684,-4.7787,-4.7578,-4.7901,-4.8236,-4.8336,-4.8121,-4.8121,-4.7927,-4.7386,-4.6876,-4.6554,-4.6288,-4.5662,-4.5358,-4.5513,-4.5184,-4.4315,-4.384,-4.3544,-4.3866,-4.4497,-4.5115,-4.5764,-7.1155,-7.1135,-7.0761,-7.0508,-7.0302,-6.9562,-6.9206,-6.8972,-6.8343,-6.772,-6.7272,-6.6902,-6.6712,-6.6712,-6.6712,-6.6712,-6.6712,-6.6712,-6.6712,-6.6556,-6.6342,-6.6269,-6.6405,-6.5959,-6.5668,-6.592,-6.5546,-6.5399,-6.5044,-6.4537,-6.4222,-6.3972,-6.3813,-6.3748,-6.332,-6.3082,-6.2415,-6.1842,-6.158,-6.1582,-6.1592,-6.1588,-6.1588,-6.1588,-6.1582,-6.0621,-5.9459,-5.9026,-5.8198,-5.6881,-5.6491,-5.6511,-5.6527,-5.6517,-5.6473,-5.648,-5.6457,-5.6448,-5.6468,-5.6487,-5.6487,-5.6312,-5.5723,-5.4979,-5.4647,-5.4593,-5.4842,-5.5154,-5.5509,-5.5528,-5.5329,-5.5212,-5.4686,-5.3989,-5.3276,-5.2855,-5.2465,-5.1767,-5.13,-5.13,-5.13,-5.1319,-5.1319,-5.1323,-5.13,-5.1296,-5.1296,-5.1292,-5.0786,-5.0041,-4.9395,-4.8578,-4.7845,-4.7334,-4.7856,-4.8306,-4.86,-4.8604,-4.8991,-4.8701,-4.8159,-4.7695,-4.7424,-4.7168,-4.682,-4.6593,-4.6404,-4.5302,-4.4098,-4.4086,-4.4266,-4.4569,-4.4897,-4.553,-4.6257,-7.0376,-6.9982,-6.9971,-6.9816,-6.9553,-6.8963,-6.8578,-6.8369,-6.7833,-6.7282,-6.6853,-6.6712,-6.6712,-6.6712,-6.6712,-6.6712,-6.6712,-6.6712,-6.6717,-6.6444,-6.6196,-6.621,-6.6427,-6.614,-6.6193,-6.6795,-6.6182,-6.5995,-6.5978,-6.5702,-6.4894,-6.4222,-6.3461,-6.3413,-6.3322,-6.285,-6.2145,-6.1669,-6.1592,-6.1576,-6.1591,-6.1582,-6.1586,-6.1591,-6.1404,-6.0793,-5.9334,-5.9068,-5.8247,-5.6865,-5.6497,-5.652,-5.6542,-5.6524,-5.6484,-5.6484,-5.648,-5.6487,-5.6487,-5.6487,-5.6487,-5.6288,-5.6035,-5.5431,-5.4924,-5.4574,-5.473,-5.5606,-5.5645,-5.5548,-5.531,-5.5368,-5.4967,-5.4352,-5.3619,-5.3123,-5.2604,-5.2019,-5.1512,-5.1336,-5.1356,-5.1336,-5.134,-5.1323,-5.1323,-5.1314,-5.131,-5.1307,-5.0711,-4.9925,-4.9246,-4.8638,-4.7879,-4.7342,-4.7566,-4.8099,-4.8496,-4.9068,-4.9455,-4.9436,-4.8856,-4.8604,-4.845,-4.8193,-4.7782,-4.7279,-4.6762,-4.5279,-4.395,-4.4228,-4.4512,-4.4885,-4.5316,-4.602,-4.6995,-6.9747,-6.8266,-6.8218,-6.909,-7.0235,-6.7876,-6.7831,-6.8916,-6.7515,-6.6882,-6.6741,-6.6702,-6.6712,-6.6712,-6.6712,-6.6712,-6.6712,-6.6712,-6.6707,-6.6702,-6.6633,-6.6607,-6.6666,-6.6665,-6.6655,-6.6778,-6.6558,-6.6238,-6.5889,-6.5804,-6.508,-6.4277,-6.3316,-6.2332,-6.217,-6.2437,-6.2119,-6.1777,-6.1701,-6.16,-6.1596,-6.1592,-6.1588,-6.1584,-6.1455,-6.0815,-5.9212,-5.9098,-5.8302,-5.6628,-5.6497,-5.6497,-5.6517,-5.6501,-5.6491,-5.6496,-5.6675,-5.6682,-5.6702,-5.6565,-5.6487,-5.6468,-5.6351,-5.6171,-5.5879,-5.6137,-5.6351,-5.621,-5.6132,-5.5922,-5.5762,-5.5684,-5.5424,-5.4874,-5.4242,-5.3663,-5.3104,-5.2464,-5.1957,-5.1547,-5.145,-5.1525,-5.1631,-5.1676,-5.1378,-5.1333,-5.1333,-5.1326,-5.1031,-5.0314,-4.9551,-4.8827,-4.796,-4.7441,-4.7254,-4.7753,-4.8604,-4.9301,-4.9784,-4.9765,-4.9513,-4.9378,-4.9126,-4.865,-4.8123,-4.7634,-4.708,-4.5976,-4.5099,-4.4718,-4.4866,-4.5641,-4.6544,-4.7441,-4.8415,-6.9199,-6.8058,-6.7497,-6.8249,-6.9694,-6.8154,-6.8167,-6.8983,-6.8031,-6.716,-6.6711,-6.6722,-6.6717,-6.6712,-6.6717,-6.6712,-6.6712,-6.6712,-6.6722,-6.6731,-6.6744,-6.6771,-6.6808,-6.6817,-6.6801,-6.6795,-6.6785,-6.6744,-6.6412,-6.5848,-6.5084,-6.4221,-6.3499,-6.3474,-6.3238,-6.2569,-6.2388,-6.222,-6.1917,-6.166,-6.1591,-6.1591,-6.1588,-6.1595,-6.1576,-6.0717,-5.9391,-5.9157,-5.8052,-5.7001,-5.6553,-5.6494,-5.6494,-5.6482,-5.6526,-5.6632,-5.6929,-5.7169,-5.7111,-5.6838,-5.6507,-5.6487,-5.6487,-5.6487,-5.6487,-5.6487,-5.6487,-5.6468,-5.6448,-5.6082,-5.6168,-5.6231,-5.6122,-5.5512,-5.4863,-5.4225,-5.3568,-5.2869,-5.2615,-5.2306,-5.2007,-5.1865,-5.1974,-5.2084,-5.1706,-5.1366,-5.1369,-5.1307,-5.1024,-5.0707,-4.996,-4.9321,-4.8524,-4.7985,-4.7782,-4.8283,-4.8875,-4.9436,-5.0035,-4.9997,-4.9881,-4.9687,-4.9397,-4.8921,-4.8619,-4.8297,-4.775,-4.6912,-4.6312,-4.5944,-4.6228,-4.6886,-4.7837,-4.8778,-4.9559,-6.8496,-6.767,-6.7068,-6.7787,-6.9085,-6.8121,-6.8305,-6.9002,-6.807,-6.7333,-6.6739,-6.6739,-6.6716,-6.6707,-6.6741,-6.6736,-6.6726,-6.6739,-6.674,-6.6755,-6.6772,-6.6807,-6.6837,-6.6841,-6.6844,-6.6834,-6.6795,-6.6735,-6.6245,-6.5838,-6.5136,-6.4624,-6.4503,-6.4286,-6.3184,-6.3008,-6.2613,-6.2429,-6.2109,-6.1679,-6.1631,-6.1628,-6.1628,-6.1534,-6.1361,-6.05,-5.9346,-5.8757,-5.7899,-5.6985,-5.6497,-5.6497,-5.6494,-5.6524,-5.6647,-5.6967,-5.7346,-5.7778,-5.7797,-5.7384,-5.676,-5.6565,-5.6487,-5.6487,-5.6487,-5.6487,-5.6487,-5.6476,-5.6301,-5.6075,-5.5973,-5.5509,-5.4872,-5.3991,-5.4856,-5.4474,-5.3835,-5.3216,-5.3196,-5.3079,-5.286,-5.2721,-5.2587,-5.2633,-5.1935,-5.1536,-5.1327,-5.1312,-5.1165,-5.0826,-5.0363,-4.9804,-4.9259,-4.8806,-4.8484,-4.867,-4.8875,-4.9417,-4.9939,-5.0202,-5.0132,-4.9958,-4.9977,-4.9919,-4.9579,-4.9122,-4.8646,-4.815,-4.7636,-4.7165,-4.7682,-4.8288,-4.8819,-4.9676,-5.0239,-6.7661,-6.6854,-6.6815,-6.7802,-6.9057,-6.7578,-6.7832,-6.8934,-6.7634,-6.6879,-6.6806,-6.6787,-6.676,-6.6728,-6.676,-6.6783,-6.6787,-6.6782,-6.6781,-6.68,-6.6802,-6.6836,-6.6859,-6.688,-6.6878,-6.6883,-6.6844,-6.6531,-6.5867,-6.5888,-6.5263,-6.4714,-6.4652,-6.4198,-6.2052,-6.1815,-6.1776,-6.1735,-6.1744,-6.1707,-6.1688,-6.1685,-6.1685,-6.1534,-6.0968,-6.0121,-5.9257,-5.8393,-5.757,-5.6728,-5.65,-5.6484,-5.6484,-5.6494,-5.6781,-5.7434,-5.7588,-5.8082,-5.8695,-5.8035,-5.731,-5.6686,-5.6608,-5.6667,-5.6569,-5.6589,-5.6582,-5.6636,-5.6149,-5.5223,-5.4587,-5.4108,-5.3574,-5.3387,-5.4292,-5.4467,-5.3791,-5.3377,-5.3296,-5.3708,-5.3889,-5.3852,-5.3555,-5.3177,-5.23,-5.1759,-5.1414,-5.1265,-5.1215,-5.1021,-5.063,-5.0392,-4.9944,-4.9691,-4.9287,-4.8813,-4.8914,-4.9436,-4.9873,-5.0221,-5.0357,-5.0248,-5.0376,-5.0647,-5.0268,-4.956,-4.956,-4.9552,-4.8868,-4.8289,-4.9084,-4.9699,-5.0143,-5.0425,-5.0833,-6.7674,-6.6872,-6.6869,-6.7508,-6.8379,-6.7949,-6.8039,-6.8259,-6.7375,-6.6807,-6.6801,-6.6801,-6.6807,-6.6787,-6.6781,-6.6781,-6.6784,-6.6815,-6.6809,-6.6774,-6.682,-6.6865,-6.6888,-6.6888,-6.6906,-6.6889,-6.687,-6.681,-6.6531,-6.636,-6.5911,-6.5382,-6.4461,-6.3769,-6.3314,-6.292,-6.239,-6.1837,-6.1715,-6.1715,-6.1718,-6.1715,-6.1676,-6.164,-6.0776,-5.9892,-5.9026,-5.8142,-5.7317,-5.6637,-5.6509,-5.6509,-5.6509,-5.65,-5.6673,-5.7141,-5.7326,-5.7852,-5.8129,-5.7771,-5.7377,-5.696,-5.6878,-5.6921,-5.6636,-5.7716,-5.7492,-5.6917,-5.6667,-5.5901,-5.5272,-5.4945,-5.4424,-5.367,-5.3964,-5.3863,-5.3471,-5.3262,-5.3235,-5.4099,-5.4552,-5.4101,-5.3745,-5.3389,-5.2629,-5.2025,-5.1661,-5.1381,-5.1269,-5.1225,-5.1001,-5.0925,-5.0679,-5.05,-5.0174,-4.9732,-4.9598,-5.0105,-5.0299,-5.0376,-5.0434,-5.0434,-5.0306,-5.0318,-5.0171,-5.0016,-4.9977,-4.9896,-4.9584,-4.9503,-5.0054,-5.0429,-5.0642,-5.0802,-5.1027,-6.7422,-6.6914,-6.6894,-6.7185,-6.7647,-6.767,-6.7639,-6.7564,-6.7078,-6.6848,-6.6828,-6.6848,-6.6828,-6.6811,-6.6811,-6.6533,-6.6477,-6.674,-6.6492,-6.6533,-6.679,-6.6853,-6.6892,-6.6894,-6.6892,-6.6894,-6.6855,-6.6775,-6.6322,-6.6736,-6.6325,-6.5366,-6.4171,-6.374,-6.3461,-6.2828,-6.2213,-6.1757,-6.1718,-6.1718,-6.1698,-6.1659,-6.1522,-6.1054,-6.0346,-5.9483,-5.868,-5.7874,-5.7147,-5.6687,-5.6533,-5.6533,-5.6533,-5.6528,-5.6662,-5.7046,-5.7704,-5.8188,-5.8334,-5.7902,-5.7411,-5.6654,-5.7134,-5.7196,-5.7054,-5.7876,-5.7774,-5.7453,-5.7419,-5.6356,-5.5352,-5.5101,-5.4362,-5.3545,-5.3427,-5.3345,-5.4066,-5.3879,-5.3875,-5.4719,-5.4756,-5.4281,-5.3721,-5.3418,-5.2919,-5.2396,-5.1908,-5.1631,-5.1331,-5.1272,-5.1211,-5.1136,-5.1078,-5.0862,-5.0752,-5.0671,-5.0654,-5.0867,-5.079,-5.0643,-5.0589,-5.0589,-5.0279,-5.0094,-5.0287,-5.0403,-5.0264,-5.0104,-5.0083,-5.0215,-5.0591,-5.0888,-5.1088,-5.1139,-5.1171,-6.6894,-6.6894,-6.6894,-6.6914,-6.691,-6.6937,-6.6871,-6.6832,-6.69,-6.6902,-6.6904,-6.6883,-6.6862,-6.6839,-6.6881,-6.6533,-6.6103,-6.6636,-6.6424,-6.625,-6.666,-6.6797,-6.6894,-6.6894,-6.6894,-6.6894,-6.6816,-6.6523,-6.5838,-6.6268,-6.621,-6.5506,-6.4509,-6.3744,-6.2975,-6.2322,-6.1863,-6.1744,-6.1701,-6.1701,-6.1698,-6.1701,-6.1293,-6.0668,-5.979,-5.8929,-5.8068,-5.7226,-5.6816,-5.6604,-5.6604,-5.6604,-5.6582,-5.6516,-5.7046,-5.7712,-5.8504,-5.8669,-5.8621,-5.7993,-5.7375,-5.6642,-5.6595,-5.7007,-5.7601,-5.8136,-5.8306,-5.7945,-5.7657,-5.6101,-5.4817,-5.4133,-5.3451,-5.3158,-5.306,-5.3684,-5.4778,-5.499,-5.4929,-5.5047,-5.4829,-5.4335,-5.3516,-5.3111,-5.2818,-5.2444,-5.1935,-5.1651,-5.139,-5.128,-5.122,-5.119,-5.1134,-5.1087,-5.1043,-5.1017,-5.0988,-5.0971,-5.0975,-5.0859,-5.0825,-5.0786,-5.0666,-5.0608,-5.0778,-5.0778,-5.0585,-5.0673,-5.0852,-5.1004,-5.0959,-5.103,-5.1108,-5.1101,-5.1127,-6.6894,-6.6894,-6.6894,-6.6894,-6.6892,-6.6869,-6.6866,-6.6862,-6.6902,-6.6905,-6.689,-6.689,-6.6871,-6.6892,-6.6893,-6.6699,-6.666,-6.6718,-6.6738,-6.6719,-6.668,-6.6836,-6.6894,-6.6894,-6.6894,-6.6875,-6.6738,-6.6445,-6.582,-6.6015,-6.5583,-6.4701,-6.4372,-6.343,-6.2507,-6.1839,-6.1777,-6.1713,-6.1707,-6.1703,-6.1705,-6.1709,-6.1126,-6.0327,-5.9527,-5.8668,-5.7846,-5.702,-5.6686,-5.6645,-5.6626,-5.6606,-5.6604,-5.6621,-5.6936,-5.7658,-5.8046,-5.8122,-5.8019,-5.7414,-5.6853,-5.6667,-5.6569,-5.704,-5.7824,-5.8611,-5.9066,-5.8624,-5.8236,-5.7086,-5.5723,-5.4765,-5.4043,-5.3711,-5.3672,-5.4176,-5.5094,-5.5171,-5.5131,-5.5072,-5.4856,-5.4063,-5.3247,-5.2737,-5.2441,-5.22,-5.1967,-5.1721,-5.1475,-5.1373,-5.1248,-5.1225,-5.1181,-5.1155,-5.113,-5.1101,-5.1069,-5.1041,-5.102,-5.1032,-5.0974,-5.0961,-5.1007,-5.1012,-5.0963,-5.0941,-5.0867,-5.0963,-5.1053,-5.1048,-5.1004,-5.1063,-5.1108,-5.1095,-5.1089,-6.6894,-6.6894,-6.6894,-6.6894,-6.6893,-6.6893,-6.6892,-6.689,-6.689,-6.6755,-6.6464,-6.6737,-6.6894,-6.6894,-6.6875,-6.6699,-6.6328,-6.668,-6.668,-6.6308,-6.6758,-6.6855,-6.6894,-6.6855,-6.664,-6.6621,-6.6601,-6.6465,-6.584,-6.5527,-6.5174,-6.439,-6.4058,-6.3001,-6.2199,-6.2063,-6.2043,-6.1843,-6.1701,-6.1715,-6.1715,-6.1641,-6.0998,-6.0101,-5.9322,-5.8716,-5.7895,-5.7108,-5.6811,-5.6868,-5.6907,-5.6616,-5.6733,-5.6889,-5.7493,-5.8137,-5.7979,-5.8209,-5.8207,-5.7274,-5.6829,-5.6621,-5.6666,-5.7079,-5.79,-5.8801,-5.9097,-5.908,-5.8944,-5.8476,-5.7109,-5.584,-5.5195,-5.457,-5.4668,-5.4746,-5.4921,-5.5037,-5.5056,-5.5035,-5.4503,-5.371,-5.3051,-5.2523,-5.2263,-5.2333,-5.2317,-5.2166,-5.1826,-5.153,-5.1378,-5.1277,-5.1241,-5.1228,-5.1186,-5.1164,-5.1132,-5.1102,-5.1074,-5.1067,-5.1081,-5.1074,-5.106,-5.1046,-5.1012,-5.0963,-5.0914,-5.0971,-5.1027,-5.1015,-5.1022,-5.1069,-5.1089,-5.1089,-5.1089,-6.6836,-6.6894,-6.6894,-6.6894,-6.6894,-6.6894,-6.6836,-6.6797,-6.6719,-6.6426,-6.5996,-6.6562,-6.6894,-6.6875,-6.6894,-6.6406,-6.6269,-6.6504,-6.6445,-6.5703,-6.6562,-6.6875,-6.6894,-6.6855,-6.6484,-6.623,-6.6269,-6.6582,-6.5957,-6.5585,-6.5155,-6.4295,-6.369,-6.2811,-6.1989,-6.2224,-6.2165,-6.1794,-6.1712,-6.1709,-6.1708,-6.1494,-6.0968,-5.966,-5.9191,-5.8898,-5.8078,-5.747,-5.702,-5.7271,-5.7114,-5.6647,-5.6842,-5.7545,-5.8344,-5.8499,-5.8243,-5.8474,-5.8394,-5.7654,-5.7052,-5.6824,-5.6751,-5.7066,-5.781,-5.8513,-5.8769,-5.9082,-5.8945,-5.8437,-5.7207,-5.6328,-5.5664,-5.5508,-5.5625,-5.5996,-5.6406,-5.6055,-5.5293,-5.5098,-5.439,-5.3602,-5.3001,-5.2516,-5.2261,-5.2457,-5.2306,-5.2177,-5.2044,-5.1631,-5.1482,-5.1314,-5.1303,-5.1289,-5.1226,-5.1205,-5.1175,-5.115,-5.114,-5.1108,-5.114,-5.1121,-5.1094,-5.106,-5.1039,-5.0983,-5.0948,-5.0978,-5.1005,-5.0978,-5.1012,-5.1053,-5.1067,-5.1088,-5.1082,-6.6289,-6.6894,-6.6894,-6.6894,-6.6894,-6.6894,-6.6523,-6.5937,-6.5918,-6.6133,-6.65,-6.6737,-6.6835,-6.6733,-6.6854,-6.6426,-6.6035,-6.6426,-6.6289,-6.6152,-6.6543,-6.6875,-6.6894,-6.6855,-6.6367,-6.6133,-6.6289,-6.668,-6.6406,-6.5878,-6.5194,-6.4412,-6.3827,-6.3104,-6.1932,-6.2246,-6.2051,-6.1738,-6.1855,-6.1797,-6.1711,-6.1597,-6.113,-6.0329,-5.9958,-5.9606,-5.8863,-5.8118,-5.7805,-5.7724,-5.7002,-5.6689,-5.6649,-5.8018,-5.8448,-5.833,-5.8621,-5.8952,-5.8814,-5.8288,-5.7705,-5.7571,-5.7536,-5.7245,-5.7382,-5.791,-5.834,-5.8672,-5.8652,-5.8066,-5.75,-5.6777,-5.623,-5.6367,-5.6484,-5.7129,-5.7793,-5.6875,-5.5781,-5.5098,-5.4394,-5.3841,-5.3264,-5.2722,-5.2411,-5.2122,-5.1778,-5.1619,-5.1739,-5.1544,-5.1472,-5.1358,-5.1372,-5.1336,-5.13,-5.1374,-5.1433,-5.1337,-5.1295,-5.1247,-5.1204,-5.1134,-5.1089,-5.1074,-5.1046,-5.099,-5.0948,-5.0963,-5.0971,-5.0963,-5.1005,-5.1053,-5.1075,-5.1082,-5.1082,-6.5644,-6.58,-6.619,-6.6327,-6.6366,-6.6697,-6.6363,-6.5659,-6.554,-6.5804,-6.6182,-6.6279,-6.6302,-6.6367,-6.663,-6.6597,-6.6129,-6.6601,-6.6582,-6.6484,-6.6461,-6.6758,-6.6851,-6.6834,-6.6289,-6.5996,-6.6094,-6.6348,-6.668,-6.6074,-6.5253,-6.4726,-6.4297,-6.332,-6.2265,-6.2226,-6.2031,-6.1758,-6.2031,-6.2051,-6.1833,-6.162,-6.1249,-6.0663,-6.0312,-6.0078,-5.9726,-5.8962,-5.861,-5.8062,-5.73,-5.6715,-5.7009,-5.8181,-5.8766,-5.8882,-5.9174,-5.9662,-5.9427,-5.9017,-5.8492,-5.8455,-5.8476,-5.8222,-5.7558,-5.8008,-5.8047,-5.834,-5.8301,-5.7812,-5.7598,-5.6992,-5.6601,-5.6523,-5.6582,-5.6914,-5.7558,-5.7578,-5.6973,-5.664,-5.6132,-5.5816,-5.5027,-5.3749,-5.3405,-5.2906,-5.2391,-5.1847,-5.1789,-5.1633,-5.1518,-5.1401,-5.1396,-5.1408,-5.1375,-5.1551,-5.1799,-5.167,-5.1638,-5.1477,-5.1445,-5.1216,-5.1082,-5.1172,-5.1143,-5.099,-5.0963,-5.1138,-5.1029,-5.0998,-5.102,-5.1048,-5.1069,-5.1108,-5.112,-6.4804,-6.4294,-6.5208,-6.554,-6.5562,-6.6294,-6.6112,-6.5386,-6.5202,-6.5106,-6.5084,-6.5145,-6.5284,-6.5783,-6.6192,-6.6381,-6.6543,-6.6637,-6.6659,-6.6348,-6.6614,-6.6776,-6.6821,-6.6767,-6.6364,-6.5996,-6.5879,-6.6348,-6.6855,-6.623,-6.5762,-6.5312,-6.4297,-6.3125,-6.3027,-6.289,-6.2578,-6.2226,-6.2265,-6.2441,-6.2129,-6.1699,-6.1269,-6.084,-6.0566,-6.0566,-6.0332,-5.9902,-5.9433,-5.8847,-5.8045,-5.7538,-5.7656,-5.8691,-5.8964,-5.9295,-5.9744,-6.0134,-6.0133,-5.9705,-5.9432,-5.9335,-5.9355,-5.9004,-5.834,-5.8105,-5.8164,-5.8066,-5.8047,-5.7695,-5.7461,-5.7441,-5.707,-5.6699,-5.6738,-5.6816,-5.7461,-5.8008,-5.7851,-5.7656,-5.7383,-5.7109,-5.6127,-5.4851,-5.428,-5.3783,-5.3294,-5.277,-5.2323,-5.2048,-5.1833,-5.1579,-5.14,-5.1412,-5.1581,-5.1882,-5.2236,-5.2499,-5.2469,-5.2037,-5.1716,-5.1647,-5.1535,-5.1405,-5.1337,-5.1397,-5.1413,-5.1552,-5.1382,-5.1276,-5.1048,-5.1082,-5.1133,-5.115,-5.1161,-6.3395,-6.337,-6.4933,-6.5203,-6.475,-6.5409,-6.5247,-6.4399,-6.3711,-6.3402,-6.3517,-6.3572,-6.4047,-6.5471,-6.5599,-6.5572,-6.5316,-6.5953,-6.5565,-6.4926,-6.6126,-6.66,-6.6809,-6.68,-6.6734,-6.6426,-6.6094,-6.6191,-6.6699,-6.6621,-6.6211,-6.5527,-6.4609,-6.3672,-6.3066,-6.2909,-6.2712,-6.2516,-6.2848,-6.314,-6.2108,-6.1738,-6.166,-6.1465,-6.1445,-6.1465,-6.123,-6.0586,-6.0273,-5.9844,-5.9199,-5.8652,-5.8789,-5.9297,-5.9609,-5.9687,-6.0156,-6.0488,-6.0449,-6.0332,-6.0176,-6.0176,-6.0117,-5.9824,-5.9297,-5.8945,-5.8867,-5.8594,-5.8301,-5.7461,-5.7265,-5.7754,-5.7637,-5.7187,-5.7012,-5.7226,-5.7656,-5.7793,-5.7734,-5.7441,-5.7129,-5.6699,-5.6072,-5.525,-5.4936,-5.4464,-5.4032,-5.3487,-5.2842,-5.251,-5.2226,-5.1953,-5.168,-5.1922,-5.2312,-5.2479,-5.2798,-5.3128,-5.3114,-5.2364,-5.2033,-5.2241,-5.211,-5.1619,-5.1894,-5.2179,-5.2167,-5.2043,-5.2132,-5.2003,-5.1347,-5.1121,-5.1208,-5.1281,-5.1389]},{"header":{"parameterUnit":"m.s-1","parameterCategory":1,"la1":31.0,"la2":29.5877,"lo1":-88.7671,"lo2":-86.6584,"dy":0.0162,"dx":0.0185,"nx":115,"ny":88,"refTime":"2024-05-07T12:00:00:Z","depth":0,"parameterNumber":3,"parameterNumberName":"V-component_of_WINDS"},"data":[0.0,0.0,0.0,0.0,0.0,0.0,0.0,0.0,0.0,0.0,0.0,0.0,0.0,0.0,0.0,0.0,0.0,0.0,0.0,0.0,0.0,0.0,0.0,0.0,0.0,0.0,0.0,0.0,0.0,0.0,0.0,0.0,0.0,0.0,0.0,0.0,0.0,0.0,0.0,0.0,0.0,0.0,0.0,0.0,0.0,0.0,0.0,0.0,0.0,0.0,0.0,0.0,0.0,0.0,0.0,0.0,0.0,0.0,0.0,0.0,0.0,0.0,0.0,0.0,0.0,0.0,0.0,0.0,0.0,0.0,0.0,0.0,0.0,0.0,0.0,0.0,0.0,0.0,0.0,0.0,0.0,0.0,0.0,0.0,0.0,0.0,0.0,0.0,0.0,0.0,0.0,0.0,0.0,0.0,0.0,0.0,0.0,0.0,0.0,0.0,0.0,0.0,0.0,0.0,0.0,0.0,0.0,0.0,0.0,0.0,0.0,0.0,0.0,0.0,0.0,0.0,0.0,0.0,0.0,0.0,0.0,0.0,0.0,0.0,0.0,0.0,0.0,0.0,0.0,0.0,0.0,0.0,0.0,0.0,0.0,0.0,0.0,0.0,0.0,0.0,0.0,0.0,0.0,0.0,0.0,0.0,0.0,0.0,0.0,0.0,0.0,0.0,0.0,0.0,0.0,0.0,0.0,0.0,0.0,0.0,0.0,0.0,0.0,0.0,0.0,0.0,0.0,0.0,0.0,0.0,0.0,0.0,0.0,0.0,0.0,0.0,0.0,0.0,0.0,0.0,0.0,0.0,0.0,0.0,0.0,0.0,0.0,0.0,0.0,0.0,0.0,0.0,0.0,0.0,0.0,0.0,0.0,0.0,0.0,0.0,0.0,0.0,0.0,0.0,0.0,0.0,0.0,0.0,0.0,0.0,0.0,0.0,0.0,0.0,0.0,0.0,0.0,0.0,0.0,0.0,0.0,0.0,0.0,0.0,0.0,0.0,0.0,0.0,0.0,0.0,0.0,0.0,0.0,0.0,0.0,0.0,0.0,0.0,0.0,0.0,0.0,0.0,0.0,0.0,0.0,0.0,0.0,0.0,0.0,0.0,0.0,0.0,0.0,0.0,0.0,0.0,0.0,0.0,0.0,0.0,0.0,0.0,0.0,0.0,0.0,0.0,0.0,0.0,0.0,0.0,0.0,0.0,0.0,0.0,0.0,0.0,0.0,0.0,0.0,0.0,0.0,0.0,0.0,0.0,0.0,0.0,0.0,0.0,0.0,0.0,0.0,0.0,0.0,0.0,0.0,0.0,0.0,0.0,0.0,0.0,0.0,0.0,0.0,0.0,0.0,0.0,0.0,0.0,0.0,0.0,0.0,0.0,0.0,0.0,0.0,0.0,0.0,0.0,0.0,0.0,0.0,0.0,0.0,0.0,0.0,0.0,0.0,0.0,0.0,0.0,0.0,0.0,0.0,0.0,0.0,0.0,0.0,0.0,0.0,0.0,0.0,0.0,0.0,0.0,0.0,0.0,0.0,0.0,0.0,0.0,0.0,0.0,0.0,0.0,0.0,0.0,0.0,0.0,0.0,0.0,0.0,0.0,0.0,0.0,0.0,0.0,0.0,0.0,0.0,0.0,0.0,0.0,0.0,0.0,0.0,0.0,0.0,0.0,0.0,0.0,0.0,0.0,0.0,0.0,0.0,0.0,0.0,0.0,0.0,0.0,0.0,0.0,0.0,0.0,0.0,0.0,0.0,0.0,0.0,0.0,0.0,0.0,0.0,0.0,0.0,0.0,0.0,0.0,0.0,0.0,0.0,0.0,0.0,0.0,0.0,0.0,0.0,0.0,0.0,0.0,0.0,0.0,0.0,0.0,0.0,0.0,0.0,0.0,0.0,0.0,0.0,0.0,0.0,0.0,0.0,0.0,0.0,0.0,0.0,0.0,0.0,0.0,0.0,0.0,0.0,0.0,0.0,0.0,0.0,0.0,0.0,0.0,0.0,0.0,0.0,0.0,0.0,0.0,0.0,0.0,0.0,0.0,0.0,0.0,0.0,0.0,0.0,0.0,0.0,0.0,0.0,0.0,0.0,0.0,0.0,0.0,0.0,0.0,0.0,0.0,0.0,0.0,0.0,0.0,0.0,0.0,0.0,0.0,0.0,0.0,0.0,0.0,0.0,0.0,0.0,0.0,0.0,0.0,0.0,0.0,0.0,0.0,0.0,0.0,0.0,0.0,0.0,0.0,0.0,0.0,0.0,0.0,0.0,0.0,0.0,0.0,0.0,0.0,0.0,0.0,0.0,0.0,0.0,0.0,0.0,0.0,0.0,0.0,0.0,0.0,0.0,0.0,0.0,0.0,0.0,0.0,0.0,0.0,0.0,0.0,0.0,0.0,0.0,0.0,0.0,0.0,0.0,0.0,0.0,0.0,0.0,0.0,0.0,0.0,0.0,0.0,0.0,0.0,0.0,0.0,0.0,0.0,0.0,0.0,0.0,0.0,0.0,0.0,0.0,0.0,0.0,0.0,0.0,0.0,0.0,0.0,0.0,0.0,0.0,0.0,0.0,0.0,0.0,0.0,0.0,0.0,0.0,0.0,0.0,0.0,0.0,0.0,0.0,0.0,0.0,0.0,0.0,0.0,0.0,0.0,0.0,0.0,0.0,0.0,0.0,0.0,0.0,0.0,0.0,0.0,0.0,0.0,0.0,0.0,0.0,0.0,0.0,0.0,0.0,0.0,0.0,0.0,0.0,0.0,0.0,0.0,0.0,0.0,0.0,0.0,0.0,0.0,0.0,0.0,0.0,0.0,0.0,0.0,0.0,0.0,0.0,0.0,0.0,0.0,0.0,0.0,0.0,0.0,0.0,0.0,0.0,0.0,0.0,0.0,0.0,0.0,0.0,0.0,0.0,0.0,0.0,0.0,0.0,0.0,0.0,0.0,0.0,0.0,0.0,0.0,0.0,0.0,0.0,0.0,0.0,0.0,0.0,0.0,0.0,0.0,0.0,0.0,0.0,0.0,0.0,0.0,0.0,0.0,0.0,0.0,0.0,0.0,0.0,0.0,0.0,0.0,0.0,0.0,0.0,0.0,0.0,0.0,0.0,0.0,0.0,0.0,0.0,0.0,0.0,0.0,0.0,0.0,0.0,0.0,0.0,0.0,0.0,0.0,0.0,0.0,0.0,0.0,0.0,0.0,0.0,0.0,0.0,0.0,0.0,0.0,0.0,0.0,0.0,0.0,0.0,0.0,0.0,0.0,0.0,0.0,0.0,0.0,0.0,0.0,0.0,0.0,0.0,0.0,0.0,0.0,0.0,0.0,0.0,0.0,0.0,0.0,0.0,0.0,0.0,0.0,0.0,0.0,0.0,0.0,0.0,0.0,0.0,0.0,0.0,0.0,0.0,0.0,0.0,0.0,0.0,0.0,0.0,0.0,0.0,0.0,0.0,0.0,0.0,0.0,0.0,0.0,0.0,0.0,0.0,0.0,0.0,0.0,0.0,0.0,0.0,0.0,0.0,0.0,0.0,0.0,0.0,0.0,0.0,0.0,0.0,0.0,0.0,0.0,0.0,0.0,0.0,0.0,0.0,0.0,0.0,0.0,0.0,0.0,0.0,0.0,0.0,0.0,0.0,0.0,0.0,0.0,0.0,0.0,0.0,0.0,0.0,0.0,0.0,0.0,0.0,0.0,0.0,0.0,0.0,0.0,0.0,0.0,0.0,0.0,0.0,0.0,0.0,0.0,0.0,0.0,0.0,0.0,0.0,0.0,0.0,0.0,0.0,0.0,0.0,0.0,0.0,0.0,0.0,0.0,0.0,0.0,0.0,0.0,0.0,0.0,0.0,0.0,0.0,0.0,0.0,0.0,0.0,0.0,0.0,0.0,0.0,0.0,0.0,0.0,0.0,0.0,0.0,0.0,0.0,0.0,0.0,0.0,0.0,0.0,0.0,0.0,0.0,0.0,0.0,0.0,0.0,0.0,0.0,0.0,0.0,0.0,0.0,0.0,0.0,0.0,0.0,0.0,0.0,0.0,0.0,0.0,0.0,0.0,0.0,0.0,0.0,0.0,0.0,0.0,0.0,0.0,0.0,0.0,0.0,0.0,0.0,0.0,0.0,0.0,0.0,0.0,0.0,0.0,0.0,0.0,0.0,0.0,0.0,0.0,0.0,0.0,0.0,0.0,0.0,0.0,0.0,0.0,0.0,0.0,0.0,0.0,0.0,0.0,0.0,0.0,0.0,0.0,0.0,0.0,0.0,0.0,-0.3731,0.0,0.0,0.0,0.0,0.0,0.0,0.0,0.0,0.0,0.0,0.0,0.0,0.0,0.0,0.0,0.0,0.0,0.0,0.0,0.0,0.0,0.0,0.0,0.0,0.0,0.0,0.0,0.0,0.0,0.0,0.0,0.0,0.0,0.0,0.0,0.0,0.0,0.0,0.0,0.0,0.0,0.0,0.0,0.0,0.0,0.0,0.0,0.0,0.0,0.0,0.0,0.0,0.0,0.0,0.0,0.0,0.0,0.0,0.0,0.0,0.0,0.0,0.0,0.0,0.0,0.0,0.0,0.0,0.0,0.0,0.0,0.0,0.0,0.0,0.0,0.0,0.0,0.0,0.0,0.0,0.0,0.0,0.0,0.0,0.0,0.0,0.0,0.0,0.0,0.0,0.0,0.0,0.0,0.0,0.0,0.0,0.0,0.0,0.0,0.0,0.0,0.0,0.0,0.0,0.0,0.0,0.0,0.0,0.0,0.0,-0.3844,-0.3992,-0.4008,-0.4034,-0.4001,0.0,0.0,0.0,0.0,0.0,0.0,0.0,0.0,0.0,0.0,0.0,0.0,0.0,0.0,0.0,0.0,0.0,0.0,0.0,0.0,0.0,0.0,0.0,0.0,0.0,0.0,0.0,0.0,0.0,0.0,0.0,0.0,0.0,0.0,0.0,0.0,0.0,0.0,0.0,0.0,0.0,0.0,0.0,0.0,0.0,0.0,0.0,0.0,0.0,0.0,0.0,0.0,0.0,0.0,0.0,0.0,0.0,0.0,0.0,0.0,0.0,0.0,0.0,0.0,0.0,0.0,0.0,0.0,0.0,0.0,0.0,0.0,0.0,0.0,0.0,0.0,0.0,0.0,0.0,0.0,0.0,0.0,0.0,0.0,0.0,0.0,0.0,0.0,0.0,0.0,0.0,0.0,0.0,0.0,0.0,0.0,0.0,0.0,0.0,0.0,0.0,0.0,0.0,0.0,0.0,0.0,0.0,0.0,0.0,0.0,0.0,0.0,-0.4284,-0.4253,-0.4168,0.0,0.0,0.0,0.0,0.0,0.0,0.0,0.0,0.0,0.0,0.0,0.0,0.0,0.0,0.0,0.0,0.0,0.0,0.0,0.0,0.0,0.0,0.0,0.0,0.0,0.0,0.0,0.0,0.0,0.0,0.0,0.0,0.0,0.0,0.0,0.0,0.0,0.0,0.0,0.0,0.0,0.0,0.0,0.0,0.0,0.0,0.0,0.0,0.0,0.0,0.0,0.0,0.0,0.0,0.0,0.0,0.0,0.0,0.0,0.0,0.0,0.0,0.0,0.0,0.0,0.0,0.0,0.0,0.0,0.0,0.0,0.0,0.0,0.0,0.0,0.0,0.0,0.0,0.0,0.0,0.0,0.0,0.0,0.0,0.0,0.0,0.0,0.0,0.0,0.0,0.0,0.0,0.0,0.0,0.0,0.0,0.0,0.0,0.0,0.0,0.0,0.0,0.0,0.0,0.0,0.0,0.0,0.0,0.0,0.0,-0.4317,-0.4808,-0.4589,0.0,-0.4113,0.0,0.0,0.0,0.0,0.0,0.0,0.0,0.0,0.0,0.0,0.0,0.0,0.0,0.0,0.0,0.0,0.0,0.0,0.0,0.0,0.0,0.0,0.0,0.0,0.0,0.0,0.0,0.0,0.0,0.0,0.0,0.0,0.0,0.0,0.0,0.0,0.0,0.0,0.0,0.0,0.0,0.0,0.0,0.0,0.0,0.0,0.0,0.0,0.0,0.0,0.0,0.0,0.0,0.0,0.0,0.0,0.0,0.0,0.0,0.0,0.0,0.0,0.0,0.0,0.0,0.0,0.0,0.0,0.0,0.0,0.0,0.0,0.0,0.0,0.0,0.0,0.0,0.0,0.0,0.0,0.0,0.0,0.0,0.0,0.0,0.0,0.0,0.0,0.0,0.0,0.0,0.0,0.0,0.0,0.0,0.0,0.0,0.0,0.0,0.0,0.0,0.0,0.0,0.0,0.0,0.0,0.0,0.0,0.0,0.0,-0.4464,-0.4939,-0.5036,-0.4883,0.0,0.0,0.0,0.0,0.0,0.0,0.0,0.0,0.0,0.0,0.0,0.0,0.0,0.0,0.0,0.0,0.0,0.0,0.0,0.0,0.0,0.0,0.0,0.0,0.0,0.0,0.0,0.0,0.0,0.0,0.0,0.0,0.0,0.0,0.0,0.0,0.0,0.0,0.0,0.0,0.0,0.0,0.0,0.0,0.0,0.0,0.0,0.0,0.0,0.0,0.0,0.0,0.0,0.0,0.0,0.0,0.0,0.0,0.0,0.0,0.0,0.0,0.0,0.0,0.0,0.0,0.0,0.0,0.0,0.0,0.0,0.0,0.0,0.0,0.0,0.0,0.0,0.0,0.0,0.0,0.0,0.0,0.0,0.0,0.0,0.0,0.0,0.0,0.0,0.0,0.0,0.0,0.0,0.0,0.0,0.0,0.0,0.0,0.0,0.0,0.0,0.0,0.0,0.0,0.0,0.0,0.0,0.0,0.0,0.0,-0.4387,-0.4687,-0.5142,-0.5343,-0.518,-0.4715,0.0,0.0,0.0,0.0,0.0,0.0,0.0,0.0,0.0,0.0,0.0,0.0,0.0,0.0,0.0,0.0,0.0,0.0,0.0,0.0,0.0,0.0,0.0,0.0,0.0,0.0,0.0,0.0,0.0,0.0,0.0,0.0,0.0,0.0,0.0,0.0,0.0,0.0,0.0,0.0,0.0,0.0,0.0,0.0,0.0,0.0,0.0,0.0,0.0,0.0,0.0,0.0,0.0,0.0,0.0,0.0,0.0,0.0,0.0,0.0,0.0,0.0,0.0,0.0,0.0,0.0,0.0,0.0,0.0,0.0,0.0,0.0,0.0,0.0,0.0,0.0,0.0,0.0,0.0,0.0,0.0,0.0,0.0,0.0,0.0,0.0,0.0,0.0,0.0,0.0,0.0,0.0,0.0,0.0,0.0,0.0,0.0,0.0,0.0,0.0,0.0,0.0,0.0,0.0,0.0,0.0,0.0,0.0,-0.4893,-0.4975,-0.5166,-0.5565,-0.5328,-0.5054,0.0,0.0,0.0,0.0,0.0,0.0,0.0,0.0,0.0,0.0,0.0,0.0,0.0,0.0,0.0,0.0,0.0,0.0,0.0,0.0,0.0,0.0,0.0,0.0,0.0,0.0,0.0,0.0,0.0,0.0,0.0,0.0,0.0,0.0,0.0,0.0,0.0,0.0,0.0,0.0,0.0,0.0,0.0,0.0,0.0,0.0,0.0,0.0,0.0,0.0,0.0,0.0,0.0,0.0,0.0,0.0,0.0,0.0,0.0,0.0,0.0,0.0,0.0,0.0,0.0,0.0,0.0,0.0,0.0,0.0,0.0,0.0,0.0,0.0,0.0,0.0,0.0,0.0,0.0,0.0,0.0,0.0,0.0,0.0,0.0,0.0,0.0,0.0,0.0,0.0,0.0,0.0,0.0,0.0,0.0,0.0,0.0,0.0,0.0,0.0,0.0,0.0,0.0,0.0,0.0,0.0,0.0,0.0,0.0,-0.4695,-0.5184,-0.5579,-0.5784,-0.5727,-0.5514,0.0,0.0,0.0,0.0,0.0,0.0,0.0,0.0,0.0,0.0,0.0,0.0,0.0,0.0,0.0,0.0,0.0,0.0,0.0,0.0,0.0,0.0,0.0,0.0,0.0,0.0,0.0,0.0,0.0,0.0,0.0,0.0,0.0,0.0,0.0,0.0,0.0,0.0,0.0,0.0,0.0,0.0,0.0,0.0,0.0,0.0,0.0,0.0,0.0,0.0,0.0,0.0,0.0,0.0,0.0,0.0,0.0,0.0,0.0,0.0,0.0,0.0,0.0,0.0,0.0,0.0,0.0,0.0,0.0,0.0,0.0,0.0,0.0,0.0,0.0,0.0,0.0,0.0,0.0,0.0,0.0,0.0,0.0,0.0,0.0,0.0,0.0,0.0,0.0,0.0,0.0,0.0,0.0,0.0,0.0,0.0,0.0,0.0,0.0,0.0,0.0,0.0,0.0,0.0,0.0,0.0,0.0,0.0,0.0,-0.4961,0.0,-0.5956,-0.6104,-0.6083,-0.5809,0.0,0.0,0.0,0.0,0.0,0.0,0.0,0.0,0.0,0.0,0.0,0.0,0.0,0.0,0.0,0.0,0.0,0.0,0.0,0.0,0.0,0.0,0.0,0.0,0.0,0.0,0.0,0.0,0.0,0.0,0.0,0.0,0.0,0.0,0.0,0.0,0.0,0.0,0.0,0.0,0.0,0.0,0.0,0.0,0.0,0.0,0.0,0.0,0.0,0.0,0.0,0.0,0.0,0.0,0.0,0.0,0.0,0.0,0.0,0.0,0.0,0.0,0.0,0.0,0.0,0.0,0.0,0.0,0.0,0.0,0.0,0.0,0.0,0.0,0.0,0.0,0.0,0.0,0.0,0.0,0.0,0.0,0.0,0.0,0.0,0.0,0.0,0.0,0.0,0.0,0.0,0.0,0.0,0.0,0.0,0.0,0.0,0.0,0.0,0.0,0.0,0.0,0.0,0.0,0.0,0.0,0.0,0.0,-0.4964,-0.5842,-0.608,-0.627,-0.6498,-0.6314,-0.5851,0.0,0.0,0.0,0.0,0.0,0.0,0.0,0.0,0.0,0.0,0.0,0.0,0.0,0.0,0.0,0.0,0.0,0.0,0.0,0.0,0.0,0.0,0.0,0.0,0.0,0.0,0.0,0.0,0.0,0.0,0.0,0.0,0.0,0.0,0.0,0.0,0.0,0.0,0.0,0.0,0.0,0.0,0.0,0.0,0.0,0.0,0.0,0.0,0.0,0.0,0.0,0.0,0.0,0.0,0.0,0.0,0.0,0.0,0.0,0.0,0.0,0.0,0.0,0.0,0.0,0.0,0.0,0.0,0.0,0.0,0.0,0.0,0.0,0.0,0.0,0.0,0.0,0.0,0.0,0.0,0.0,0.0,0.0,0.0,0.0,0.0,0.0,0.0,0.0,0.0,0.0,0.0,0.0,0.0,0.0,0.0,0.0,0.0,0.0,0.0,0.0,0.0,0.0,0.0,0.0,0.0,0.0,0.0,0.0,-0.5592,-0.6179,-0.6631,-0.689,-0.6631,-0.6304,0.0,0.0,0.0,0.0,0.0,0.0,0.0,0.0,0.0,0.0,0.0,0.0,0.0,0.0,0.0,0.0,0.0,0.0,0.0,0.0,0.0,0.0,0.0,0.0,0.0,0.0,0.0,0.0,0.0,0.0,0.0,0.0,0.0,0.0,0.0,0.0,0.0,0.0,0.0,0.0,0.0,0.0,0.0,0.0,0.0,0.0,0.0,0.0,0.0,0.0,0.0,0.0,0.0,0.0,0.0,0.0,0.0,0.0,0.0,0.0,0.0,0.0,0.0,0.0,0.0,0.0,0.0,0.0,0.0,0.0,0.0,0.0,0.0,0.0,0.0,0.0,0.0,0.0,0.0,0.0,0.0,0.0,0.0,0.0,0.0,0.0,0.0,0.0,0.0,0.0,0.0,0.0,0.0,0.0,0.0,0.0,0.0,0.0,0.0,0.0,0.0,0.0,0.0,0.0,0.0,0.0,0.0,0.0,0.0,-0.6221,-0.6783,-0.7187,-0.7448,-0.7253,-0.6812,-0.609,0.0,0.0,0.0,0.0,0.0,0.0,0.0,0.0,0.0,0.0,0.0,0.0,0.0,0.0,0.0,0.0,0.0,0.0,0.0,0.0,0.0,0.0,0.0,0.0,0.0,0.0,0.0,0.0,0.0,0.0,0.0,0.0,0.0,0.0,0.0,0.0,0.0,0.0,0.0,0.0,0.0,0.0,0.0,0.0,0.0,0.0,0.0,0.0,0.0,0.0,0.0,0.0,0.0,0.0,0.0,0.0,0.0,0.0,0.0,0.0,0.0,0.0,0.0,0.0,0.0,0.0,0.0,0.0,0.0,0.0,0.0,0.0,0.0,0.0,0.0,0.0,0.0,0.0,0.0,0.0,0.0,0.0,0.0,0.0,0.0,0.0,0.0,0.0,0.0,0.0,0.0,0.0,0.0,0.0,0.0,0.0,0.0,0.0,0.0,0.0,0.0,0.0,0.0,0.0,0.0,0.0,0.0,0.0,-0.7537,-0.7796,-0.7974,-0.8167,-0.8088,-0.7378,0.0,0.0,0.0,0.0,0.0,0.0,0.0,0.0,0.0,0.0,0.0,0.0,0.0,0.0,0.0,0.0,0.0,0.0,0.0,0.0,0.0,0.0,0.0,0.0,0.0,0.0,0.0,0.0,0.0,0.0,0.0,0.0,0.0,0.0,0.0,0.0,0.0,0.0,0.0,0.0,0.0,0.0,0.0,0.0,0.0,0.0,0.0,0.0,0.0,0.0,0.0,0.0,0.0,0.0,0.0,0.0,0.0,0.0,0.0,0.0,0.0,0.0,0.0,0.0,0.0,0.0,0.0,0.0,0.0,0.0,0.0,0.0,0.0,0.0,0.0,0.0,0.0,0.0,0.0,0.0,0.0,0.0,0.0,0.0,0.0,0.0,0.0,0.0,0.0,0.0,0.0,0.0,0.0,0.0,0.0,0.0,0.0,0.0,0.0,0.0,0.0,0.0,0.0,0.0,0.0,0.0,0.0,0.0,0.0,-0.8339,-0.8861,-0.9157,-0.9118,-0.8234,-0.7478,0.0,0.0,0.0,0.0,0.0,0.0,0.0,0.0,0.0,0.0,0.0,0.0,0.0,0.0,0.0,0.0,0.0,0.0,0.0,0.0,0.0,0.0,0.0,0.0,0.0,0.0,0.0,0.0,0.0,0.0,0.0,0.0,0.0,0.0,0.0,0.0,0.0,0.0,0.0,0.0,0.0,0.0,0.0,0.0,0.0,0.0,0.0,0.0,0.0,0.0,0.0,0.0,0.0,0.0,0.0,0.0,0.0,0.0,0.0,0.0,0.0,0.0,0.0,0.0,0.0,0.0,0.0,0.0,0.0,0.0,0.0,0.0,0.0,0.0,0.0,0.0,0.0,0.0,0.0,0.0,0.0,0.0,0.0,0.0,0.0,0.0,0.0,0.0,0.0,0.0,0.0,0.0,0.0,0.0,0.0,0.0,0.0,0.0,0.0,0.0,0.0,0.0,0.0,0.0,0.0,0.0,0.0,0.0,-0.7174,-0.8814,-0.9245,-0.9666,-1.0028,-0.8994,-0.794,0.0,0.0,0.0,0.0,0.0,0.0,0.0,0.0,0.0,0.0,0.0,0.0,0.0,0.0,0.0,0.0,0.0,0.0,0.0,0.0,0.0,0.0,0.0,0.0,0.0,0.0,0.0,0.0,0.0,0.0,0.0,0.0,0.0,0.0,0.0,0.0,0.0,0.0,0.0,0.0,0.0,0.0,0.0,0.0,0.0,0.0,0.0,0.0,0.0,0.0,0.0,0.0,0.0,0.0,0.0,0.0,0.0,0.0,0.0,0.0,0.0,0.0,0.0,0.0,0.0,0.0,0.0,0.0,0.0,0.0,0.0,0.0,0.0,0.0,0.0,0.0,0.0,0.0,0.0,0.0,0.0,0.0,0.0,0.0,0.0,0.0,0.0,0.0,0.0,0.0,0.0,0.0,0.0,0.0,0.0,0.0,0.0,0.0,0.0,0.0,0.0,0.0,0.0,0.0,0.0,0.0,0.0,0.0,-0.767,-0.9024,-0.9338,-0.9841,-1.0573,-0.975,-0.8406,0.0,0.0,0.0,0.0,0.0,0.0,0.0,0.0,0.0,0.0,0.0,0.0,0.0,0.0,0.0,0.0,0.0,0.0,0.0,0.0,0.0,0.0,0.0,0.0,0.0,0.0,0.0,0.0,0.0,0.0,0.0,0.0,0.0,0.0,0.0,0.0,0.0,0.0,0.0,0.0,0.0,0.0,0.0,0.0,0.0,0.0,0.0,0.0,0.0,0.0,0.0,0.0,0.0,0.0,0.0,0.0,0.0,0.0,0.0,0.0,0.0,0.0,0.0,0.0,0.0,0.0,0.0,0.0,0.0,0.0,0.0,0.0,0.0,0.0,0.0,0.0,0.0,0.0,0.0,0.0,0.0,0.0,0.0,0.0,0.0,0.0,0.0,0.0,0.0,0.0,0.0,0.0,0.0,0.0,0.0,0.0,0.0,0.0,0.0,0.0,0.0,0.0,0.0,0.0,0.0,0.0,0.0,0.0,-0.796,-0.8835,-0.9779,-1.0058,-0.9796,-0.8645,-0.7754,0.0,0.0,0.0,0.0,0.0,0.0,0.0,0.0,0.0,0.0,0.0,0.0,0.0,0.0,0.0,0.0,0.0,0.0,0.0,0.0,0.0,0.0,0.0,0.0,0.0,0.0,0.0,0.0,0.0,0.0,0.0,0.0,0.0,0.0,0.0,0.0,0.0,0.0,0.0,0.0,0.0,0.0,0.0,0.0,0.0,0.0,0.0,0.0,-0.3897,0.0,0.0,0.0,0.0,0.0,0.0,0.0,0.0,0.0,0.0,0.0,0.0,0.0,0.0,0.0,0.0,0.0,0.0,0.0,0.0,0.0,0.0,0.0,0.0,0.0,0.0,0.0,0.0,0.0,0.0,0.0,0.0,0.0,0.0,0.0,0.0,0.0,0.0,0.0,0.0,0.0,0.0,0.0,0.0,0.0,0.0,0.0,0.0,0.0,0.0,0.0,0.0,0.0,0.0,0.0,0.0,0.0,0.0,0.0,-0.8148,-0.8949,-0.9666,-0.9844,-0.9497,-0.836,-0.7553,0.0,0.0,0.0,0.0,0.0,0.0,0.0,0.0,0.0,0.0,0.0,0.0,0.0,0.0,0.0,0.0,0.0,0.0,0.0,0.0,0.0,0.0,0.0,0.0,0.0,0.0,0.0,0.0,0.0,0.0,0.0,0.0,0.0,0.0,0.0,0.0,0.0,0.0,0.0,0.0,0.0,0.0,0.0,0.0,0.0,0.0,0.0,0.0,0.0,0.0,0.0,0.0,0.0,0.0,0.0,0.0,0.0,0.0,0.0,0.0,0.0,0.0,0.0,0.0,0.0,0.0,0.0,0.0,0.0,0.0,0.0,0.0,0.0,0.0,0.0,0.0,0.0,0.0,0.0,0.0,0.0,0.0,0.0,0.0,0.0,0.0,0.0,0.0,0.0,0.0,0.0,0.0,0.0,0.0,0.0,0.0,0.0,0.0,0.0,0.0,0.0,0.0,0.0,0.0,0.0,0.0,0.0,-0.7293,-0.8225,-0.9051,-0.9342,-0.9418,-0.9347,-0.8367,-0.7535,-0.688,0.0,0.0,0.0,0.0,0.0,0.0,0.0,0.0,0.0,0.0,0.0,0.0,0.0,0.0,0.0,0.0,0.0,0.0,0.0,0.0,0.0,0.0,0.0,0.0,0.0,0.0,0.0,0.0,0.0,0.0,0.0,0.0,0.0,0.0,0.0,0.0,0.0,0.0,-0.0535,-0.1448,0.0,0.0,0.0,0.0,0.0,0.0,0.0,0.0,-0.4741,0.0,0.0,0.0,0.0,0.0,0.0,0.0,0.0,0.0,0.0,0.0,0.0,0.0,0.0,0.0,0.0,0.0,0.0,0.0,0.0,0.0,0.0,0.0,0.0,0.0,0.0,0.0,0.0,0.0,0.0,0.0,0.0,0.0,0.0,0.0,0.0,0.0,0.0,0.0,0.0,0.0,0.0,0.0,0.0,0.0,0.0,0.0,0.0,0.0,0.0,0.0,0.0,0.0,0.0,0.0,0.0,-0.6758,-0.7574,-0.8188,-0.8594,-0.9266,-0.9353,-0.8742,-0.8081,-0.7532,-0.7155,0.0,0.0,0.0,0.0,0.0,0.0,0.0,0.0,0.0,0.0,0.0,0.0,0.0,0.0,0.0,0.0,0.0,0.0,0.0,0.0,0.0,0.0,0.0,0.0,0.0,0.0,0.0,0.0,0.0,0.0,0.0,0.0,0.0,0.0,0.0,0.0,0.0,0.0,0.0,-0.2568,-0.3311,0.0,0.0,0.0,0.0,0.0,0.0,0.0,0.0,-0.5329,0.0,0.0,0.0,0.0,0.0,0.0,0.0,0.0,0.0,0.0,0.0,0.0,0.0,0.0,0.0,0.0,0.0,0.0,0.0,0.0,0.0,0.0,0.0,0.0,0.0,0.0,0.0,0.0,0.0,0.0,0.0,0.0,0.0,0.0,0.0,0.0,0.0,0.0,0.0,0.0,0.0,0.0,0.0,0.0,0.0,0.0,0.0,0.0,0.0,0.0,0.0,0.0,0.0,0.0,0.0,-0.6872,-0.7499,-0.8057,-0.856,-0.9021,-0.9024,-0.8486,-0.7921,-0.7492,0.0,0.0,0.0,0.0,0.0,0.0,0.0,0.0,0.0,0.0,0.0,0.0,0.0,0.0,0.0,0.0,0.0,0.0,0.0,0.0,0.0,0.0,0.0,0.0,0.0,0.0,0.0,0.0,0.0,0.0,0.0,0.0,0.0,0.0,0.0,0.0,0.0,0.0,0.0,0.0,-0.3147,-0.371,-0.433,0.0,0.0,0.0,0.0,0.0,0.0,-0.5658,-0.5539,0.0,0.0,0.0,0.0,0.0,0.0,0.0,0.0,0.0,0.0,0.0,0.0,0.0,0.0,0.0,0.0,0.0,0.0,0.0,0.0,0.0,0.0,0.0,0.0,0.0,0.0,0.0,0.0,0.0,0.0,0.0,0.0,0.0,0.0,0.0,0.0,0.0,0.0,0.0,0.0,0.0,0.0,0.0,0.0,0.0,0.0,0.0,0.0,0.0,0.0,0.0,0.0,0.0,0.0,0.0,-0.6786,-0.7373,-0.7944,-0.858,-0.8739,-0.8677,-0.8407,-0.7809,-0.738,0.0,0.0,0.0,0.0,0.0,0.0,0.0,0.0,0.0,0.0,0.0,0.0,0.0,0.0,0.0,0.0,0.0,0.0,0.0,0.0,0.0,0.0,0.0,0.0,0.0,0.0,0.0,0.0,0.0,0.0,0.0,0.0,0.0,0.0,0.0,0.0,0.0,0.0,0.0,0.0,0.0,-0.421,-0.4852,-0.5324,0.0,0.0,0.0,0.0,-0.5847,-0.5803,0.0,0.0,0.0,0.0,0.0,0.0,0.0,0.0,0.0,0.0,0.0,0.0,0.0,0.0,0.0,0.0,0.0,0.0,0.0,0.0,0.0,0.0,0.0,0.0,0.0,0.0,0.0,0.0,0.0,0.0,0.0,0.0,0.0,0.0,0.0,0.0,0.0,0.0,0.0,0.0,0.0,0.0,0.0,0.0,0.0,0.0,0.0,0.0,0.0,0.0,0.0,0.0,0.0,0.0,0.0,0.0,-0.6431,-0.7018,-0.7673,-0.8204,-0.8418,-0.8418,-0.841,-0.7671,-0.7239,0.0,0.0,0.0,0.0,0.0,0.0,0.0,0.0,0.0,0.0,0.0,0.0,0.0,0.0,0.0,0.0,0.0,0.0,0.0,0.0,0.0,0.0,0.0,0.0,0.0,0.0,0.0,0.0,0.0,0.0,0.0,0.0,0.0,0.0,0.0,0.0,0.0,0.0,0.0,0.0,0.0,-0.507,-0.5384,-0.5654,-0.5857,0.0,0.0,-0.5969,-0.5966,-0.621,0.0,0.0,0.0,0.0,0.0,0.0,0.0,0.0,0.0,0.0,0.0,0.0,0.0,0.0,0.0,0.0,0.0,0.0,0.0,0.0,0.0,0.0,0.0,0.0,0.0,0.0,0.0,0.0,0.0,0.0,0.0,0.0,0.0,0.0,0.0,0.0,0.0,0.0,0.0,0.0,0.0,0.0,0.0,0.0,0.0,0.0,0.0,0.0,0.0,0.0,0.0,0.0,0.0,0.0,0.0,-0.5866,-0.6387,-0.6975,-0.7595,-0.8111,-0.825,-0.8312,-0.8248,-0.7551,-0.7089,0.0,0.0,0.0,0.0,0.0,0.0,0.0,0.0,0.0,0.0,0.0,0.0,0.0,0.0,0.0,0.0,0.0,0.0,0.0,0.0,0.0,0.0,0.0,0.0,0.0,0.0,0.0,0.0,0.0,0.0,0.0,0.0,0.0,0.0,0.0,0.0,0.0,0.0,0.0,0.0,0.0,0.0,-0.551,-0.5977,0.0,0.0,0.0,-0.6281,-0.6281,0.0,0.0,0.0,0.0,0.0,0.0,0.0,0.0,0.0,0.0,0.0,0.0,0.0,0.0,0.0,0.0,0.0,0.0,0.0,0.0,0.0,0.0,0.0,0.0,0.0,0.0,0.0,0.0,0.0,0.0,0.0,0.0,0.0,0.0,0.0,0.0,0.0,0.0,0.0,0.0,0.0,0.0,0.0,0.0,0.0,0.0,0.0,0.0,0.0,0.0,0.0,0.0,0.0,0.0,0.0,0.0,0.0,-0.6389,-0.6975,-0.7568,-0.8157,-0.8204,-0.8176,-0.8259,-0.7478,0.0,0.0,0.0,0.0,0.0,0.0,0.0,0.0,0.0,0.0,0.0,0.0,0.0,0.0,0.0,0.0,0.0,0.0,0.0,0.0,0.0,0.0,0.0,0.0,0.0,0.0,0.0,-0.4637,0.0,0.0,0.0,0.0,0.0,0.0,0.0,0.0,0.0,0.0,0.0,0.0,0.0,0.0,-0.6132,-0.5852,-0.6358,-0.6678,0.0,0.0,-0.6559,-0.6485,-0.6413,-0.6274,0.0,0.0,0.0,0.0,0.0,0.0,0.0,0.0,0.0,0.0,0.0,0.0,0.0,0.0,0.0,0.0,0.0,0.0,0.0,0.0,0.0,0.0,0.0,0.0,0.0,0.0,0.0,0.0,0.0,0.0,0.0,0.0,0.0,0.0,0.0,0.0,0.0,0.0,0.0,0.0,0.0,0.0,0.0,0.0,0.0,0.0,0.0,0.0,0.0,0.0,0.0,0.0,0.0,0.0,0.0,-0.6398,-0.698,-0.7685,-0.8403,-0.8247,-0.82,-0.8392,-0.7643,-0.6989,0.0,0.0,0.0,0.0,0.0,0.0,0.0,0.0,0.0,0.0,0.0,0.0,0.0,0.0,0.0,0.0,0.0,0.0,0.0,0.0,0.0,0.0,0.0,0.0,0.0,0.0,0.0,0.0,0.0,0.0,0.0,0.0,0.0,0.0,0.0,0.0,0.0,0.0,0.0,0.0,0.0,-0.6465,-0.6603,-0.6869,-0.7007,0.0,0.0,-0.68,-0.6555,-0.6968,-0.6949,-0.5976,0.0,0.0,0.0,0.0,0.0,0.0,0.0,0.0,0.0,0.0,0.0,0.0,0.0,0.0,0.0,0.0,0.0,0.0,0.0,0.0,0.0,0.0,0.0,0.0,0.0,0.0,0.0,0.0,0.0,0.0,0.0,0.0,0.0,0.0,0.0,0.0,0.0,0.0,0.0,0.0,0.0,0.0,0.0,0.0,0.0,0.0,0.0,0.0,0.0,0.0,0.0,0.0,0.0,-0.6149,-0.6503,-0.7143,-0.7667,-0.8108,-0.8075,-0.8023,-0.7955,-0.7503,-0.7062,0.0,0.0,0.0,0.0,0.0,0.0,0.0,0.0,0.0,0.0,0.0,0.0,0.0,0.0,0.0,0.0,0.0,0.0,0.0,0.0,0.0,0.0,0.0,0.0,0.0,0.0,0.0,0.0,-0.5382,-0.5346,-0.5189,0.0,0.0,0.0,0.0,0.0,0.0,0.0,0.0,0.0,0.0,-0.6753,-0.6798,-0.7014,0.0,0.0,-0.7015,-0.6931,-0.6975,-0.6912,-0.6681,-0.6317,-0.6129,0.0,0.0,0.0,0.0,0.0,0.0,0.0,0.0,0.0,0.0,0.0,0.0,0.0,0.0,0.0,0.0,0.0,0.0,0.0,0.0,0.0,0.0,0.0,0.0,0.0,0.0,0.0,0.0,0.0,0.0,0.0,0.0,0.0,0.0,0.0,0.0,0.0,0.0,0.0,0.0,0.0,0.0,0.0,0.0,0.0,0.0,0.0,0.0,0.0,0.0,0.0,0.0,-0.626,-0.6616,-0.7179,-0.7656,-0.8052,-0.808,-0.7947,-0.7771,-0.75,-0.7053,0.0,0.0,0.0,0.0,0.0,0.0,0.0,0.0,0.0,0.0,0.0,0.0,0.0,0.0,0.0,0.0,0.0,0.0,0.0,0.0,0.0,0.0,0.0,0.0,0.0,0.0,0.0,0.0,-0.5619,-0.5483,-0.5287,0.0,0.0,0.0,0.0,0.0,0.0,0.0,0.0,0.0,0.0,-0.695,-0.695,-0.7075,-0.7218,-0.7334,-0.7107,-0.7003,-0.7126,-0.6843,-0.6532,-0.6308,0.0,0.0,0.0,0.0,0.0,0.0,0.0,0.0,0.0,0.0,0.0,0.0,0.0,0.0,0.0,0.0,0.0,0.0,0.0,0.0,0.0,0.0,0.0,0.0,0.0,0.0,0.0,-0.551,0.0,0.0,-0.5499,0.0,0.0,0.0,0.0,0.0,0.0,0.0,0.0,0.0,0.0,0.0,0.0,0.0,0.0,0.0,0.0,0.0,0.0,0.0,0.0,0.0,0.0,-0.6268,-0.657,-0.7105,-0.7635,-0.8352,-0.8061,-0.7944,-0.7994,-0.7514,-0.7056,-0.6635,0.0,0.0,0.0,0.0,0.0,0.0,0.0,0.0,0.0,0.0,0.0,0.0,0.0,0.0,0.0,0.0,0.0,0.0,0.0,0.0,0.0,0.0,0.0,0.0,0.0,0.0,-0.576,-0.5623,-0.5519,0.0,0.0,0.0,0.0,0.0,0.0,0.0,0.0,0.0,0.0,-0.6773,-0.7092,-0.7092,-0.7265,-0.7395,-0.7392,-0.7224,-0.6987,-0.6753,-0.6817,-0.6627,0.0,0.0,0.0,0.0,0.0,0.0,0.0,0.0,0.0,0.0,0.0,0.0,0.0,0.0,0.0,0.0,0.0,0.0,0.0,0.0,0.0,0.0,0.0,0.0,0.0,0.0,0.0,-0.6252,-0.6211,0.0,0.0,0.0,0.0,0.0,0.0,0.0,0.0,0.0,0.0,0.0,-0.7373,-0.757,0.0,0.0,0.0,0.0,0.0,0.0,0.0,0.0,0.0,0.0,0.0,0.0,-0.668,-0.7183,-0.759,-0.802,-0.8534,-0.832,-0.8082,-0.7864,-0.7607,-0.7195,-0.6638,0.0,0.0,0.0,0.0,0.0,0.0,0.0,0.0,0.0,0.0,0.0,0.0,0.0,0.0,0.0,0.0,0.0,0.0,0.0,0.0,0.0,0.0,0.0,0.0,0.0,-0.5845,0.0,0.0,0.0,0.0,0.0,0.0,0.0,0.0,0.0,0.0,0.0,-0.6573,-0.6685,-0.6956,-0.7136,-0.7278,-0.7251,-0.7262,0.0,0.0,0.0,0.0,0.0,0.0,0.0,0.0,0.0,0.0,0.0,0.0,0.0,0.0,-0.602,-0.5617,-0.5504,-0.547,-0.547,0.0,0.0,0.0,0.0,0.0,0.0,0.0,0.0,0.0,0.0,0.0,0.0,0.0,0.0,-0.6862,0.0,-0.6967,0.0,0.0,0.0,0.0,0.0,0.0,0.0,0.0,-0.7461,-0.7929,-0.8265,-0.8474,-0.8579,0.0,-0.8436,-0.7736,0.0,0.0,0.0,0.0,0.0,0.0,0.0,0.0,-0.7035,-0.7517,-0.7894,-0.8212,-0.8517,-0.8369,-0.8151,-0.7798,-0.7502,-0.7108,-0.6635,-0.6279,-0.5971,0.0,0.0,0.0,0.0,0.0,0.0,0.0,0.0,0.0,0.0,0.0,0.0,0.0,0.0,0.0,0.0,0.0,0.0,0.0,0.0,0.0,0.0,0.0,-0.6166,0.0,0.0,0.0,0.0,0.0,0.0,0.0,0.0,0.0,-0.66,-0.6593,-0.6742,-0.7044,-0.7071,-0.7197,-0.735,0.0,0.0,0.0,0.0,0.0,0.0,0.0,-0.658,-0.6463,-0.6446,-0.6467,-0.6508,-0.6515,-0.6446,-0.6217,0.0,0.0,-0.5771,-0.5665,-0.5631,-0.5593,-0.5599,-0.5597,-0.5664,-0.5741,-0.5785,0.0,0.0,0.0,0.0,0.0,0.0,0.0,0.0,-0.7234,-0.7418,0.0,-0.7629,0.0,0.0,0.0,0.0,0.0,-0.6773,0.0,0.0,-0.8621,-0.9189,-0.9258,-0.9509,-0.9483,-0.9272,-0.9337,-0.8827,-0.7849,-0.7086,0.0,0.0,0.0,0.0,0.0,0.0,-0.7263,-0.7622,-0.8001,-0.8259,-0.8387,-0.816,-0.7922,-0.7789,-0.7279,-0.6885,-0.6638,-0.6462,-0.629,-0.6147,-0.5869,0.0,0.0,0.0,0.0,0.0,0.0,0.0,0.0,0.0,0.0,0.0,0.0,0.0,0.0,0.0,0.0,0.0,0.0,0.0,0.0,-0.6518,0.0,0.0,0.0,0.0,0.0,0.0,0.0,0.0,0.0,0.0,-0.7339,-0.7085,-0.7048,-0.7336,0.0,0.0,0.0,0.0,-0.7041,-0.6906,-0.6997,-0.6927,-0.659,-0.6725,-0.677,-0.6388,0.0,0.0,-0.6545,-0.6525,-0.6403,-0.6112,-0.6043,-0.6098,-0.6282,-0.6115,-0.5976,-0.5983,-0.5782,-0.5623,-0.5755,-0.5729,-0.5649,-0.6052,0.0,0.0,0.0,0.0,-0.7881,-0.8099,-0.8308,-0.8731,-0.8787,-0.8627,-0.8482,0.0,0.0,0.0,0.0,0.0,0.0,-0.7572,-0.8229,-0.8753,-0.9329,-0.9962,-1.0192,-1.0192,-1.0103,-0.9756,-0.9198,-0.8549,-0.7835,-0.7102,-0.6469,0.0,0.0,0.0,0.0,-0.754,-0.8202,-0.8255,-0.8382,-0.8593,-0.8223,-0.7806,-0.7453,-0.7243,-0.6994,-0.676,-0.6584,-0.6461,-0.6227,-0.607,0.0,0.0,0.0,0.0,0.0,0.0,0.0,0.0,0.0,0.0,0.0,0.0,0.0,0.0,0.0,0.0,0.0,0.0,0.0,-0.6787,-0.6603,-0.6538,0.0,0.0,0.0,0.0,0.0,0.0,0.0,0.0,0.0,-0.8007,-0.7625,-0.7316,0.0,0.0,-0.7152,-0.7395,-0.7153,-0.693,-0.6893,-0.6871,0.0,-0.6658,-0.6709,-0.6722,-0.6593,-0.6736,-0.6814,-0.6661,-0.6725,-0.6736,-0.6539,-0.6508,-0.6525,-0.6542,-0.6271,-0.605,-0.6166,-0.6198,-0.6239,-0.6281,-0.6242,-0.617,-0.6038,-0.648,-0.677,-0.7194,-0.7702,-0.8139,-0.8587,-0.9038,-0.9589,-0.9732,-0.9601,-0.9405,-0.8872,-0.8013,-0.7405,0.0,0.0,0.0,-0.7826,-0.8829,-0.8995,-0.9535,-1.0449,-1.0541,-1.0548,-1.048,-0.9935,-0.944,-0.8989,-0.8228,-0.7598,-0.6978,0.0,0.0,-0.7211,-0.7507,-0.8014,-0.8513,-0.8492,-0.8508,-0.8617,-0.8133,-0.7681,-0.7266,-0.7248,-0.7098,-0.6812,-0.6835,-0.6683,-0.6347,-0.6367,-0.6164,0.0,0.0,0.0,0.0,0.0,0.0,0.0,0.0,0.0,0.0,0.0,-0.5351,-0.5342,0.0,0.0,0.0,-0.6547,-0.6827,-0.6879,-0.6763,0.0,0.0,0.0,0.0,0.0,0.0,0.0,-0.7587,-0.7785,-0.7945,-0.8202,-0.7901,-0.7692,-0.7845,-0.755,-0.7356,-0.7451,0.0,-0.7065,-0.6903,-0.6898,-0.6834,-0.6719,-0.68,-0.6832,-0.6875,-0.6903,-0.6956,-0.6824,-0.6871,-0.6871,-0.6736,-0.6651,-0.6647,-0.6766,-0.6471,-0.6251,-0.64,-0.6414,-0.6391,-0.6474,-0.6475,-0.6421,-0.5868,-0.5774,-0.592,-0.6516,-0.736,-0.7871,-0.8577,-0.9401,-1.004,-1.0383,-1.0441,-1.036,-0.982,-0.8998,-0.7881,0.0,-0.7576,-0.7587,-0.8196,-0.9346,-0.9346,-0.9802,-1.0714,-1.0717,-1.0646,-1.0442,-0.996,-0.951,-0.9077,-0.8333,-0.7841,-0.7524,-0.7483,-0.7513,-0.7665,-0.8214,-0.8549,-0.8699,-0.8637,-0.8592,-0.8396,-0.7829,-0.7438,-0.7213,-0.7202,-0.7089,-0.6815,-0.7051,-0.6935,-0.645,-0.6579,-0.6512,-0.6153,0.0,0.0,0.0,0.0,0.0,0.0,0.0,0.0,0.0,0.0,0.0,0.0,0.0,0.0,0.0,-0.6744,0.0,-0.6953,-0.6933,0.0,0.0,0.0,-0.7179,-0.739,-0.7855,-0.8087,-0.7848,0.0,0.0,-0.8092,-0.8015,-0.8109,-0.8303,-0.7885,-0.7597,-0.7597,-0.7461,-0.7268,-0.6993,-0.7011,-0.6991,-0.679,-0.6886,-0.7034,-0.7038,-0.7088,-0.7041,-0.697,-0.6883,-0.6825,-0.6776,-0.6614,-0.6603,-0.6895,-0.6702,-0.6556,-0.6709,-0.6501,-0.6317,-0.6472,-0.6491,-0.646,-0.5234,-0.519,-0.5843,-0.6759,-0.779,-0.8675,-0.9464,-1.0107,-1.095,-1.1154,-1.0943,-1.0376,-0.9475,-0.8468,-0.8077,-0.7951,-0.8068,-0.816,-0.8699,-0.9557,-0.9629,-0.9993,-1.0717,-1.0721,-1.0571,-1.0254,-0.9687,-0.9224,-0.8895,-0.8369,-0.7955,-0.766,-0.7864,-0.7996,-0.8121,-0.8286,-0.8467,-0.8713,-0.8314,-0.7987,-0.7579,-0.7371,-0.7268,-0.721,-0.707,-0.6956,-0.6806,-0.6763,-0.664,-0.6395,-0.6462,-0.6394,-0.6279,-0.6246,0.0,0.0,0.0,0.0,0.0,0.0,0.0,0.0,0.0,-0.5613,-0.5794,0.0,-0.6288,0.0,-0.7043,-0.7356,-0.7577,-0.7397,0.0,0.0,-0.7366,-0.7417,-0.7678,-0.7921,-0.8084,-0.815,-0.8371,-0.847,-0.8381,-0.8286,-0.8228,-0.8306,-0.7882,-0.7597,-0.7594,-0.7468,-0.7305,-0.7088,-0.7071,-0.7034,-0.6873,-0.6886,-0.6943,-0.6937,-0.7024,-0.7085,-0.7051,-0.6953,-0.6903,-0.6964,-0.6876,-0.6905,-0.7007,-0.6896,-0.6881,-0.6947,-0.6879,-0.6699,-0.6678,-0.6724,-0.6741,-0.5098,-0.5012,-0.5449,-0.6246,-0.724,-0.8801,-0.9837,-1.0515,-1.125,-1.1525,-1.1345,-1.0486,-0.9591,-0.8655,-0.845,-0.838,-0.8397,-0.8462,-0.8858,-0.9389,-0.9458,-0.9724,-1.0259,-1.0256,-1.0127,-0.9984,-0.9383,-0.8971,-0.8834,-0.8278,-0.7966,-0.778,-0.8081,-0.8253,-0.8339,-0.8283,-0.8242,-0.8347,-0.7971,-0.7579,-0.7331,-0.7217,-0.7185,-0.7133,-0.7182,-0.7006,-0.6725,-0.6861,-0.6765,-0.6445,-0.6489,-0.6487,-0.6325,-0.6265,-0.6157,0.0,0.0,0.0,0.0,0.0,0.0,0.0,0.0,0.0,0.0,0.0,-0.6744,-0.7102,-0.7378,-0.7539,-0.7702,-0.757,-0.7533,-0.7678,-0.7617,-0.7658,-0.7889,-0.8048,-0.8177,-0.8313,-0.8394,-0.8459,-0.8397,-0.8374,-0.8265,-0.8089,-0.7851,-0.7672,-0.7597,-0.7468,-0.7316,-0.7125,-0.7095,-0.7045,-0.6906,-0.694,-0.6957,-0.691,-0.7001,-0.7095,-0.7092,-0.698,-0.693,-0.7051,-0.6927,-0.6898,-0.7038,-0.6923,-0.6878,-0.6943,-0.694,-0.6859,-0.6778,-0.6919,-0.6893,-0.5157,-0.5095,-0.5121,-0.5529,-0.6302,-0.8547,-0.9857,-1.0501,-1.1247,-1.1527,-1.1337,-1.0574,-0.9742,-0.9062,-0.8833,-0.8687,-0.859,-0.8587,-0.8787,-0.9117,-0.9117,-0.9322,-0.9731,-0.9731,-0.9664,-0.9582,-0.9077,-0.8759,-0.8672,-0.8205,-0.7894,-0.7914,-0.8175,-0.8352,-0.8303,-0.8087,-0.7983,-0.7917,-0.754,-0.7357,-0.735,-0.7211,-0.7086,-0.7046,-0.7223,-0.7048,-0.663,-0.7012,-0.7005,-0.6445,-0.6642,-0.6594,-0.6347,-0.6355,-0.6257,0.0,-0.6029,0.0,0.0,0.0,0.0,0.0,0.0,0.0,0.0,-0.7096,-0.7465,-0.7567,-0.7624,-0.7634,-0.7607,-0.7611,-0.7716,-0.7848,-0.7851,-0.7857,-0.8025,-0.8201,-0.8279,-0.8347,-0.8408,-0.8431,-0.8347,-0.8323,-0.8157,-0.7919,-0.7807,-0.7719,-0.7614,-0.7468,-0.7316,-0.7119,-0.7078,-0.7011,-0.6916,-0.6964,-0.694,-0.6913,-0.6934,-0.7075,-0.7092,-0.698,-0.693,-0.7038,-0.6886,-0.6844,-0.7048,-0.6893,-0.682,-0.6906,-0.693,-0.6906,-0.6859,-0.6943,-0.697,-0.5093,-0.5115,-0.573,-0.6151,-0.638,-0.8627,-0.9563,-0.9685,-1.1026,-1.1125,-1.035,-0.9901,-0.9314,-0.8728,-0.8678,-0.8609,-0.8587,-0.8587,-0.8787,-0.9117,-0.9117,-0.9322,-0.9664,-0.9731,-0.9525,-0.9244,-0.897,-0.8655,-0.8297,-0.819,-0.8019,-0.7744,-0.7886,-0.7898,-0.7645,0.0,0.0,0.0,-0.753,-0.7336,-0.7464,-0.7176,-0.7008,-0.698,-0.6843,0.0,-0.6619,-0.6625,-0.6511,-0.6389,-0.6439,0.0,0.0,0.0,0.0,0.0,0.0,0.0,0.0,0.0,0.0,0.0,-0.6939,-0.6928,-0.7053,-0.7349,-0.752,-0.7472,-0.7629,-0.7727,-0.7602,-0.7809,-0.8018,-0.816,-0.8072,-0.8102,-0.8357,-0.8378,-0.8313,-0.8428,-0.8465,-0.8428,-0.834,-0.8323,-0.8197,-0.7951,-0.779,-0.7641,-0.7604,-0.7508,-0.7312,-0.7125,-0.7018,-0.693,-0.6893,-0.6688,-0.6655,-0.681,-0.6767,-0.684,-0.7017,-0.6977,-0.6933,-0.7065,-0.7,-0.6889,-0.7065,-0.7045,-0.7004,-0.7048,-0.7051,-0.6984,-0.68,-0.6825,-0.6873,-0.5166,0.0,-0.5553,-0.5641,0.0,-0.7366,-0.8171,-0.8362,-1.0444,-1.0525,-0.9301,-0.9078,-0.866,-0.8056,-0.8512,-0.8644,-0.8587,-0.8587,-0.8717,-0.8851,-0.8851,-0.8987,-0.9189,-0.9123,-0.9053,-0.8848,-0.8733,-0.8513,-0.8323,-0.8202,-0.8111,-0.7877,-0.7994,-0.7959,-0.7788,-0.7722,-0.7693,-0.7695,-0.7459,-0.7396,-0.7502,-0.7282,-0.7103,-0.6986,-0.7023,0.0,0.0,0.0,0.0,0.0,0.0,0.0,0.0,-0.6777,0.0,-0.6622,-0.6559,-0.653,-0.669,-0.6543,-0.6723,-0.7318,-0.7408,-0.7448,-0.748,-0.7581,-0.7605,-0.7674,-0.7825,-0.7888,-0.7935,-0.8103,-0.8214,-0.835,-0.8306,-0.8299,-0.836,-0.8377,-0.8343,-0.8279,-0.8333,-0.8319,-0.8177,-0.8157,-0.8092,-0.7897,-0.774,-0.757,-0.7489,-0.7356,-0.7224,-0.7109,-0.7045,-0.692,-0.6771,-0.6681,-0.656,-0.6552,-0.6637,-0.6749,-0.6912,-0.6897,-0.693,-0.7055,-0.698,-0.6933,-0.7061,-0.7095,-0.7095,-0.7095,-0.7095,-0.7058,-0.6903,-0.6937,-0.6947,-0.5252,-0.5183,-0.5132,-0.5037,-0.4992,-0.6153,-0.6819,-0.7383,0.0,0.0,0.0,-0.8354,-0.8085,-0.762,-0.8363,-0.8685,-0.859,-0.8587,-0.8587,-0.8587,-0.8587,-0.8587,-0.8587,-0.8587,-0.8587,-0.8581,-0.8492,-0.8437,-0.8413,-0.8229,-0.8185,-0.81,-0.8144,-0.8119,-0.8089,-0.8084,-0.7875,-0.7592,-0.7462,-0.7379,-0.7513,-0.7377,-0.7203,-0.6991,-0.7177,-0.7116,-0.6806,-0.7009,-0.7009,-0.6804,-0.7009,-0.7009,-0.6857,-0.7029,-0.7043,-0.6831,-0.6738,-0.6736,-0.685,-0.6733,-0.6903,-0.7484,-0.7721,-0.7791,-0.7781,-0.7674,-0.7706,-0.7929,-0.8029,-0.8093,-0.8244,-0.8309,-0.8419,-0.8506,-0.8499,-0.8438,-0.8367,-0.8394,-0.8343,-0.814,-0.8177,-0.8184,-0.8015,-0.7998,-0.7948,-0.7865,-0.7716,-0.7526,-0.736,-0.7227,-0.7109,-0.7095,-0.7037,-0.6916,-0.6707,-0.6579,-0.654,-0.6427,-0.6524,-0.6672,-0.6814,-0.6873,-0.6937,-0.7075,-0.6994,-0.6991,-0.7068,-0.7095,-0.7095,-0.7095,-0.7095,-0.7095,-0.7095,-0.7095,-0.7055,-0.5228,-0.5124,-0.5115,-0.5014,-0.4933,-0.613,-0.6937,-0.7586,-0.822,-0.8146,-0.7604,-0.7816,-0.7779,-0.7648,-0.8314,-0.86,-0.8587,-0.8587,-0.8587,-0.8587,-0.8587,-0.8587,-0.8587,-0.8587,-0.8587,-0.8587,-0.8568,-0.8513,-0.8416,-0.8299,-0.8225,-0.819,-0.8019,-0.7921,-0.7958,-0.7958,-0.7933,-0.782,-0.7709,-0.7608,-0.7519,-0.7296,-0.7174,-0.6989,-0.6941,-0.6873,-0.6804,-0.6859,-0.6854,-0.6804,-0.6854,-0.6854,-0.6806,-0.6958,-0.7013,-0.6961,-0.6942,-0.6986,-0.7147,-0.6902,-0.6887,-0.7223,-0.7357,-0.7521,-0.7609,-0.7633,-0.7695,-0.7906,-0.8133,-0.8244,-0.8177,-0.8347,-0.8513,-0.8645,-0.856,-0.8523,-0.8604,-0.8448,-0.8296,-0.8225,-0.8133,-0.8025,-0.7998,-0.7988,-0.7982,-0.7924,-0.778,-0.7509,-0.7275,-0.7112,-0.7098,-0.7098,-0.6925,-0.6827,-0.6703,-0.6315,-0.6281,-0.6665,-0.6325,-0.6312,-0.6905,-0.6889,-0.6879,-0.7048,-0.7068,-0.7071,-0.7095,-0.7095,-0.7095,-0.7095,-0.7095,-0.7095,-0.7095,-0.7095,-0.7085,-0.5271,-0.5165,-0.5161,-0.504,-0.4841,-0.5594,-0.589,-0.6045,-0.6406,-0.6503,-0.6559,-0.6966,-0.7081,-0.7051,-0.7696,-0.7984,-0.7984,-0.7984,-0.7984,-0.8051,-0.8387,-0.8587,-0.8587,-0.8184,-0.7984,-0.7984,-0.7984,-0.7959,-0.7908,-0.8254,-0.8397,-0.8331,-0.822,-0.8103,-0.7983,-0.8038,-0.8002,-0.7933,-0.7761,-0.7674,-0.7616,-0.7445,-0.7326,-0.7274,-0.7217,-0.719,-0.719,-0.7124,-0.7092,-0.7092,-0.7193,-0.716,-0.7051,-0.7212,-0.7246,-0.7133,-0.7133,-0.7155,-0.7207,-0.7221,-0.7183,-0.7121,-0.7271,-0.7419,-0.7379,-0.7358,-0.7537,-0.7907,-0.8076,-0.8236,-0.8378,-0.8555,-0.8669,-0.8821,-0.8771,-0.8693,-0.8601,-0.856,-0.8414,-0.8201,-0.8163,-0.8133,-0.8002,-0.7988,-0.7988,-0.7971,-0.7841,-0.76,-0.7316,-0.7133,-0.7058,-0.7074,-0.6925,-0.6748,-0.6609,-0.6301,-0.6113,-0.6213,-0.6019,-0.6127,-0.6615,-0.6653,-0.6802,-0.7034,-0.7095,-0.7095,-0.7095,-0.7095,-0.7095,-0.7095,-0.7095,-0.7095,-0.7095,-0.701,-0.6969,-0.5313,-0.5203,-0.5203,-0.5066,-0.4841,-0.5028,-0.497,-0.4738,-0.4957,-0.5218,-0.5517,-0.608,-0.6356,-0.6358,-0.6999,-0.7282,-0.7277,-0.7457,-0.7512,-0.7581,-0.8253,-0.8518,-0.832,-0.7784,-0.7448,-0.725,-0.725,-0.725,-0.7314,-0.7961,-0.8291,-0.8128,-0.8337,-0.8232,-0.7872,-0.8083,-0.8087,-0.7877,-0.7761,-0.7703,-0.7701,-0.7608,-0.7548,-0.7521,-0.7516,-0.7519,-0.7513,-0.7429,-0.7364,-0.7334,-0.7418,-0.7466,-0.7213,-0.7382,-0.7438,-0.721,-0.721,-0.721,-0.721,-0.7382,-0.7398,-0.7087,-0.7239,-0.7302,-0.7211,-0.72,-0.7396,-0.7852,-0.7952,-0.8115,-0.846,-0.8598,-0.8699,-0.8809,-0.8881,-0.8821,-0.8594,-0.8611,-0.854,-0.8211,-0.8191,-0.817,-0.8059,-0.8008,-0.7971,-0.7921,-0.786,-0.775,-0.7495,-0.7194,-0.7086,-0.7014,-0.6815,-0.6571,-0.6346,-0.6169,-0.5991,-0.5774,-0.5801,-0.6051,-0.637,-0.6542,-0.669,-0.6967,-0.7095,-0.7095,-0.7095,-0.7095,-0.7095,-0.7054,-0.701,-0.701,-0.6918,-0.6789,-0.6836,-0.5312,-0.5211,-0.52,-0.5066,-0.4846,-0.4847,-0.4789,-0.4668,-0.4738,-0.4735,-0.4863,-0.5449,-0.5697,-0.5743,-0.6295,-0.656,-0.6619,-0.7221,-0.7514,-0.7581,-0.8251,-0.8253,-0.765,-0.7512,-0.7183,-0.6585,-0.6518,-0.6518,-0.6514,-0.7169,-0.7396,-0.7439,-0.8037,-0.7909,-0.7263,-0.7754,-0.8008,-0.7933,-0.7758,-0.7703,-0.7703,-0.7693,-0.763,-0.7521,-0.7521,-0.7519,-0.7532,-0.7449,-0.7451,-0.729,-0.7328,-0.7325,-0.7229,-0.7213,-0.721,-0.721,-0.721,-0.721,-0.721,-0.7213,-0.7204,-0.7196,-0.7188,-0.7238,-0.7224,-0.7224,-0.7402,-0.769,-0.7822,-0.7883,-0.806,-0.8348,-0.8517,-0.8533,-0.8712,-0.8814,-0.8706,-0.8577,-0.8482,-0.8455,-0.8218,-0.8052,-0.8184,-0.8113,-0.7941,-0.7896,-0.795,-0.7847,-0.7547,-0.7319,-0.7078,-0.6904,-0.6571,-0.6225,-0.6127,-0.5908,-0.5863,-0.5941,-0.576,-0.5967,-0.6408,-0.6514,-0.6498,-0.697,-0.7095,-0.7095,-0.7095,-0.7095,-0.7054,-0.6877,-0.6836,-0.6745,-0.6564,-0.6476,-0.6609,-0.526,-0.5151,-0.5149,-0.5033,-0.4775,-0.4782,-0.4794,-0.4666,-0.4665,-0.4665,-0.4735,-0.4998,-0.5303,-0.564,-0.5814,-0.5877,-0.5895,-0.6533,-0.6851,-0.6985,-0.8053,-0.8184,-0.7514,-0.7049,-0.6516,-0.585,-0.5781,-0.5783,-0.5912,-0.6479,-0.6747,-0.6738,-0.7078,-0.7126,-0.7011,-0.7365,-0.7689,-0.7877,-0.7826,-0.7801,-0.7793,-0.7736,-0.7712,-0.7725,-0.7725,-0.7728,-0.772,-0.7663,-0.7603,-0.7551,-0.7486,-0.7388,-0.7266,-0.726,-0.723,-0.7221,-0.721,-0.721,-0.721,-0.721,-0.721,-0.721,-0.721,-0.721,-0.721,-0.721,-0.7299,-0.7425,-0.7575,-0.777,-0.798,-0.8156,-0.8208,-0.8211,-0.8488,-0.8598,-0.846,-0.8551,-0.8564,-0.8439,-0.8252,-0.8157,-0.8133,-0.8029,-0.7965,-0.7907,-0.7955,-0.7848,-0.7568,-0.7228,-0.6926,-0.6615,-0.6169,-0.5964,-0.6041,-0.5863,-0.5863,-0.5933,-0.576,-0.5814,-0.6514,-0.6502,-0.6501,-0.7027,-0.7082,-0.7085,-0.7095,-0.7095,-0.7051,-0.6833,-0.6612,-0.652,-0.6428,-0.6299,-0.639,-0.5209,-0.5117,-0.5094,-0.5003,-0.4868,-0.4807,-0.4745,-0.4763,-0.4672,-0.4665,-0.4665,-0.4665,-0.4894,-0.528,-0.5279,-0.5218,-0.5237,-0.5803,-0.6116,-0.6252,-0.7455,-0.7584,-0.6915,-0.6384,-0.5783,-0.5178,-0.5112,-0.518,-0.5448,-0.585,-0.6086,-0.6109,-0.6287,-0.6407,-0.6528,-0.6935,-0.7372,-0.7629,-0.7768,-0.7933,-0.7858,-0.779,-0.7788,-0.7864,-0.7933,-0.7933,-0.793,-0.779,-0.7733,-0.7701,-0.7584,-0.7406,-0.7288,-0.7307,-0.7247,-0.7224,-0.721,-0.721,-0.721,-0.721,-0.721,-0.721,-0.721,-0.721,-0.721,-0.721,-0.721,-0.7207,-0.7379,-0.7601,-0.7712,-0.7823,-0.7878,-0.7937,-0.8156,-0.832,-0.8192,-0.8386,-0.8505,-0.8273,-0.8244,-0.8211,-0.8032,-0.7988,-0.7982,-0.7982,-0.7935,-0.7789,-0.7459,-0.7098,-0.6715,-0.6392,-0.6065,-0.5902,-0.5972,-0.5822,-0.5819,-0.588,-0.576,-0.5895,-0.6571,-0.6446,-0.6501,-0.6967,-0.7011,-0.7061,-0.7078,-0.7085,-0.6983,-0.6738,-0.6523,-0.6299,-0.6166,-0.6124,-0.6127,-0.5169,-0.5106,-0.5049,-0.4989,-0.485,-0.4865,-0.4805,-0.4815,-0.4763,-0.4665,-0.4665,-0.4665,-0.4702,-0.4708,-0.4646,-0.4547,-0.4664,-0.524,-0.552,-0.5582,-0.6252,-0.6185,-0.5513,-0.5448,-0.5045,-0.4508,-0.4441,-0.471,-0.5314,-0.5451,-0.5448,-0.5441,-0.5982,-0.6004,-0.5639,-0.6537,-0.715,-0.7159,-0.7554,-0.7872,-0.7933,-0.7925,-0.7919,-0.793,-0.7933,-0.7933,-0.793,-0.7928,-0.7812,-0.7709,-0.7597,-0.7472,-0.7347,-0.7289,-0.7221,-0.721,-0.721,-0.721,-0.721,-0.721,-0.721,-0.721,-0.721,-0.721,-0.721,-0.721,-0.721,-0.721,-0.721,-0.7268,-0.7324,-0.7493,-0.7607,-0.7607,-0.7881,-0.7984,-0.7861,-0.8138,-0.822,-0.8062,-0.8127,-0.8147,-0.8008,-0.7988,-0.7942,-0.7942,-0.7793,-0.7542,-0.7372,-0.6979,-0.6666,-0.6478,-0.6225,-0.5991,-0.5795,-0.588,-0.5818,-0.5875,-0.601,-0.6031,-0.6278,-0.6524,-0.6762,-0.6923,-0.697,-0.6977,-0.7038,-0.6963,-0.6809,-0.6605,-0.6384,-0.6171,-0.6124,-0.6083,-0.6038,-0.5145,-0.5052,-0.503,-0.4988,-0.4932,-0.4796,-0.4812,-0.4825,-0.4763,-0.4665,-0.4665,-0.4665,-0.4651,-0.4699,-0.4568,-0.45,-0.4498,-0.5135,-0.5427,-0.5453,-0.6118,-0.6051,-0.5448,-0.5381,-0.4978,-0.4374,-0.4307,-0.4441,-0.465,-0.4751,-0.4751,-0.4716,-0.4913,-0.5077,-0.5265,-0.5643,-0.6199,-0.6923,-0.719,-0.7441,-0.7875,-0.7933,-0.7933,-0.7933,-0.7933,-0.7933,-0.7933,-0.7933,-0.7853,-0.7809,-0.7766,-0.7714,-0.7748,-0.7548,-0.7382,-0.721,-0.721,-0.721,-0.721,-0.721,-0.721,-0.721,-0.721,-0.721,-0.721,-0.721,-0.721,-0.7213,-0.7213,-0.721,-0.721,-0.7324,-0.7324,-0.7379,-0.7546,-0.7697,-0.777,-0.7917,-0.8055,-0.7989,-0.7923,-0.7802,-0.7716,-0.759,-0.759,-0.769,-0.749,-0.7276,-0.7027,-0.6797,-0.6557,-0.6311,-0.6175,-0.6056,-0.5991,-0.6143,-0.6216,-0.6187,-0.6256,-0.6415,-0.6631,-0.6647,-0.6871,-0.6963,-0.6974,-0.6937,-0.7014,-0.6939,-0.6778,-0.6662,-0.6438,-0.6257,-0.6166,-0.6169,-0.6083,-0.5097,-0.5027,-0.5022,-0.4999,-0.4955,-0.4803,-0.4823,-0.4775,-0.47,-0.4665,-0.4665,-0.4665,-0.4665,-0.4658,-0.4621,-0.4551,-0.4529,-0.4988,-0.5159,-0.518,-0.5562,-0.5484,-0.5143,-0.5055,-0.4777,-0.4378,-0.4328,-0.4337,-0.4343,-0.4397,-0.4394,-0.4341,-0.4337,-0.4508,-0.4841,-0.5032,-0.5676,-0.6629,-0.6888,-0.7313,-0.7865,-0.7891,-0.7933,-0.7933,-0.7933,-0.7933,-0.7933,-0.7933,-0.7933,-0.7867,-0.7897,-0.7829,-0.7757,-0.7607,-0.7382,-0.721,-0.721,-0.721,-0.721,-0.721,-0.721,-0.721,-0.721,-0.721,-0.721,-0.721,-0.7226,-0.7195,-0.7226,-0.7218,-0.7251,-0.7235,-0.721,-0.721,-0.7379,-0.7493,-0.749,-0.7671,-0.7798,-0.7765,-0.7642,-0.7516,-0.7441,-0.7288,-0.7338,-0.7441,-0.7241,-0.6979,-0.668,-0.648,-0.6364,-0.6166,-0.6082,-0.6101,-0.6146,-0.6348,-0.6328,-0.6295,-0.651,-0.6721,-0.6719,-0.6777,-0.6866,-0.6993,-0.6987,-0.694,-0.691,-0.6889,-0.6827,-0.6789,-0.6659,-0.6523,-0.639,-0.6257,-0.6169,-0.5023,-0.5022,-0.5022,-0.5019,-0.4999,-0.4823,-0.4773,-0.4828,-0.4721,-0.4747,-0.4677,-0.4668,-0.4665,-0.4736,-0.4657,-0.4625,-0.4637,-0.4586,-0.4618,-0.4593,-0.4551,-0.4525,-0.4449,-0.4465,-0.4441,-0.4311,-0.4371,-0.4395,-0.4394,-0.445,-0.4454,-0.4405,-0.439,-0.4424,-0.4305,-0.4833,-0.552,-0.6192,-0.6629,-0.7291,-0.7975,-0.7932,-0.7933,-0.7933,-0.7933,-0.7933,-0.7933,-0.7933,-0.7933,-0.7861,-0.7777,-0.7595,-0.7391,-0.723,-0.721,-0.7099,-0.7099,-0.7154,-0.7154,-0.7154,-0.7099,-0.7215,-0.7215,-0.7176,-0.7237,-0.7245,-0.7233,-0.7301,-0.7255,-0.7214,-0.7288,-0.7233,-0.7224,-0.721,-0.7268,-0.7265,-0.7235,-0.7313,-0.7428,-0.7407,-0.7285,-0.7197,-0.7188,-0.7039,-0.7036,-0.7089,-0.6836,-0.6558,-0.6322,-0.6066,-0.5922,-0.6,-0.5944,-0.5874,-0.6211,-0.6489,-0.6392,-0.6303,-0.6626,-0.6889,-0.6743,-0.6717,-0.6828,-0.6907,-0.6862,-0.6813,-0.694,-0.688,-0.6908,-0.6881,-0.6789,-0.6745,-0.6609,-0.6476,-0.6302,-0.5022,-0.5022,-0.5022,-0.5022,-0.5012,-0.494,-0.4909,-0.4819,-0.4779,-0.4726,-0.4719,-0.4683,-0.4665,-0.4665,-0.4665,-0.4654,-0.4635,-0.4684,-0.4545,-0.444,-0.4407,-0.4377,-0.4341,-0.4318,-0.4307,-0.4324,-0.441,-0.4435,-0.4422,-0.4497,-0.4497,-0.4417,-0.4401,-0.4367,-0.4311,-0.4448,-0.4873,-0.551,-0.6073,-0.6672,-0.7288,-0.7685,-0.7872,-0.7933,-0.7933,-0.7933,-0.7933,-0.7933,-0.7933,-0.7933,-0.7897,-0.7646,-0.7243,-0.6984,-0.6662,-0.6267,-0.6042,-0.6207,-0.6541,-0.6599,-0.6765,-0.7059,-0.7228,-0.7277,-0.729,-0.7353,-0.7413,-0.7459,-0.7423,-0.7402,-0.7339,-0.7307,-0.7236,-0.7218,-0.721,-0.7174,-0.7084,-0.7079,-0.7078,-0.6994,-0.6819,-0.6653,-0.6589,-0.6439,-0.6295,-0.6537,-0.6142,-0.5716,-0.5701,-0.5421,-0.5308,-0.5525,-0.5489,-0.561,-0.596,-0.6171,-0.6139,-0.6255,-0.6633,-0.678,-0.6697,-0.663,-0.6747,-0.6796,-0.6753,-0.6783,-0.691,-0.695,-0.7007,-0.7023,-0.6976,-0.6928,-0.6874,-0.6653,-0.6387,-0.5022,-0.5022,-0.5022,-0.5022,-0.5011,-0.4937,-0.4827,-0.4884,-0.4774,-0.4721,-0.4785,-0.4754,-0.4665,-0.4665,-0.4665,-0.4665,-0.4665,-0.4665,-0.458,-0.4448,-0.4429,-0.4397,-0.4342,-0.4316,-0.4307,-0.4328,-0.4427,-0.4465,-0.4439,-0.4542,-0.4559,-0.4477,-0.444,-0.4401,-0.4342,-0.4282,-0.4582,-0.5221,-0.5804,-0.6284,-0.689,-0.7524,-0.7808,-0.775,-0.7811,-0.7872,-0.7933,-0.7933,-0.7933,-0.7853,-0.7733,-0.7404,-0.7048,-0.6645,-0.6212,-0.5877,-0.5594,-0.5594,-0.5929,-0.5929,-0.6116,-0.649,-0.6727,-0.6901,-0.6997,-0.7195,-0.7351,-0.752,-0.7494,-0.7437,-0.7402,-0.7307,-0.7236,-0.7221,-0.721,-0.7139,-0.6937,-0.6692,-0.6529,-0.6416,-0.6167,-0.6052,-0.5987,-0.5783,-0.5622,-0.5806,-0.5468,-0.507,-0.509,-0.4859,-0.4922,-0.4951,-0.495,-0.5192,-0.5614,-0.5785,-0.5912,-0.6199,-0.652,-0.6592,-0.6508,-0.6498,-0.66,-0.6675,-0.6669,-0.6882,-0.7024,-0.7163,-0.721,-0.7217,-0.7166,-0.7104,-0.7015,-0.6659,-0.6387,-0.5025,-0.5022,-0.5022,-0.5022,-0.5008,-0.4913,-0.4796,-0.4763,-0.4739,-0.4689,-0.468,-0.467,-0.4665,-0.4665,-0.4665,-0.4665,-0.4665,-0.4665,-0.4598,-0.4503,-0.4471,-0.4439,-0.4373,-0.4327,-0.4308,-0.4324,-0.4427,-0.4477,-0.4478,-0.4594,-0.4632,-0.456,-0.45,-0.4452,-0.4388,-0.4337,-0.4637,-0.5148,-0.5751,-0.619,-0.6565,-0.7264,-0.7646,-0.7403,-0.7633,-0.7808,-0.7872,-0.7872,-0.7805,-0.7773,-0.7414,-0.7084,-0.6724,-0.6156,-0.571,-0.5543,-0.5427,-0.5316,-0.5316,-0.539,-0.5477,-0.5654,-0.5992,-0.6138,-0.6518,-0.6918,-0.7256,-0.7541,-0.7458,-0.7418,-0.744,-0.7266,-0.7142,-0.7102,-0.7025,-0.6931,-0.6752,-0.6195,-0.5845,-0.5817,-0.5512,-0.5244,-0.5457,-0.5277,-0.5171,-0.5148,-0.4965,-0.4704,-0.4603,-0.442,-0.4417,-0.4422,-0.4434,-0.4709,-0.514,-0.5504,-0.5625,-0.5941,-0.632,-0.6455,-0.6389,-0.6389,-0.6544,-0.6659,-0.671,-0.6958,-0.7139,-0.7272,-0.7265,-0.7139,-0.7139,-0.7238,-0.7042,-0.6627,-0.6346,-0.5061,-0.5023,-0.5022,-0.5022,-0.5018,-0.4984,-0.4948,-0.483,-0.483,-0.4762,-0.473,-0.4757,-0.4665,-0.4665,-0.4665,-0.4665,-0.4665,-0.4665,-0.4598,-0.4496,-0.4481,-0.4422,-0.4348,-0.4316,-0.4307,-0.4323,-0.4418,-0.4481,-0.4492,-0.4601,-0.4702,-0.4644,-0.4518,-0.4458,-0.4398,-0.4343,-0.4377,-0.4632,-0.5157,-0.5495,-0.5665,-0.6227,-0.6696,-0.7125,-0.718,-0.7447,-0.7811,-0.7627,-0.7522,-0.7436,-0.7243,-0.6705,-0.6022,-0.5422,-0.4985,-0.4594,-0.4314,-0.4313,-0.466,-0.4814,-0.5026,-0.5457,-0.5743,-0.6191,-0.6275,-0.689,-0.7263,-0.7417,-0.7444,-0.7468,-0.7358,-0.7098,-0.6858,-0.6553,-0.6436,-0.6389,-0.6288,-0.5691,-0.5188,-0.5222,-0.492,-0.4741,-0.4724,-0.4654,-0.451,-0.4595,-0.4387,-0.406,-0.4067,-0.3881,-0.3801,-0.3913,-0.4014,-0.4288,-0.4612,-0.5077,-0.5379,-0.566,-0.6002,-0.6368,-0.6277,-0.6155,-0.6482,-0.6793,-0.6777,-0.6929,-0.7203,-0.7398,-0.7265,-0.7159,-0.7101,-0.7141,-0.6923,-0.6612,-0.6355,-0.5052,-0.5022,-0.5022,-0.5022,-0.5016,-0.4996,-0.4967,-0.4922,-0.4845,-0.4789,-0.4821,-0.4765,-0.4665,-0.4665,-0.4665,-0.4665,-0.4665,-0.4665,-0.4667,-0.4489,-0.4429,-0.4369,-0.4319,-0.4307,-0.4307,-0.4316,-0.4402,-0.4455,-0.4493,-0.4582,-0.4612,-0.4605,-0.4551,-0.4504,-0.4476,-0.4387,-0.4345,-0.4466,-0.4863,-0.5135,-0.506,-0.5665,-0.6305,-0.6778,-0.6888,-0.7252,-0.776,-0.7441,-0.719,-0.7114,-0.6784,-0.6165,-0.5575,-0.4845,-0.4372,-0.3982,-0.3757,-0.382,-0.4078,-0.4173,-0.4393,-0.48,-0.5195,-0.5544,-0.5879,-0.6523,-0.6851,-0.7048,-0.7262,-0.7193,-0.6969,-0.6732,-0.6451,-0.6168,-0.5828,-0.5691,-0.5982,-0.5196,-0.4804,-0.4697,-0.4504,-0.4193,-0.4351,-0.4166,-0.4115,-0.4108,-0.3914,-0.3762,-0.3649,-0.343,-0.3313,-0.3542,-0.3656,-0.3869,-0.4327,-0.4786,-0.5336,-0.562,-0.6101,-0.6418,-0.6384,-0.6224,-0.6605,-0.6944,-0.6891,-0.6964,-0.7277,-0.7494,-0.7397,-0.7291,-0.7182,-0.6984,-0.678,-0.6465,-0.6245,-0.5027,-0.5022,-0.5022,-0.5022,-0.5014,-0.4967,-0.495,-0.4917,-0.4835,-0.4777,-0.4747,-0.4771,-0.4749,-0.4665,-0.4665,-0.4665,-0.4665,-0.4665,-0.4595,-0.4497,-0.441,-0.4343,-0.433,-0.4312,-0.4308,-0.4318,-0.4371,-0.4422,-0.4476,-0.454,-0.4673,-0.4688,-0.4587,-0.4565,-0.4518,-0.4443,-0.4399,-0.4428,-0.4751,-0.4899,-0.4821,-0.5342,-0.5876,-0.6374,-0.6839,-0.7063,-0.736,-0.7123,-0.6839,-0.6879,-0.6111,-0.5553,-0.5184,-0.4372,-0.4036,-0.3924,-0.3703,-0.3668,-0.3723,-0.38,-0.3795,-0.4063,-0.4275,-0.4605,-0.5306,-0.5885,-0.6372,-0.6613,-0.6766,-0.6677,-0.6448,-0.6266,-0.6065,-0.571,-0.5204,-0.5111,-0.5152,-0.4692,-0.4218,-0.4424,-0.405,-0.394,-0.3966,-0.3994,-0.3802,-0.3848,-0.3642,-0.3551,-0.3503,-0.3371,-0.332,-0.3376,-0.3439,-0.3494,-0.3996,-0.4494,-0.514,-0.5682,-0.6282,-0.6677,-0.6714,-0.6693,-0.6888,-0.706,-0.7078,-0.7251,-0.7499,-0.7584,-0.7462,-0.726,-0.7011,-0.6837,-0.6684,-0.6334,-0.6071,-0.5063,-0.5022,-0.5022,-0.5022,-0.5019,-0.5006,-0.4978,-0.4935,-0.4909,-0.4839,-0.4843,-0.4814,-0.4779,-0.4665,-0.4665,-0.4665,-0.4664,-0.4731,-0.462,-0.4553,-0.4481,-0.4418,-0.4376,-0.4335,-0.4311,-0.4323,-0.4369,-0.4403,-0.4437,-0.4515,-0.4579,-0.4659,-0.459,-0.4551,-0.4501,-0.4448,-0.4373,-0.4333,-0.4498,-0.4485,-0.4473,-0.4625,-0.5044,-0.5617,-0.6451,-0.6735,-0.6487,-0.6426,-0.6171,-0.5728,-0.5401,-0.4993,-0.4461,-0.4148,-0.3924,-0.3757,-0.3645,-0.3615,-0.373,-0.3724,-0.3781,-0.3913,-0.4196,-0.4523,-0.49,-0.5487,-0.5941,-0.6194,-0.6334,-0.6327,-0.5985,-0.5897,-0.5601,-0.5152,-0.4817,-0.4531,-0.4339,-0.3952,-0.3754,-0.3741,-0.3659,-0.3536,-0.3634,-0.3648,-0.3601,-0.3583,-0.351,-0.3432,-0.3403,-0.3375,-0.3367,-0.3376,-0.3448,-0.3601,-0.4159,-0.4754,-0.5391,-0.5887,-0.6442,-0.6736,-0.6778,-0.6991,-0.7161,-0.7247,-0.7313,-0.7498,-0.7684,-0.7442,-0.7259,-0.7047,-0.6824,-0.6623,-0.6436,-0.6122,-0.5855,-0.5049,-0.5022,-0.5022,-0.5022,-0.5022,-0.5021,-0.5003,-0.4974,-0.4947,-0.4886,-0.4805,-0.477,-0.4794,-0.4668,-0.4665,-0.4665,-0.4657,-0.4705,-0.4605,-0.456,-0.4508,-0.4451,-0.4406,-0.4367,-0.4341,-0.4322,-0.4338,-0.4367,-0.4416,-0.4481,-0.4545,-0.4576,-0.467,-0.4586,-0.4525,-0.4465,-0.441,-0.4358,-0.432,-0.4307,-0.4298,-0.4279,-0.4569,-0.5191,-0.6054,-0.6408,-0.6095,-0.573,-0.5418,-0.5038,-0.4732,-0.4438,-0.407,-0.387,-0.3757,-0.3643,-0.3589,-0.3635,-0.3704,-0.3753,-0.3807,-0.3892,-0.4092,-0.4372,-0.4746,-0.518,-0.5504,-0.5758,-0.5925,-0.5926,-0.5437,-0.5208,-0.4929,-0.4594,-0.4372,-0.4148,-0.3861,-0.3668,-0.3538,-0.3534,-0.3571,-0.3516,-0.353,-0.353,-0.3536,-0.3586,-0.3584,-0.3507,-0.35,-0.3467,-0.3417,-0.3405,-0.354,-0.3858,-0.4449,-0.5065,-0.5792,-0.6187,-0.6542,-0.6639,-0.6597,-0.695,-0.7372,-0.7434,-0.7521,-0.7568,-0.7658,-0.7359,-0.7143,-0.6979,-0.6736,-0.6423,-0.6164,-0.5928,-0.567,-0.5022,-0.5022,-0.5022,-0.5022,-0.5022,-0.5022,-0.5021,-0.5011,-0.4962,-0.4823,-0.4842,-0.4782,-0.4796,-0.4747,-0.4665,-0.4665,-0.4725,-0.4624,-0.46,-0.459,-0.4553,-0.45,-0.4451,-0.442,-0.4313,-0.4258,-0.4182,-0.4273,-0.4383,-0.4374,-0.4427,-0.4556,-0.4617,-0.4594,-0.4552,-0.451,-0.4437,-0.4369,-0.4327,-0.4307,-0.4307,-0.4303,-0.4542,-0.4961,-0.5606,-0.584,-0.5506,-0.5215,-0.4863,-0.4682,-0.4181,-0.3992,-0.3895,-0.3785,-0.3615,-0.362,-0.3631,-0.3684,-0.3818,-0.3852,-0.3835,-0.3879,-0.3897,-0.4156,-0.4598,-0.4752,-0.4973,-0.5283,-0.5417,-0.5384,-0.4897,-0.479,-0.4443,-0.4151,-0.4038,-0.3868,-0.3643,-0.3587,-0.3582,-0.358,-0.3564,-0.3561,-0.3568,-0.3572,-0.3582,-0.3586,-0.358,-0.3576,-0.3567,-0.3531,-0.3466,-0.3417,-0.3495,-0.3953,-0.4536,-0.547,-0.6196,-0.635,-0.6651,-0.6645,-0.6589,-0.6939,-0.7341,-0.764,-0.7733,-0.7726,-0.7605,-0.7327,-0.7076,-0.693,-0.6557,-0.6128,-0.587,-0.5768,-0.5458,-0.5022,-0.5022,-0.5022,-0.5022,-0.5021,-0.5022,-0.5019,-0.5011,-0.4957,-0.4826,-0.4765,-0.4782,-0.4796,-0.4677,-0.4665,-0.4665,-0.4732,-0.4643,-0.4642,-0.464,-0.4616,-0.4579,-0.4529,-0.4406,-0.4294,-0.404,-0.3933,-0.3918,-0.4134,-0.4108,-0.418,-0.4434,-0.4564,-0.4563,-0.4519,-0.448,-0.4424,-0.4348,-0.4316,-0.4308,-0.4307,-0.4305,-0.437,-0.4609,-0.5076,-0.5071,-0.4733,-0.475,-0.4643,-0.4089,-0.3866,-0.3833,-0.3802,-0.3736,-0.3736,-0.378,-0.3721,-0.3812,-0.388,-0.3902,-0.3879,-0.3918,-0.3888,-0.4009,-0.4254,-0.4303,-0.4537,-0.4719,-0.4857,-0.4807,-0.4693,-0.4507,-0.4368,-0.4114,-0.398,-0.3868,-0.3699,-0.3587,-0.3587,-0.3587,-0.3587,-0.3587,-0.3587,-0.3587,-0.3587,-0.3579,-0.3567,-0.3575,-0.3579,-0.3529,-0.3462,-0.3422,-0.3391,-0.399,-0.4605,-0.5685,-0.6473,-0.6441,-0.657,-0.6709,-0.6753,-0.6992,-0.7288,-0.7441,-0.764,-0.7736,-0.7527,-0.7189,-0.6942,-0.6737,-0.6269,-0.5751,-0.5681,-0.5644,-0.5294,-0.4473,-0.4709,-0.471,-0.477,-0.4909,-0.5008,-0.4984,-0.4936,-0.4855,-0.4884,-0.4812,-0.4766,-0.4794,-0.4677,-0.4665,-0.4665,-0.4665,-0.4665,-0.4665,-0.4661,-0.4632,-0.4605,-0.457,-0.4373,-0.4126,-0.3811,-0.3495,-0.3455,-0.3712,-0.3647,-0.3824,-0.407,-0.4263,-0.4331,-0.4488,-0.4451,-0.4394,-0.4323,-0.4307,-0.4307,-0.4307,-0.4307,-0.4307,-0.4424,-0.4513,-0.4448,-0.425,-0.4234,-0.4195,-0.3758,-0.362,-0.3544,-0.3474,-0.3536,-0.3712,-0.3786,-0.3834,-0.3858,-0.3909,-0.3923,-0.3887,-0.3929,-0.3871,-0.3983,-0.4102,-0.4154,-0.4232,-0.4483,-0.4441,-0.4406,-0.4367,-0.4257,-0.4045,-0.3885,-0.3814,-0.3759,-0.3645,-0.3589,-0.3587,-0.3587,-0.3587,-0.3587,-0.3587,-0.3587,-0.3587,-0.3575,-0.3557,-0.3568,-0.3586,-0.3537,-0.3473,-0.3621,-0.3745,-0.4382,-0.5024,-0.5896,-0.6605,-0.6578,-0.6574,-0.6664,-0.6723,-0.6918,-0.6954,-0.7042,-0.7241,-0.7468,-0.7251,-0.6888,-0.6714,-0.6554,-0.6155,-0.5798,-0.5688,-0.5504,-0.5178,-0.4083,-0.4397,-0.4465,-0.4675,-0.4885,-0.4973,-0.4864,-0.4804,-0.4886,-0.4843,-0.4837,-0.4814,-0.4782,-0.4749,-0.4665,-0.4665,-0.4665,-0.4665,-0.4665,-0.4731,-0.4625,-0.4595,-0.4506,-0.4185,-0.3873,-0.3726,-0.3195,-0.2882,-0.321,-0.3231,-0.3476,-0.3713,-0.3824,-0.4026,-0.4252,-0.4284,-0.4294,-0.4326,-0.4307,-0.4307,-0.4307,-0.4307,-0.4307,-0.4305,-0.4259,-0.4203,-0.3999,-0.3953,-0.3743,-0.3438,-0.3361,-0.331,-0.3102,-0.3309,-0.3598,-0.3766,-0.3808,-0.3835,-0.3864,-0.3883,-0.3907,-0.3881,-0.3849,-0.398,-0.4011,-0.4082,-0.4083,-0.4338,-0.4265,-0.4096,-0.4091,-0.3896,-0.3748,-0.3703,-0.3679,-0.3606,-0.3663,-0.3602,-0.3589,-0.3587,-0.3587,-0.3587,-0.3587,-0.3587,-0.3587,-0.3587,-0.3571,-0.3572,-0.3583,-0.3557,-0.3604,-0.3883,-0.4198,-0.492,-0.5527,-0.614,-0.6623,-0.6681,-0.6641,-0.6676,-0.6658,-0.6698,-0.6737,-0.6773,-0.6781,-0.695,-0.6709,-0.6629,-0.654,-0.6373,-0.6056,-0.5839,-0.5657,-0.5457,-0.5144,-0.4397,-0.4393,-0.4738,-0.4893,-0.4988,-0.491,-0.4817,-0.4906,-0.4822,-0.4773,-0.4818,-0.4775,-0.4676,-0.4666,-0.4665,-0.4665,-0.4665,-0.4665,-0.4665,-0.4734,-0.4643,-0.4636,-0.4568,-0.4164,-0.3783,-0.3487,-0.3027,-0.3008,-0.3062,-0.2888,-0.3027,-0.3351,-0.348,-0.3591,-0.3948,-0.3995,-0.4093,-0.425,-0.4307,-0.4307,-0.4307,-0.4307,-0.4307,-0.4304,-0.4223,-0.4104,-0.3755,-0.3655,-0.3415,-0.3086,-0.3078,-0.3204,-0.3387,-0.3451,-0.3639,-0.3811,-0.3931,-0.3931,-0.3933,-0.3931,-0.3931,-0.3876,-0.388,-0.3916,-0.3939,-0.3934,-0.3972,-0.3955,-0.3931,-0.3926,-0.3944,-0.389,-0.386,-0.3741,-0.3681,-0.3666,-0.3598,-0.3489,-0.3477,-0.3475,-0.3475,-0.3531,-0.3531,-0.3587,-0.3587,-0.3587,-0.3587,-0.3587,-0.3571,-0.3538,-0.3717,-0.3992,-0.4391,-0.5106,-0.5723,-0.635,-0.6632,-0.6763,-0.6763,-0.6736,-0.666,-0.664,-0.6543,-0.6608,-0.657,-0.6627,-0.665,-0.6602,-0.6475,-0.621,-0.5926,-0.5726,-0.5562,-0.534,-0.5164,-0.404,-0.4039,-0.4405,-0.4699,-0.4839,-0.4788,-0.4839,-0.4823,-0.4854,-0.481,-0.4778,-0.4752,-0.4665,-0.4665,-0.4665,-0.4665,-0.4665,-0.4665,-0.4665,-0.4654,-0.4639,-0.4561,-0.428,-0.389,-0.3513,-0.3166,-0.279,-0.257,-0.2627,-0.2606,-0.2664,-0.3003,-0.3065,-0.3201,-0.3526,-0.3582,-0.3612,-0.3715,-0.3834,-0.4104,-0.4239,-0.4307,-0.4307,-0.4307,-0.4104,-0.384,-0.3637,-0.3352,-0.3114,-0.2857,-0.2837,-0.2838,-0.2901,-0.3086,-0.3516,-0.3393,-0.3762,-0.3885,-0.3887,-0.3888,-0.3888,-0.3876,-0.3897,-0.3905,-0.3881,-0.3818,-0.3895,-0.3917,-0.3882,-0.3883,-0.393,-0.3921,-0.3884,-0.3775,-0.3609,-0.3464,-0.3439,-0.3336,-0.3306,-0.3306,-0.3306,-0.3307,-0.3307,-0.3251,-0.3306,-0.3362,-0.3362,-0.3418,-0.3384,-0.339,-0.3671,-0.409,-0.4607,-0.5184,-0.577,-0.6413,-0.6722,-0.6831,-0.6885,-0.6844,-0.6768,-0.6703,-0.6665,-0.6524,-0.6476,-0.6548,-0.6625,-0.6468,-0.6198,-0.6,-0.5828,-0.562,-0.5513,-0.549,-0.5321,-0.3611,-0.3668,-0.4203,-0.4499,-0.4635,-0.4671,-0.457,-0.4481,-0.4595,-0.4631,-0.4602,-0.4665,-0.4665,-0.4665,-0.4665,-0.4665,-0.4665,-0.4665,-0.4592,-0.4573,-0.4484,-0.4267,-0.3917,-0.3466,-0.3179,-0.2843,-0.2528,-0.2305,-0.2232,-0.2294,-0.2479,-0.2664,-0.2632,-0.2838,-0.3111,-0.3156,-0.3189,-0.3299,-0.3632,-0.3901,-0.3969,-0.4104,-0.4037,-0.3969,-0.3823,-0.3585,-0.3434,-0.329,-0.2925,-0.2794,-0.2714,-0.2653,-0.2592,-0.2962,-0.3331,-0.3331,-0.3702,-0.3888,-0.3888,-0.3888,-0.3888,-0.3936,-0.3918,-0.3876,-0.3841,-0.3816,-0.3827,-0.3888,-0.3891,-0.3884,-0.3928,-0.3932,-0.3783,-0.3622,-0.3456,-0.3249,-0.3102,-0.3068,-0.3038,-0.3027,-0.3029,-0.3027,-0.2971,-0.2914,-0.2914,-0.3082,-0.3138,-0.3194,-0.3324,-0.3382,-0.3822,-0.4309,-0.4663,-0.5289,-0.6051,-0.6493,-0.6762,-0.6896,-0.695,-0.6948,-0.6866,-0.6831,-0.6809,-0.6666,-0.6503,-0.6434,-0.6468,-0.6212,-0.5981,-0.597,-0.5909,-0.5611,-0.5464,-0.5498,-0.5406,-0.3274,-0.3578,-0.4396,-0.4528,-0.4373,-0.4226,-0.4,-0.3838,-0.4055,-0.4164,-0.4228,-0.4518,-0.4665,-0.4665,-0.4665,-0.4665,-0.4665,-0.4665,-0.4445,-0.4226,-0.4075,-0.3855,-0.3494,-0.3129,-0.291,-0.277,-0.2397,-0.2024,-0.1941,-0.2154,-0.2202,-0.2245,-0.2349,-0.2517,-0.2646,-0.2794,-0.2916,-0.3102,-0.3436,-0.3498,-0.3565,-0.3632,-0.3699,-0.343,-0.3288,-0.3187,-0.3168,-0.3097,-0.2992,-0.2844,-0.2714,-0.2714,-0.2715,-0.3023,-0.3208,-0.3455,-0.3715,-0.3901,-0.3903,-0.3893,-0.3888,-0.3887,-0.3879,-0.3928,-0.3907,-0.3864,-0.3879,-0.3931,-0.3925,-0.3849,-0.3899,-0.3894,-0.3693,-0.3416,-0.3199,-0.3047,-0.2899,-0.2807,-0.278,-0.2758,-0.2753,-0.2813,-0.2649,-0.2539,-0.2636,-0.2746,-0.3083,-0.3195,-0.3513,-0.3684,-0.4172,-0.4594,-0.4829,-0.5458,-0.6326,-0.6711,-0.6831,-0.6929,-0.6997,-0.6994,-0.6959,-0.694,-0.6904,-0.6783,-0.6603,-0.643,-0.6303,-0.6155,-0.6088,-0.6135,-0.6056,-0.5857,-0.556,-0.5458,-0.5356,-0.2341,-0.2525,-0.3316,-0.3875,-0.4263,-0.4168,-0.3945,-0.3691,-0.3938,-0.4108,-0.408,-0.4227,-0.43,-0.4373,-0.4592,-0.4665,-0.4665,-0.4373,-0.4227,-0.4081,-0.3863,-0.3353,-0.299,-0.2771,-0.2698,-0.2333,-0.204,-0.2112,-0.2102,-0.2012,-0.206,-0.2173,-0.2148,-0.2286,-0.2346,-0.2458,-0.2588,-0.2853,-0.3042,-0.3097,-0.3295,-0.3295,-0.3362,-0.3228,-0.3227,-0.3182,-0.3113,-0.31,-0.2915,-0.28,-0.2778,-0.2775,-0.2775,-0.3022,-0.3272,-0.3464,-0.3731,-0.3935,-0.3931,-0.3912,-0.3889,-0.3888,-0.3888,-0.3888,-0.3888,-0.3888,-0.3888,-0.3887,-0.3885,-0.3799,-0.3681,-0.3624,-0.3494,-0.3213,-0.2935,-0.2783,-0.2632,-0.2539,-0.2527,-0.2455,-0.2555,-0.2661,-0.244,-0.216,-0.2314,-0.2467,-0.2805,-0.3194,-0.3624,-0.3935,-0.4426,-0.4966,-0.5261,-0.5679,-0.6503,-0.6732,-0.6869,-0.6948,-0.7032,-0.7027,-0.701,-0.6983,-0.6942,-0.6821,-0.6725,-0.6627,-0.6446,-0.6228,-0.6149,-0.61,-0.6189,-0.6277,-0.5927,-0.545,-0.5318,-0.1644,-0.1846,-0.2342,-0.296,-0.3621,-0.3719,-0.358,-0.3314,-0.3567,-0.3823,-0.3936,-0.3936,-0.4007,-0.4153,-0.4228,-0.4301,-0.4154,-0.3936,-0.3571,-0.3279,-0.2915,-0.2552,-0.2261,-0.2115,-0.2042,-0.1677,-0.1676,-0.1748,-0.1807,-0.1652,-0.1635,-0.1763,-0.19,-0.1964,-0.2206,-0.22,-0.2323,-0.2521,-0.2712,-0.2693,-0.2893,-0.296,-0.296,-0.2888,-0.2813,-0.284,-0.2851,-0.2887,-0.2844,-0.2737,-0.2714,-0.2714,-0.2775,-0.2962,-0.3217,-0.3422,-0.3633,-0.3914,-0.3915,-0.395,-0.3907,-0.3893,-0.3888,-0.3888,-0.3888,-0.3888,-0.3888,-0.3764,-0.3752,-0.3614,-0.3362,-0.3274,-0.3116,-0.2771,-0.2695,-0.2497,-0.2351,-0.2207,-0.2206,-0.2201,-0.2308,-0.2359,-0.2296,-0.2125,-0.2438,-0.2588,-0.2858,-0.3419,-0.4083,-0.4391,-0.4739,-0.5235,-0.5721,-0.6209,-0.6706,-0.6786,-0.6869,-0.6945,-0.7018,-0.7111,-0.7046,-0.7021,-0.7024,-0.7016,-0.6913,-0.6794,-0.6674,-0.6553,-0.6271,-0.5948,-0.6066,-0.625,-0.5778,-0.5331,-0.5391,-0.1403,-0.1678,-0.1677,-0.1998,-0.2487,-0.2803,-0.2813,-0.2633,-0.2879,-0.3139,-0.3428,-0.3427,-0.3572,-0.3789,-0.3572,-0.35,-0.3427,-0.3135,-0.2697,-0.2187,-0.2114,-0.1604,-0.1459,-0.1386,-0.1459,-0.124,-0.124,-0.1234,-0.1222,-0.115,-0.1139,-0.1271,-0.1411,-0.1611,-0.2167,-0.2226,-0.2225,-0.2291,-0.2561,-0.2492,-0.2491,-0.2558,-0.2558,-0.2418,-0.2395,-0.2559,-0.2652,-0.2741,-0.2765,-0.2787,-0.2652,-0.259,-0.259,-0.2775,-0.2914,-0.2759,-0.3522,-0.3743,-0.3654,-0.3867,-0.3882,-0.384,-0.3834,-0.3838,-0.3832,-0.3833,-0.3647,-0.3402,-0.3373,-0.3136,-0.298,-0.2777,-0.2515,-0.2331,-0.2192,-0.22,-0.1996,-0.2097,-0.2152,-0.211,-0.2,-0.1939,-0.2046,-0.2206,-0.2569,-0.2826,-0.3032,-0.3529,-0.4199,-0.4632,-0.4819,-0.5241,-0.5746,-0.6211,-0.6598,-0.6752,-0.6874,-0.6948,-0.7065,-0.7114,-0.7133,-0.7062,-0.7136,-0.7174,-0.7065,-0.691,-0.691,-0.6964,-0.6488,-0.609,-0.6027,-0.5992,-0.5547,-0.53,-0.5343,-0.0443,-0.0584,-0.0875,-0.1252,-0.1641,-0.2299,-0.2525,-0.2384,-0.25,-0.2552,-0.2698,-0.2698,-0.2552,-0.2551,-0.2697,-0.2697,-0.2624,-0.2333,-0.1895,-0.1749,-0.1458,-0.1167,-0.0949,-0.0949,-0.1022,-0.0876,-0.0802,-0.0947,-0.1234,-0.0941,-0.0935,-0.107,-0.1196,-0.16,-0.1796,-0.1922,-0.1974,-0.2159,-0.229,-0.229,-0.2223,-0.229,-0.2289,-0.222,-0.2321,-0.2419,-0.2577,-0.2666,-0.2753,-0.2659,-0.2467,-0.2467,-0.2467,-0.2652,-0.2722,-0.2745,-0.3318,-0.3348,-0.3301,-0.3407,-0.3447,-0.3546,-0.3603,-0.3544,-0.3402,-0.3341,-0.3139,-0.2921,-0.2846,-0.2502,-0.2111,-0.1979,-0.1782,-0.1523,-0.1472,-0.1587,-0.1634,-0.2034,-0.2208,-0.2126,-0.2024,-0.2067,-0.217,-0.2273,-0.2643,-0.2954,-0.316,-0.3255,-0.3754,-0.4313,-0.463,-0.5016,-0.5494,-0.6033,-0.6439,-0.6658,-0.6915,-0.7098,-0.7125,-0.7136,-0.7144,-0.7144,-0.707,-0.7128,-0.7051,-0.7029,-0.7024,-0.6901,-0.6583,-0.6298,-0.6146,-0.5969,-0.5658,-0.5452,-0.5363,0.0,0.0,-0.0292,-0.0586,-0.1107,-0.1846,-0.2214,-0.2138,-0.2049,-0.1896,-0.1896,-0.1896,-0.1896,-0.1822,-0.1822,-0.196,-0.1886,-0.1529,-0.1233,-0.1161,-0.0947,-0.0583,-0.0511,0.0,-0.0584,0.0,0.0,-0.0583,-0.0868,-0.0582,-0.0579,-0.0784,-0.105,-0.1113,-0.1385,-0.1714,-0.2037,-0.2224,-0.2223,-0.2223,-0.2222,-0.2221,-0.2216,-0.2199,-0.2305,-0.2402,-0.2434,-0.2527,-0.262,-0.2413,-0.2345,-0.2345,-0.2345,-0.2468,-0.2536,-0.2678,-0.2835,-0.2922,-0.3121,-0.3161,-0.3197,-0.3093,-0.3244,-0.3185,-0.2928,-0.2907,-0.2586,-0.232,-0.2193,-0.1845,-0.1449,-0.1323,-0.1186,-0.0993,-0.1049,-0.1222,-0.1298,-0.1705,-0.1823,-0.1732,-0.1793,-0.1955,-0.2287,-0.2507,-0.2715,-0.2975,-0.3288,-0.3328,-0.3421,-0.3979,-0.448,-0.4868,-0.5256,-0.5795,-0.6232,-0.6559,-0.6837,-0.7149,-0.7138,-0.7061,-0.7166,-0.7166,-0.7122,-0.704,-0.7067,-0.7084,-0.6952,-0.6819,-0.6538,-0.6277,-0.61,-0.591,-0.5708,-0.5601,-0.5491,0.0,0.0,0.0,-0.0219,-0.073,-0.1461,-0.1751,-0.175,-0.1387,-0.1241,-0.1168,-0.124,-0.1313,-0.1458,-0.1313,-0.1161,-0.1154,-0.08,-0.0507,0.0,0.0,0.0,0.0,0.0,0.0,0.0,0.0,-0.029,-0.0431,-0.0361,-0.0361,-0.05,-0.0563,-0.0834,-0.1305,-0.1632,-0.1958,-0.2021,-0.2155,-0.2155,-0.2222,-0.2155,-0.2073,-0.2052,-0.2023,-0.2058,-0.2091,-0.2123,-0.2108,-0.2038,-0.2038,-0.2038,-0.2099,-0.2282,-0.2241,-0.2204,-0.2426,-0.269,-0.288,-0.2912,-0.2756,-0.2535,-0.2718,-0.2676,-0.2515,-0.2348,-0.1972,-0.1644,-0.1447,-0.1163,-0.0897,-0.0886,-0.0816,-0.0812,-0.081,-0.0878,-0.0896,-0.102,-0.1139,-0.1141,-0.1256,-0.1482,-0.2044,-0.2377,-0.2768,-0.315,-0.3461,-0.3612,-0.3706,-0.3867,-0.4369,-0.4704,-0.5093,-0.5539,-0.5929,-0.6151,-0.6543,-0.6824,-0.6937,-0.6922,-0.703,-0.7025,-0.6895,-0.6887,-0.708,-0.708,-0.7053,-0.684,-0.6526,-0.6262,-0.6144,-0.5871,-0.571,-0.5766,-0.5712,0.0,0.0,0.0,-0.0219,-0.0584,-0.0875,-0.1094,-0.1313,-0.1241,-0.1095,-0.0803,-0.073,-0.0729,-0.0511,-0.0365,0.0,0.0,-0.0218,-0.0146,0.0,0.0,0.0,0.0,0.0,0.0,0.0,0.0,0.0,-0.0215,-0.0216,-0.0572,-0.0847,-0.0632,-0.0969,-0.1227,-0.1417,-0.155,-0.1751,-0.1953,-0.2087,-0.202,-0.1885,-0.1801,-0.1711,-0.1689,-0.1664,-0.1704,-0.1867,-0.1918,-0.1978,-0.1977,-0.1977,-0.2038,-0.2101,-0.205,-0.2076,-0.2154,-0.222,-0.2343,-0.2319,-0.2172,-0.1917,-0.1914,-0.1867,-0.1767,-0.1599,-0.1353,-0.1023,-0.0826,-0.0685,0.0,0.0,0.0,0.0,0.0,-0.0591,-0.0601,-0.0722,-0.0782,-0.0841,-0.0898,-0.1416,-0.1918,-0.2418,-0.2863,-0.3307,-0.3577,-0.373,-0.3882,-0.393,-0.4033,-0.4313,-0.459,-0.4869,-0.5318,-0.5596,-0.6044,-0.6437,-0.6604,-0.6662,-0.6654,-0.6596,-0.6546,-0.6659,-0.6879,-0.7046,-0.7149,-0.6879,-0.6495,-0.6381,-0.6262,-0.5931,-0.571,-0.5822,-0.5877,0.0,0.0,0.0,-0.0146,-0.0365,-0.0365,-0.0511,-0.073,-0.073,-0.0583,-0.0363,-0.0364,0.0,0.0,0.0,0.0,0.0,0.0,0.0,0.0,0.0,0.0,0.0,0.0,0.0,0.0,0.0,0.0,0.0,-0.0214,-0.0498,-0.0773,-0.0769,-0.0893,-0.1018,-0.0948,-0.0948,-0.1214,-0.1481,-0.1683,-0.1683,-0.1547,-0.1464,-0.1377,-0.1294,-0.1281,-0.1326,-0.1558,-0.1674,-0.1737,-0.1739,-0.1668,-0.1671,-0.1676,-0.1757,-0.1776,-0.1835,-0.1969,-0.2033,-0.1875,-0.1736,-0.1483,-0.1236,-0.1121,-0.1074,-0.0962,-0.0709,-0.0451,-0.0321,0.0,0.0,0.0,0.0,0.0,0.0,0.0,-0.0359,-0.048,-0.0541,-0.066,-0.0951,-0.1465,-0.1911,-0.2408,-0.291,-0.3373,-0.3601,-0.3533,-0.3624,-0.366,-0.3593,-0.3642,-0.3864,-0.4032,-0.4534,-0.4983,-0.5487,-0.5935,-0.6328,-0.6383,-0.6272,-0.6328,-0.6439,-0.655,-0.6659,-0.6879,-0.7099,-0.6824,-0.6548,-0.649,-0.6434,-0.6214,-0.6047,-0.6047,-0.6047,0.0,0.0,0.0,0.0,0.0,0.0,0.0,0.0,0.0,0.0072,0.0072,0.0,0.0073,0.0,0.0,0.0,0.0,0.0,0.0,0.0,0.0,0.0,0.0,0.0,0.0,0.0,0.0,0.0,0.0,-0.0215,-0.0426,-0.0491,-0.0347,-0.0411,-0.0609,-0.0543,-0.0543,-0.0607,-0.0875,-0.1077,-0.1144,-0.1073,-0.0998,-0.0976,-0.0969,-0.0964,-0.095,-0.1066,-0.112,-0.125,-0.1309,-0.1236,-0.124,-0.1256,-0.1337,-0.1404,-0.1462,-0.1595,-0.1657,-0.1573,-0.1432,-0.1178,-0.0867,-0.0685,-0.0568,-0.0511,-0.0321,0.0,0.0,0.0,0.0,0.0,0.0,0.0,0.0,0.0,0.0,0.0,0.0,0.0,-0.0653,-0.1111,-0.1677,-0.2121,-0.2567,-0.3266,-0.3486,-0.3363,-0.3297,-0.3328,-0.3205,-0.3082,-0.325,-0.3474,-0.3807,-0.4311,-0.4871,-0.532,-0.577,-0.6049,-0.594,-0.6107,-0.633,-0.6439,-0.6606,-0.6882,-0.699,-0.6768,-0.6715,-0.6768,-0.6659,-0.6495,-0.6383,-0.6216,-0.6102,0.0,0.0,0.0,0.0,0.0,0.0,0.0,0.0,0.0,0.0,0.0725,0.0364,0.0365,0.0801,0.0365,0.0,0.0,0.0,0.0,0.0,0.0,0.0,0.0,0.0,0.0,0.0,0.0,0.0,0.0,-0.0216,-0.0427,-0.0492,-0.0348,-0.0413,-0.0405,0.0,0.0,0.0,0.0,0.0,-0.0943,-0.0739,-0.06,-0.0592,-0.0589,-0.0585,-0.0706,-0.0888,-0.0946,-0.1071,-0.1057,-0.1051,-0.1112,-0.1013,-0.102,-0.1082,-0.1151,-0.1222,-0.1283,-0.1208,-0.107,-0.0879,-0.0565,-0.0375,-0.025,0.0,0.0,0.0,0.0,0.0,0.0,0.0,0.0,0.0,0.0,0.0,0.0,0.0,0.0,0.0,0.0,-0.0822,-0.1337,-0.1841,-0.2288,-0.2618,-0.2827,-0.2875,-0.2825,-0.2814,-0.2698,-0.2635,-0.2748,-0.3027,-0.3306,-0.3649,-0.4161,-0.4604,-0.5052,-0.533,-0.5551,-0.5826,-0.6047,-0.6328,-0.655,-0.6826,-0.699,-0.6879,-0.6824,-0.6879,-0.6715,-0.6495,-0.6158,-0.5933,-0.5933,0.0072,0.0215,0.0433,0.0362,0.029,0.0582,0.0724,0.0788,0.0929,0.1436,0.195,0.1157,0.094,0.1593,0.1163,0.0726,0.0649,0.0,0.0,0.0,0.0725,0.0,0.0729,0.051,0.0,0.0,0.0,0.0,0.0,-0.0144,-0.0285,0.0,0.0,0.0,0.0,0.0,0.0,0.0,0.0,0.0,-0.0607,-0.0403,-0.0267,-0.0265,0.0,0.0,-0.0326,-0.0515,-0.0639,-0.0697,-0.075,-0.0619,-0.056,-0.0508,-0.0641,-0.0707,-0.0775,-0.0846,-0.0908,-0.0837,-0.0702,-0.051,-0.0319,-0.0127,0.0,0.0,0.0,0.0,0.0,0.0,0.0,0.0,0.0,0.0,0.0,0.0,0.0,0.0,0.0,0.0,-0.0306,-0.067,-0.1141,-0.1466,-0.1865,-0.2136,-0.2287,-0.2207,-0.2205,-0.2198,-0.2137,-0.2132,-0.2244,-0.2413,-0.2692,-0.304,-0.3452,-0.3896,-0.4291,-0.4787,-0.5124,-0.5439,-0.5764,-0.617,-0.6563,-0.6826,-0.6879,-0.6903,-0.6831,-0.6771,-0.6604,-0.6381,-0.6044,-0.571,-0.5599,0.0283,0.0631,0.0925,0.0929,0.0787,0.1374,0.1659,0.1784,0.2063,0.2558,0.3055,0.199,0.1923,0.2225,0.2239,0.1811,0.1597,0.1745,0.1673,0.1593,0.189,0.1676,0.1385,0.1165,0.0652,0.0,0.0,0.0,0.0,0.0,0.0,0.0,0.0,0.0,0.0,0.0,0.0,0.0,0.0,0.0,0.0068,0.0,0.0,0.0,0.0,0.0,0.0,0.0,0.0,-0.0321,-0.0443,-0.0314,0.0,0.0,-0.0257,-0.0388,-0.0456,-0.059,-0.0656,-0.0521,-0.0454,-0.0324,0.0,0.0,0.0,0.0,0.0,0.0,0.0,0.0,0.0,0.0,0.0,0.0,0.0,0.0,0.0,0.0,0.0,0.0,0.0,0.0,-0.0796,-0.1137,-0.1362,-0.1643,-0.1686,-0.1555,-0.1484,-0.1533,-0.1527,-0.152,-0.1627,-0.1851,-0.2027,-0.2322,-0.268,-0.3211,-0.3669,-0.421,-0.4752,-0.5257,-0.5758,-0.6198,-0.6588,-0.6881,-0.7054,-0.7188,-0.6993,-0.6751,-0.6381,-0.6102,-0.5656,-0.532,-0.5208,0.0622,0.1037,0.1063,0.1209,0.1413,0.1641,0.1851,0.2108,0.2225,0.263,0.312,0.3193,0.3076,0.3145,0.2434,0.2075,0.2138,0.2375,0.229,0.2125,0.2454,0.2326,0.1895,0.1458,0.0728,0.0,0.0,0.0,0.0,0.0,0.0,0.0,0.0,0.0,0.0,0.0274,0.0547,0.0614,0.0686,0.0758,0.0339,0.0,0.0,0.0,0.0,0.0,0.0,0.0,0.0,-0.0065,0.0,0.0,0.0,0.0,0.0,0.0,0.0,0.0,0.0,0.0,0.0,0.0,0.0,0.0,0.0,0.0,0.0,0.0,0.0,0.0,0.0,0.0,0.0,0.0,0.0,0.0,0.0,0.0,0.0,0.0,0.0,0.0,-0.0489,-0.0663,-0.0779,-0.0951,-0.1061,-0.0992,-0.098,-0.0974,0.0,0.0,0.0,-0.1076,-0.1141,-0.1489,-0.1901,-0.2436,-0.3074,-0.3776,-0.4495,-0.5203,-0.5707,-0.6052,-0.6544,-0.6927,-0.7158,-0.7198,-0.6979,-0.6616,-0.6191,-0.5768,-0.5326,-0.4994,-0.4892]}]]